[[{"header":{"parameterUnit":"m.s-1","parameterCategory":1,"la1":30.6,"la2":28.766,"lo1":-90.7593,"lo2":-88.6598,"dy":0.0162,"dx":0.0183,"nx":116,"ny":114,"refTime":"2024-06-07T12:00:00:Z","depth":0,"parameterNumber":2,"parameterNumberName":"U-component_of_WINDS"},"data":[0.0,0.0,0.0,0.0,0.0,0.0,0.0,0.0,0.0,0.0,0.0,0.0,0.0,0.0,0.0,0.0,0.0,0.0,0.0,0.0,0.0,0.0,0.0,0.0,0.0,0.0,0.0,0.0,0.0,0.0,0.0,0.0,0.0,0.0,0.0,0.0,0.0,0.0,0.0,0.0,0.0,0.0,0.0,0.0,0.0,0.0,0.0,0.0,0.0,0.0,0.0,0.0,0.0,0.0,0.0,0.0,0.0,0.0,0.0,0.0,0.0,0.0,0.0,0.0,0.0,0.0,0.0,0.0,0.0,0.0,0.0,0.0,0.0,0.0,0.0,0.0,0.0,0.0,0.0,0.0,0.0,0.0,0.0,0.0,0.0,0.0,0.0,0.0,0.0,0.0,0.0,0.0,0.0,0.0,0.0,0.0,0.0,0.0,0.0,0.0,0.0,0.0,0.0,0.0,0.0,0.0,0.0,0.0,0.0,0.0,0.0,0.0,0.0,0.0,0.0,0.0,0.0,0.0,0.0,0.0,0.0,0.0,0.0,0.0,0.0,0.0,0.0,0.0,0.0,0.0,0.0,0.0,0.0,0.0,0.0,0.0,0.0,0.0,0.0,0.0,0.0,0.0,0.0,0.0,0.0,0.0,0.0,0.0,0.0,0.0,0.0,0.0,0.0,0.0,0.0,0.0,0.0,0.0,0.0,0.0,0.0,0.0,0.0,0.0,0.0,0.0,0.0,0.0,0.0,0.0,0.0,0.0,0.0,0.0,0.0,0.0,0.0,0.0,0.0,0.0,0.0,0.0,0.0,0.0,0.0,0.0,0.0,0.0,0.0,0.0,0.0,0.0,0.0,0.0,0.0,0.0,0.0,0.0,0.0,0.0,0.0,0.0,0.0,0.0,0.0,0.0,0.0,0.0,0.0,0.0,0.0,0.0,0.0,0.0,0.0,0.0,0.0,0.0,0.0,0.0,0.0,0.0,0.0,0.0,0.0,0.0,0.0,0.0,0.0,0.0,0.0,0.0,0.0,0.0,0.0,0.0,0.0,0.0,0.0,0.0,0.0,0.0,0.0,0.0,0.0,0.0,0.0,0.0,0.0,0.0,0.0,0.0,0.0,0.0,0.0,0.0,0.0,0.0,0.0,0.0,0.0,0.0,0.0,0.0,0.0,0.0,0.0,0.0,0.0,0.0,0.0,0.0,0.0,0.0,0.0,0.0,0.0,0.0,0.0,0.0,0.0,0.0,0.0,0.0,0.0,0.0,0.0,0.0,0.0,0.0,0.0,0.0,0.0,0.0,0.0,0.0,0.0,0.0,0.0,0.0,0.0,0.0,0.0,0.0,0.0,0.0,0.0,0.0,0.0,0.0,0.0,0.0,0.0,0.0,0.0,0.0,0.0,0.0,0.0,0.0,0.0,0.0,0.0,0.0,0.0,0.0,0.0,0.0,0.0,0.0,0.0,0.0,0.0,0.0,0.0,0.0,0.0,0.0,0.0,0.0,0.0,0.0,0.0,0.0,0.0,0.0,0.0,0.0,0.0,0.0,0.0,0.0,0.0,0.0,0.0,0.0,0.0,0.0,0.0,0.0,0.0,0.0,0.0,0.0,0.0,0.0,0.0,0.0,0.0,0.0,0.0,0.0,0.0,0.0,0.0,0.0,0.0,0.0,0.0,0.0,0.0,0.0,0.0,0.0,0.0,0.0,0.0,0.0,0.0,0.0,0.0,0.0,0.0,0.0,0.0,0.0,0.0,0.0,0.0,0.0,0.0,0.0,0.0,0.0,0.0,0.0,0.0,0.0,0.0,0.0,0.0,0.0,0.0,0.0,0.0,0.0,0.0,0.0,0.0,0.0,0.0,0.0,0.0,0.0,0.0,0.0,0.0,0.0,0.0,0.0,0.0,0.0,0.0,0.0,0.0,0.0,0.0,0.0,0.0,0.0,0.0,0.0,0.0,0.0,0.0,0.0,0.0,0.0,0.0,0.0,0.0,0.0,0.0,0.0,0.0,0.0,0.0,0.0,0.0,0.0,0.0,0.0,0.0,0.0,0.0,0.0,0.0,0.0,0.0,0.0,0.0,0.0,0.0,0.0,0.0,0.0,0.0,0.0,0.0,0.0,0.0,0.0,0.0,0.0,0.0,0.0,0.0,0.0,0.0,0.0,0.0,0.0,0.0,0.0,0.0,0.0,0.0,0.0,0.0,0.0,0.0,0.0,0.0,0.0,0.0,0.0,0.0,0.0,0.0,0.0,0.0,0.0,0.0,0.0,0.0,0.0,0.0,0.0,0.0,0.0,0.0,0.0,0.0,0.0,0.0,0.0,0.0,0.0,0.0,0.0,0.0,0.0,0.0,0.0,0.0,0.0,0.0,0.0,0.0,0.0,0.0,0.0,0.0,0.0,0.0,0.0,0.0,0.0,0.0,0.0,0.0,0.0,0.0,0.0,0.0,0.0,0.0,0.0,0.0,0.0,0.0,0.0,0.0,0.0,0.0,0.0,0.0,0.0,0.0,0.0,0.0,0.0,0.0,0.0,0.0,0.0,0.0,0.0,0.0,0.0,0.0,0.0,0.0,0.0,0.0,0.0,0.0,0.0,0.0,0.0,0.0,0.0,0.0,0.0,0.0,0.0,0.0,0.0,0.0,0.0,0.0,0.0,0.0,0.0,0.0,0.0,0.0,0.0,0.0,0.0,0.0,0.0,0.0,0.0,0.0,0.0,0.0,0.0,0.0,0.0,0.0,0.0,0.0,0.0,0.0,0.0,0.0,0.0,0.0,0.0,0.0,0.0,0.0,0.0,0.0,0.0,0.0,0.0,0.0,0.0,0.0,0.0,0.0,0.0,0.0,0.0,0.0,0.0,0.0,0.0,0.0,0.0,0.0,0.0,0.0,0.0,0.0,0.0,0.0,0.0,0.0,0.0,0.0,0.0,0.0,0.0,0.0,0.0,0.0,0.0,0.0,0.0,0.0,0.0,0.0,0.0,0.0,0.0,0.0,0.0,0.0,0.0,0.0,0.0,0.0,0.0,0.0,0.0,0.0,0.0,0.0,0.0,0.0,0.0,0.0,0.0,0.0,0.0,0.0,0.0,0.0,0.0,0.0,0.0,0.0,0.0,0.0,0.0,0.0,0.0,0.0,0.0,0.0,0.0,0.0,0.0,0.0,0.0,0.0,0.0,0.0,0.0,0.0,0.0,0.0,0.0,0.0,0.0,0.0,0.0,0.0,0.0,0.0,0.0,0.0,0.0,0.0,0.0,0.0,0.0,0.0,0.0,0.0,0.0,0.0,0.0,0.0,0.0,0.0,0.0,0.0,0.0,0.0,0.0,0.0,0.0,0.0,0.0,0.0,0.0,0.0,0.0,0.0,0.0,0.0,0.0,0.0,0.0,0.0,0.0,0.0,0.0,0.0,0.0,0.0,0.0,0.0,0.0,0.0,0.0,0.0,0.0,0.0,0.0,0.0,0.0,0.0,0.0,0.0,0.0,0.0,0.0,0.0,0.0,0.0,0.0,0.0,0.0,0.0,0.0,0.0,0.0,0.0,0.0,0.0,0.0,0.0,0.0,0.0,0.0,0.0,0.0,0.0,0.0,0.0,0.0,0.0,0.0,0.0,0.0,0.0,0.0,0.0,0.0,0.0,0.0,0.0,0.0,0.0,0.0,0.0,0.0,0.0,0.0,0.0,0.0,0.0,0.0,0.0,0.0,0.0,0.0,0.0,0.0,0.0,0.0,0.0,0.0,0.0,0.0,0.0,0.0,0.0,0.0,0.0,0.0,0.0,0.0,0.0,0.0,0.0,0.0,0.0,0.0,0.0,0.0,0.0,0.0,0.0,0.0,0.0,0.0,0.0,0.0,0.0,0.0,0.0,0.0,0.0,0.0,0.0,0.0,0.0,0.0,0.0,0.0,0.0,0.0,0.0,0.0,0.0,0.0,0.0,0.0,0.0,0.0,0.0,0.0,0.0,0.0,0.0,0.0,0.0,0.0,0.0,0.0,0.0,0.0,0.0,0.0,0.0,0.0,0.0,0.0,0.0,0.0,0.0,0.0,0.0,0.0,0.0,0.0,0.0,0.0,0.0,0.0,0.0,0.0,0.0,0.0,0.0,0.0,0.0,0.0,0.0,0.0,0.0,0.0,0.0,0.0,0.0,0.0,0.0,0.0,0.0,0.0,0.0,0.0,0.0,0.0,0.0,0.0,0.0,0.0,0.0,0.0,0.0,0.0,0.0,0.0,0.0,0.0,0.0,0.0,0.0,0.0,0.0,0.0,0.0,0.0,0.0,0.0,0.0,0.0,0.0,0.0,0.0,0.0,0.0,0.0,0.0,0.0,0.0,0.0,0.0,0.0,0.0,0.0,0.0,0.0,0.0,0.0,0.0,0.0,0.0,0.0,0.0,0.0,0.0,0.0,0.0,0.0,0.0,0.0,0.0,0.0,0.0,0.0,0.0,0.0,0.0,0.0,0.0,0.0,0.0,0.0,0.0,0.0,0.0,0.0,0.0,0.0,0.0,0.0,0.0,0.0,0.0,0.0,0.0,0.0,0.0,0.0,0.0,0.0,0.0,0.0,0.0,0.0,0.0,0.0,0.0,0.0,0.0,0.0,0.0,0.0,0.0,0.0,0.0,0.0,0.0,0.0,0.0,0.0,0.0,0.0,0.0,0.0,0.0,0.0,0.0,0.0,0.0,0.0,0.0,0.0,0.0,0.0,0.0,0.0,0.0,0.0,0.0,0.0,0.0,0.0,0.0,0.0,0.0,0.0,0.0,0.0,0.0,0.0,0.0,0.0,0.0,0.0,0.0,0.0,0.0,0.0,0.0,0.0,0.0,0.0,0.0,0.0,0.0,0.0,0.0,0.0,0.0,0.0,0.0,0.0,0.0,0.0,0.0,0.0,0.0,0.0,0.0,0.0,0.0,0.0,0.0,0.0,0.0,0.0,0.0,0.0,0.0,0.0,0.0,0.0,0.0,0.0,0.0,0.0,0.0,0.0,0.0,0.0,0.0,0.0,0.0,0.0,0.0,0.0,0.0,0.0,0.0,0.0,0.0,0.0,0.0,0.0,0.0,0.0,0.0,0.0,0.0,0.0,0.0,0.0,0.0,0.0,0.0,0.0,0.0,0.0,0.0,0.0,0.0,0.0,0.0,0.0,0.0,0.0,0.0,0.0,0.0,0.0,0.0,0.0,0.0,0.0,0.0,0.0,0.0,0.0,0.0,0.0,0.0,0.0,0.0,0.0,0.0,0.0,0.0,0.0,0.0,0.0,0.0,0.0,0.0,0.0,0.0,0.0,0.0,0.0,0.0,0.0,0.0,0.0,0.0,0.0,0.0,0.0,0.0,0.0,0.0,0.0,0.0,0.0,0.0,0.0,0.0,0.0,0.0,0.0,0.0,0.0,0.0,0.0,0.0,0.0,0.0,0.0,0.0,0.0,0.0,0.0,0.0,0.0,0.0,0.0,0.0,0.0,0.0,0.0,0.0,0.0,0.0,0.0,0.0,0.0,0.0,0.0,0.0,0.0,0.0,0.0,0.0,0.0,0.0,0.0,0.0,0.0,0.0,0.0,0.0,0.0,0.0,0.0,0.0,0.0,0.0,0.0,0.0,0.0,0.0,0.0,0.0,0.0,0.0,0.0,0.0,0.0,0.0,0.0,0.0,0.0,0.0,0.0,0.0,0.0,0.0,0.0,0.0,0.0,0.0,0.0,0.0,0.0,0.0,0.0,0.0,0.0,0.0,0.0,0.0,0.0,0.0,0.0,0.0,0.0,0.0,0.0,0.0,0.0,0.0,0.0,0.0,0.0,0.0,0.0,0.0,0.0,0.0,0.0,0.0,0.0,0.0,0.0,0.0,0.0,0.0,0.0,0.0,0.0,0.0,0.0,0.0,0.0,0.0,0.0,0.0,0.0,0.0,0.0,0.0,0.0,0.0,0.0,0.0,0.0,0.0,0.0,0.0,0.0,0.0,0.0,0.0,0.0,0.0,0.0,0.0,0.0,0.0,0.0,0.0,0.0,0.0,0.0,0.0,0.0,0.0,0.0,0.0,0.0,0.0,0.0,0.0,0.0,0.0,0.0,0.0,0.0,-0.825,0.0,0.0,0.0,0.0,0.0,0.0,0.0,0.0,0.0,0.0,0.0,0.0,0.0,0.0,0.0,0.0,0.0,0.0,0.0,0.0,0.0,0.0,0.0,0.0,-0.5098,-0.504,-0.4903,-0.4893,-0.4834,-0.4686,0.0,0.0,0.0,0.0,0.0,-0.4507,-0.4366,-0.4435,-0.4709,-0.5082,-0.5348,-0.5514,-0.5624,-0.5343,-0.4739,0.0,0.0,0.0,0.0,0.0,0.0,0.0,0.0,0.0,0.0,0.0,0.0,0.0,0.0,0.0,0.0,0.0,0.0,0.0,0.0,0.0,0.0,0.0,0.0,0.0,0.0,0.0,0.0,0.0,0.0,0.0,0.0,0.0,0.0,0.0,0.0,0.0,0.0,0.0,0.0,0.0,0.0,0.0,0.0,0.0,0.0,0.0,0.0,0.0,0.0,0.0,0.0,0.0,0.0,0.0,0.0,0.0,0.0,0.0,0.0,0.0,0.0,0.0,0.0,0.0,0.0,0.0,0.0,0.0,0.0,0.0,-0.9365,0.0,0.0,0.0,0.0,0.0,0.0,0.0,0.0,0.0,0.0,0.0,0.0,0.0,0.0,0.0,0.0,0.0,0.0,0.0,0.0,0.0,-0.5098,-0.5098,-0.5098,-0.5127,-0.5215,-0.5146,-0.5137,-0.5215,-0.5137,0.0,0.0,0.0,-0.4419,-0.4383,-0.4455,-0.4857,-0.5613,-0.6184,-0.6678,-0.7099,-0.773,-0.7626,-0.6884,-0.5946,0.0,0.0,0.0,0.0,0.0,0.0,0.0,0.0,0.0,0.0,0.0,0.0,0.0,0.0,0.0,0.0,0.0,0.0,0.0,0.0,0.0,0.0,0.0,0.0,0.0,0.0,0.0,0.0,0.0,0.0,0.0,0.0,0.0,0.0,0.0,0.0,0.0,0.0,0.0,0.0,0.0,0.0,0.0,0.0,0.0,0.0,0.0,0.0,0.0,0.0,0.0,0.0,0.0,0.0,0.0,0.0,0.0,0.0,0.0,0.0,0.0,0.0,0.0,-1.2138,-1.2432,-1.2612,-1.2612,-1.2772,-1.3025,-1.1812,-1.127,-1.1162,0.0,0.0,0.0,0.0,0.0,0.0,0.0,0.0,0.0,0.0,0.0,0.0,0.0,0.0,0.0,0.0,0.0,0.0,0.0,0.0,-0.5098,-0.5098,-0.5098,-0.5263,-0.5675,-0.5341,-0.5273,-0.5685,-0.5332,0.0,0.0,-0.5001,-0.4918,-0.474,-0.5072,-0.5399,-0.5678,-0.7414,-0.8657,-0.9453,-0.9662,-0.9918,-1.0073,-0.7542,-0.6271,-0.5981,0.0,0.0,0.0,0.0,0.0,0.0,0.0,0.0,0.0,0.0,0.0,0.0,0.0,0.0,0.0,0.0,0.0,0.0,0.0,0.0,0.0,0.0,0.0,0.0,0.0,0.0,0.0,0.0,0.0,0.0,0.0,0.0,0.0,0.0,0.0,0.0,0.0,0.0,0.0,0.0,0.0,-0.6834,-0.7263,0.0,0.0,0.0,0.0,0.0,0.0,0.0,0.0,0.0,0.0,0.0,0.0,0.0,-1.1263,-1.1672,-1.2699,-1.3114,-1.2986,-1.3788,-1.4062,-1.3848,-1.3848,-1.4008,-1.4275,-1.4082,0.0,-1.2104,-1.173,0.0,0.0,0.0,0.0,0.0,0.0,0.0,0.0,0.0,0.0,0.0,0.0,0.0,0.0,0.0,0.0,0.0,0.0,0.0,0.0,0.0,-0.5692,-0.6014,-0.6497,-0.655,-0.656,-0.6523,-0.6092,-0.5666,-0.5289,-0.5269,-0.5225,-0.5142,-0.5787,-0.6712,-0.7895,-0.9039,-0.9757,-1.0066,-0.9966,-0.9843,-0.9611,-0.8378,-0.7921,-0.8007,-0.7326,0.0,0.0,0.0,0.0,0.0,0.0,0.0,0.0,0.0,0.0,0.0,0.0,0.0,0.0,0.0,0.0,0.0,0.0,0.0,0.0,0.0,0.0,0.0,0.0,0.0,0.0,0.0,0.0,0.0,0.0,0.0,0.0,0.0,0.0,0.0,0.0,0.0,0.0,0.0,-0.6687,-0.7619,-0.7966,-0.8141,-0.8103,0.0,0.0,0.0,0.0,0.0,0.0,0.0,0.0,0.0,-1.2024,-1.2298,-1.2726,-1.3353,-1.3874,-1.4242,-1.4442,-1.483,-1.503,-1.507,-1.507,-1.5137,-1.5212,-1.5212,-1.4796,-1.3981,-1.3193,-1.2545,-1.2004,0.0,0.0,0.0,0.0,-1.1712,-1.1899,0.0,0.0,0.0,0.0,0.0,0.0,0.0,0.0,0.0,0.0,0.0,0.0,-0.59,-0.6328,-0.6816,-0.7383,-0.7593,-0.7632,-0.7441,-0.6787,-0.6235,-0.5855,-0.562,-0.56,-0.5829,-0.6905,-0.8243,-0.9848,-1.0526,-1.0843,-1.0796,-1.077,-1.0535,-1.0155,-1.0155,-0.9844,-0.9283,-0.8579,-0.7749,-0.6837,0.0,0.0,0.0,0.0,0.0,0.0,0.0,0.0,0.0,0.0,0.0,0.0,0.0,0.0,0.0,0.0,0.0,0.0,0.0,0.0,0.0,0.0,0.0,0.0,0.0,0.0,0.0,0.0,0.0,0.0,0.0,0.0,0.0,0.0,0.0,0.0,0.0,-0.7515,-0.8318,-0.8571,-0.8985,-0.9085,0.0,0.0,0.0,0.0,0.0,0.0,-1.1444,-1.2114,-1.2779,-1.352,-1.3694,-1.4082,-1.4736,-1.4816,-1.5077,-1.5504,-1.5585,-1.5691,-1.5832,-1.5937,-1.6012,-1.5945,-1.6019,-1.5932,-1.5638,-1.4469,-1.3808,-1.3494,-1.2966,-1.2759,-1.2786,-1.3045,-1.3179,-1.3333,0.0,0.0,0.0,0.0,0.0,0.0,0.0,0.0,0.0,0.0,0.0,-0.5919,-0.6328,-0.6787,-0.7402,-0.8258,-0.7949,-0.7876,-0.8307,-0.7119,-0.6579,-0.6998,-0.623,-0.6176,-0.6993,-0.8683,-0.9883,-1.0548,-1.1599,-1.2195,-1.2391,-1.3013,-1.35,-1.3823,-1.3823,-1.1973,-0.8802,-0.8182,-0.7738,-0.7389,-0.651,0.0,0.0,0.0,0.0,0.0,0.0,0.0,0.0,0.0,0.0,0.0,0.0,0.0,0.0,0.0,0.0,0.0,0.0,0.0,0.0,0.0,0.0,0.0,0.0,0.0,0.0,0.0,0.0,0.0,0.0,0.0,0.0,0.0,0.0,0.0,0.0,0.0,0.0,-0.9164,-0.9953,0.0,0.0,0.0,0.0,-1.0526,-1.1536,-1.2331,-1.2677,-1.3534,-1.4122,-1.4442,-1.4997,-1.5311,-1.5351,-1.5625,-1.5731,-1.5764,-1.6092,-1.6086,-1.5798,-1.6406,-1.6513,-1.6315,-1.654,-1.6653,-1.6547,-1.5378,-1.4723,-1.4422,-1.4115,-1.3995,-1.4001,-1.4015,-1.4195,-1.4436,0.0,0.0,0.0,0.0,0.0,-0.5098,-0.5098,-0.5098,-0.5098,-0.5098,-0.5508,-0.6066,-0.6777,-0.75,-0.8262,-0.9094,-0.9297,-0.9316,-0.9172,-0.8242,-0.7871,-0.8311,-0.7778,-0.8122,-0.9515,-1.0463,-1.1149,-1.1641,-1.213,-1.2166,-1.1719,-1.1804,-1.1621,-1.1274,-1.1274,-1.0561,-0.9416,-1.0122,-0.9644,-0.8338,-0.7781,-0.6891,0.0,0.0,0.0,0.0,0.0,0.0,0.0,0.0,0.0,0.0,0.0,0.0,0.0,0.0,0.0,0.0,0.0,0.0,0.0,0.0,0.0,0.0,0.0,0.0,0.0,0.0,0.0,0.0,0.0,0.0,0.0,0.0,0.0,0.0,0.0,0.0,0.0,-1.0347,-1.1015,0.0,0.0,-1.1476,-1.1957,-1.2245,-1.2999,-1.3661,-1.4191,-1.4649,-1.5064,-1.5351,-1.5565,-1.5765,-1.5959,-1.6066,-1.6206,-1.6393,-1.65,-1.6493,-1.64,-1.6613,-1.6647,-1.656,-1.666,-1.6707,-1.6673,-1.6253,-1.5912,-1.5618,-1.5324,-1.5211,-1.5211,-1.5211,-1.5271,-1.5318,0.0,0.0,0.0,0.0,-0.5349,-0.5204,-0.5108,-0.5098,-0.5156,-0.5322,-0.5859,-0.6565,-0.7441,-0.8291,-0.9082,-0.9767,-1.0117,-1.0175,-0.9854,-0.9062,-0.8779,-0.9182,-0.9109,-0.9696,-1.1103,-1.1562,-1.207,-1.2632,-1.2761,-1.2712,-1.2474,-1.2312,-1.2016,-1.1618,-1.1618,-1.1411,-1.1136,-1.2084,-1.12,-0.912,-0.8654,-0.7852,-0.6902,0.0,0.0,0.0,0.0,0.0,0.0,0.0,0.0,0.0,0.0,0.0,0.0,0.0,0.0,0.0,0.0,0.0,0.0,0.0,0.0,0.0,0.0,0.0,0.0,0.0,0.0,0.0,0.0,0.0,0.0,0.0,0.0,0.0,0.0,0.0,-1.1142,-1.1403,-1.2044,-1.2432,-1.2368,-1.2766,-1.322,-1.3621,-1.4202,-1.4696,-1.509,-1.5384,-1.5678,-1.5972,-1.5979,-1.6119,-1.642,-1.642,-1.6513,-1.6707,-1.6807,-1.68,-1.6714,-1.6907,-1.6947,-1.686,-1.6961,-1.7001,-1.6994,-1.6894,-1.674,-1.6589,-1.6239,-1.6077,-1.6077,-1.6077,-1.6077,-1.6112,0.0,0.0,0.0,-0.5559,-0.5502,-0.5406,-0.5137,-0.5098,-0.5263,-0.5733,-0.6565,-0.7422,-0.8297,-0.9114,-0.9786,-1.0263,-1.0303,-1.0303,-1.0303,-0.9492,-0.9201,-0.9622,-1.0117,-1.0772,-1.1626,-1.2041,-1.2652,-1.3506,-1.3535,-1.3948,-1.4757,-1.4767,-1.4991,-1.5323,-1.5323,-1.4744,-1.3768,-1.3768,-1.2245,-0.9746,-0.9126,-0.8683,-0.8348,0.0,0.0,0.0,0.0,0.0,0.0,0.0,0.0,0.0,0.0,0.0,0.0,0.0,0.0,0.0,0.0,0.0,0.0,0.0,0.0,0.0,0.0,0.0,0.0,0.0,0.0,0.0,0.0,0.0,0.0,0.0,0.0,0.0,-1.0174,-1.1182,-1.2067,-1.2325,-1.3107,-1.354,-1.3307,-1.4048,-1.4506,-1.4563,-1.509,-1.5411,-1.5411,-1.5685,-1.5972,-1.6315,-1.6328,-1.6426,-1.6714,-1.672,-1.6727,-1.6734,-1.7079,-1.7065,-1.6754,-1.7321,-1.7481,-1.7233,-1.7514,-1.7582,-1.7562,-1.7333,-1.7213,-1.7186,-1.682,-1.6707,-1.6707,-1.6707,-1.6707,-1.6667,0.0,0.0,-0.6052,-0.5826,-0.5623,-0.5406,-0.5137,-0.5098,-0.5263,-0.5733,-0.6565,-0.7422,-0.8297,-0.9114,-0.9786,-1.0263,-1.0303,-1.0303,-1.0303,-0.9766,-0.9767,-1.0507,-1.1592,-1.2299,-1.2533,-1.2939,-1.3271,-1.3506,-1.4131,-1.4265,-1.393,-1.4245,-1.4105,-1.3666,-1.3666,-1.3494,-1.322,-1.322,-1.2772,-1.1991,-1.0793,-0.9663,-0.8651,0.0,0.0,0.0,0.0,0.0,0.0,0.0,0.0,0.0,0.0,0.0,0.0,0.0,0.0,0.0,0.0,0.0,0.0,0.0,0.0,0.0,0.0,0.0,0.0,0.0,0.0,0.0,0.0,0.0,0.0,0.0,0.0,-1.1424,-1.1424,-1.2405,-1.3267,-1.3561,-1.4188,-1.4649,-1.4783,-1.501,-1.5244,-1.5411,-1.5618,-1.5712,-1.5712,-1.5992,-1.6186,-1.6321,-1.648,-1.6727,-1.7072,-1.7079,-1.7186,-1.7341,-1.7474,-1.7422,-1.7348,-1.7508,-1.7542,-1.7468,-1.7549,-1.7582,-1.7575,-1.7495,-1.7514,-1.7467,-1.6901,-1.6707,-1.6707,-1.6707,-1.6707,-1.6693,0.0,-0.6289,-0.6292,-0.607,-0.5898,-0.5678,-0.533,-0.5272,-0.5452,-0.5989,-0.666,-0.7422,-0.8297,-0.8975,-0.9455,-0.9727,-0.9912,-0.9932,-0.9756,-0.9844,-1.0351,-1.1394,-1.2197,-1.2773,-1.3135,-1.3379,-1.3682,-1.4043,-1.4541,-1.4648,-1.4352,-1.4585,-1.4451,-1.4004,-1.4004,-1.4123,-1.4305,-1.4305,-1.4092,-1.3713,-1.291,-1.1472,-0.9805,-0.9549,-0.8926,-0.8268,-0.8619,-0.8618,-0.8447,-0.8577,0.0,0.0,0.0,0.0,0.0,0.0,0.0,0.0,0.0,0.0,0.0,0.0,0.0,0.0,0.0,0.0,0.0,0.0,0.0,0.0,0.0,0.0,0.0,0.0,-1.1757,-1.2659,-1.2779,-1.3394,-1.4028,-1.4569,-1.4937,-1.5257,-1.5545,-1.5578,-1.5651,-1.5764,-1.5945,-1.6012,-1.6012,-1.6293,-1.6513,-1.6683,-1.6857,-1.7085,-1.738,-1.738,-1.7467,-1.7582,-1.7582,-1.7582,-1.7582,-1.7582,-1.7655,0.0,-1.7642,-1.7655,-1.7769,-1.7635,-1.7582,0.0,0.0,0.0,0.0,0.0,-1.7074,-1.7054,0.0,-0.6436,-0.6517,-0.6254,-0.6198,-0.604,-0.5567,-0.5502,-0.5694,-0.6254,-0.6787,-0.7412,-0.8228,-0.8721,-0.9023,-0.9055,-0.9396,-0.9494,-0.9238,-0.998,-1.0967,-1.2155,-1.2252,-1.2662,-1.3486,-1.3555,-1.3975,-1.4813,-1.4862,-1.5049,-1.541,-1.541,-1.541,-1.541,-1.5469,-1.5703,-1.6095,-1.6153,-1.5756,-1.5098,-1.5043,-1.3588,-1.1419,-1.1188,-1.037,-0.9363,-0.9207,-0.9137,-0.9054,-0.8792,0.0,0.0,0.0,0.0,0.0,0.0,0.0,0.0,0.0,0.0,0.0,0.0,0.0,0.0,0.0,0.0,0.0,0.0,0.0,0.0,0.0,0.0,0.0,0.0,-1.2754,-1.378,-1.4182,-1.4235,-1.4522,-1.5304,-1.5424,-1.5545,-1.5758,-1.5784,-1.5798,-1.5831,-1.6126,-1.6286,-1.6319,0.0,0.0,0.0,0.0,-1.7373,-1.7582,-1.7582,-1.7602,-1.7635,-1.7635,-1.7649,-1.7682,-1.7682,-1.7836,-1.8029,-1.7802,-1.7842,-1.8022,-1.7796,-1.7662,-1.7629,-1.7595,-1.7582,-1.7582,-1.7582,-1.7582,-1.7549,0.0,-0.6573,-0.6517,-0.6254,-0.6198,-0.604,-0.5567,-0.5502,-0.5602,-0.5874,-0.6602,-0.7281,-0.7788,-0.8529,-0.9123,-0.9464,-0.9554,-0.9874,-1.0498,0.0,-1.1604,-1.2184,-1.2568,-1.2988,-1.3496,-1.3812,-1.4241,-1.4813,-1.5127,-1.5332,-1.541,-1.541,-1.541,-1.543,-1.5811,-1.6016,-1.6114,-1.6445,-1.6507,-1.6311,-1.5986,-1.445,-1.2347,-1.2303,-1.1563,-1.0632,-1.1114,-1.0903,-1.0312,-1.0038,-1.0236,-1.0301,-0.875,0.0,0.0,0.0,0.0,0.0,0.0,0.0,0.0,0.0,0.0,0.0,0.0,0.0,0.0,0.0,0.0,0.0,0.0,0.0,0.0,-1.2712,-1.3507,-1.4269,-1.5037,-1.5144,-1.5204,-1.5378,-1.5605,-1.5718,-1.5771,-1.5784,-1.5925,-1.6166,-1.6239,-1.6373,-1.6607,-1.6951,0.0,-1.7199,-1.7427,-1.7522,-1.7582,-1.7582,-1.7709,-1.7902,0.0,0.0,-1.8317,-1.8317,-1.835,-1.8404,-1.8343,-1.835,-1.8397,-1.8343,-1.817,-1.7876,-1.7675,-1.7582,-1.7582,-1.7582,-1.7582,-1.7575,-0.6486,-0.6599,-0.6564,-0.6427,-0.6409,-0.6251,-0.5773,-0.5698,-0.5775,-0.598,-0.6265,-0.6651,-0.719,-0.7521,-0.7778,-0.7983,-0.8386,-0.9289,0.0,-1.1113,-1.1631,-1.252,-1.2764,-1.3076,-1.3496,-1.389,-1.4319,-1.4813,-1.5205,-1.541,-1.541,-1.541,-1.541,-1.543,-1.5899,-1.6212,-1.6426,-1.6875,-1.7061,-1.7021,-1.6572,-1.5571,-1.4284,-1.3644,-1.2798,-1.1972,-1.2163,-1.2068,-1.1722,-1.1093,-1.1198,-1.1285,-0.9826,-0.945,-0.9322,0.0,0.0,0.0,0.0,0.0,0.0,0.0,0.0,0.0,0.0,0.0,0.0,0.0,0.0,-1.0388,0.0,0.0,-1.2832,-1.3721,-1.4355,-1.4897,-1.5337,-1.5524,-1.5611,-1.5611,-1.5745,-1.5784,-1.5784,-1.5784,-1.5952,-1.6253,-1.6406,-1.662,-1.6914,-1.7259,-1.742,-1.742,-1.7508,-1.7582,-1.7582,-1.7736,-1.7896,-1.7995,-1.8142,-1.8343,-1.849,-1.849,-1.8571,-1.8698,-1.8551,-1.8577,-1.8698,-1.8551,-1.8404,-1.8257,-1.8096,-1.7849,-1.7582,-1.7582,-1.7582,-1.7582,-0.6486,-0.6599,-0.6599,-0.6599,-0.6599,-0.6448,-0.6027,-0.5918,-0.5963,-0.6127,-0.5948,-0.6029,-0.6621,-0.6513,-0.6462,-0.6638,-0.7447,0.0,0.0,-1.0986,-1.1592,-1.2856,-1.2905,-1.3115,-1.3613,-1.3938,-1.4358,-1.4902,-1.5244,-1.541,-1.541,-1.541,-1.541,-1.543,-1.5899,-1.629,-1.6609,-1.7158,-1.7334,-1.7227,-1.6843,-1.6465,-1.5985,-1.4846,-1.3936,-1.3201,-1.2898,-1.2797,-1.2664,-1.1757,-1.1825,-1.2113,-1.1116,-1.0813,-1.0614,-0.9526,-0.9347,0.0,0.0,0.0,0.0,0.0,0.0,0.0,0.0,0.0,-1.0187,-1.0807,-1.1162,-1.1692,-1.2764,-1.3173,-1.3667,-1.4543,-1.5084,-1.5418,-1.5471,-1.5678,-1.5784,-1.5784,-1.5784,-1.5784,-1.5784,-1.5784,-1.5979,-1.6333,-1.6573,-1.686,-1.7266,-1.7455,-1.7582,-1.7582,-1.7582,-1.7609,-1.7669,-1.7869,-1.8049,-1.8162,-1.8457,-1.8604,-1.8664,-1.8664,-1.8791,-1.8998,-1.8764,-1.8791,-1.8991,-1.8758,-1.8624,-1.8577,-1.8577,-1.8237,-1.7762,-1.7762,-1.7722,-1.7669,0.0,-0.6599,-0.6599,-0.6599,-0.6599,-0.65,-0.621,-0.6016,-0.5904,-0.5923,-0.5858,-0.5921,-0.6232,-0.6343,-0.6706,-0.7481,-0.8353,0.0,-1.082,-1.1291,-1.1927,-1.2866,-1.2905,-1.3252,-1.4026,-1.4085,-1.4504,-1.5342,-1.5391,-1.541,-1.541,-1.541,-1.541,-1.543,-1.5899,-1.6124,-1.6222,-1.7063,-1.7158,-1.6775,-1.6716,-1.6465,-1.6046,-1.5488,-1.4785,-1.401,-1.3627,-1.3027,-1.2336,-1.1578,-1.1754,-1.2113,-1.1116,-1.1191,-1.1487,-1.0503,0.0,-1.0271,-1.03,-1.0601,-1.0662,-0.9708,-1.0059,-1.0799,0.0,0.0,-1.1362,-1.1984,-1.2382,-1.279,-1.338,-1.3788,-1.4275,-1.5157,-1.5351,-1.5484,-1.5698,-1.5758,-1.5784,-1.5784,-1.5784,-1.5784,-1.5784,-1.5784,-1.6059,-1.6613,-1.6687,-1.6947,-1.7502,-1.7562,-1.7582,-1.7582,-1.7582,-1.7716,-1.7935,-1.7975,-1.8255,-1.8824,-1.8858,-1.9011,-1.933,-1.933,-1.9343,-1.9319,-1.9285,-1.9343,-1.9319,-1.9285,-1.9112,-1.8878,-1.8878,-1.8677,-1.839,-1.839,-1.8223,-1.7942,0.0,-0.6599,-0.6599,-0.6599,-0.6599,-0.6509,-0.6245,-0.613,-0.6079,-0.6079,-0.5945,-0.5941,-0.6174,-0.6012,-0.6163,-0.6885,-0.7749,-0.8889,-1.0449,-1.1203,-1.1976,-1.2866,-1.2905,-1.3071,-1.3398,-1.386,-1.428,-1.464,-1.5137,-1.541,-1.541,-1.541,-1.541,-1.543,-1.5899,-1.6095,-1.6134,-1.6738,-1.6863,-1.6677,-1.6445,-1.6261,-1.6016,-1.5332,-1.484,-1.4525,-1.4355,-1.3756,0.0,0.0,-1.2132,-1.2113,-1.1116,-1.1141,-1.1396,-1.0797,-1.1098,0.0,-1.1627,-1.1535,0.0,0.0,-1.203,-1.2884,-1.382,-1.3573,-1.3338,-1.3935,-1.3639,-1.35,-1.4269,-1.4516,-1.4874,0.0,-1.5651,-1.5691,-1.5764,-1.5784,-1.5784,-1.5784,-1.5784,-1.5784,-1.5784,-1.5784,-1.6072,-1.666,-1.6707,-1.6961,-1.7549,-1.7582,-1.7582,-1.7582,-1.7582,-1.7736,-1.7989,-1.8217,-1.851,-1.8925,-1.9098,-1.9245,-1.9424,-1.9424,-1.9424,-1.9424,-1.9424,-1.9424,-1.9424,-1.9424,-1.9292,-1.9185,-1.9185,-1.9105,-1.8958,-1.8617,-1.841,-1.8303,0.0,-0.6599,-0.6599,-0.6599,-0.6599,-0.6535,-0.6345,-0.6254,-0.6236,-0.6298,-0.6072,-0.5954,-0.6094,-0.5743,-0.5776,-0.6457,-0.7136,-0.8266,-0.999,-1.0929,-1.18,-1.2666,-1.2837,-1.2964,-1.3047,-1.3652,-1.4055,-1.428,-1.4932,-1.5293,-1.541,-1.541,-1.541,-1.542,-1.5772,-1.5919,-1.5938,-1.6357,-1.6443,-1.6317,-1.6173,-1.5958,-1.5674,-1.5048,-1.4639,-1.4434,-1.4434,-1.4033,-1.339,-1.2669,-1.2432,-1.2322,-1.1449,-1.1437,-1.1714,-1.1583,-1.2206,-1.2841,-1.2434,0.0,0.0,-1.2945,-1.3901,-1.4929,-1.5422,-1.5295,-1.5157,-1.5353,-1.4758,-1.4427,-1.5173,-1.5424,0.0,-1.5671,-1.6324,-1.656,-1.592,-1.6109,-1.6197,-1.5825,-1.5784,-1.5784,-1.5784,-1.5784,-1.6072,-1.666,-1.6707,-1.6961,-1.7549,-1.7582,-1.7582,-1.7582,-1.7662,-1.7856,-1.8163,-1.8464,-1.8758,-1.9052,-1.9265,-1.9424,-1.9424,-1.9424,-1.9424,-1.9424,-1.9424,-1.9424,-1.9424,-1.9424,-1.9424,-1.9424,-1.9424,-1.9424,-1.9377,-1.8891,-1.8677,-1.8611,0.0,0.0,-0.6599,-0.6599,-0.6599,-0.6599,-0.659,-0.6362,-0.6289,-0.6552,-0.6192,-0.5911,-0.59,-0.5661,-0.5847,-0.6716,-0.6987,-0.7827,-0.9505,-1.0429,-1.1297,-1.2184,-1.2656,-1.3066,-1.3477,-1.3516,-1.3936,-1.4766,-1.4823,-1.501,-1.541,-1.541,-1.541,-1.541,-1.542,-1.543,-1.5459,-1.5928,-1.587,-1.5488,-1.5928,-1.5596,-1.4852,-1.4795,-1.4268,-1.3545,-1.3545,-1.3525,-1.3379,-1.2501,-1.2501,-1.2798,-1.2313,-1.2478,0.0,-1.3319,-1.3727,0.0,0.0,0.0,-1.5635,-1.4213,-1.5474,-1.6776,-1.5568,-1.6071,-1.661,-1.586,-1.5647,-1.571,-1.6009,-1.6458,-1.644,-1.5541,-1.7636,-1.8534,-1.615,-1.685,-1.7178,-1.5967,-1.5784,-1.5784,0.0,-1.5784,-1.6072,-1.666,-1.6707,-1.6961,-1.7549,-1.7582,-1.7582,-1.7582,-1.7876,-1.8176,-1.8477,-1.8764,-1.9058,-1.9352,-1.9424,-1.9424,-1.9424,-1.9424,-1.9424,-1.9424,-1.9424,-1.9424,-1.9424,-1.9424,-1.9424,-1.9424,-1.9424,-1.9424,-1.9424,-1.941,-1.9158,-1.8911,0.0,0.0,0.0,-0.6599,-0.6599,-0.6599,-0.6599,-0.6526,-0.65,-0.659,-0.6457,0.0,0.0,0.0,0.0,0.0,0.0,-0.8185,-0.9329,-1.0303,-1.1227,-1.2101,-1.2322,-1.2656,-1.3076,-1.3359,-1.3643,-1.3936,-1.4192,-1.4397,-1.4533,-1.4533,-1.4533,-1.4533,-1.4533,-1.4727,-1.498,-1.4844,-1.5029,-1.5342,-1.4951,-1.4785,-1.4754,-1.415,-1.3584,-1.3057,0.0,-1.2632,-1.2593,-1.2301,-1.2301,-1.2447,-1.2617,0.0,0.0,-1.3695,-1.3895,-1.3968,0.0,0.0,-1.5925,-1.6513,-1.737,-1.8176,-1.8701,-1.8553,-1.8114,-1.755,-1.6843,-1.6156,-1.5565,-1.5725,-1.5998,-1.6278,-1.7251,-1.7774,-1.7142,-1.8133,-1.8126,-1.6062,-1.6527,0.0,0.0,0.0,0.0,-1.671,-1.7435,-1.8196,-1.888,-1.8916,-1.8916,-1.8916,-1.9233,-1.9139,-1.849,-1.8778,-1.9072,-1.9424,-1.9424,-1.9424,-1.9424,-1.9424,-1.9424,-1.9424,-1.9424,-1.9424,-1.9424,-1.9424,-1.9424,-1.9424,-1.9424,-1.9424,-1.9424,-1.9424,-1.9305,-1.9219,0.0,0.0,0.0,0.0,0.0,0.0,0.0,0.0,0.0,0.0,0.0,0.0,0.0,0.0,0.0,0.0,0.0,0.0,-0.8981,-0.9808,-1.0756,-1.1869,-1.1784,-1.2019,-1.2662,-1.2604,-1.2812,-1.3281,-1.3555,-1.3812,-1.4104,-1.4104,-1.4104,-1.4104,-1.4104,-1.426,-1.4531,-1.4221,-1.4426,-1.4874,-1.4328,-1.4121,-1.4069,-1.3496,-1.292,0.0,-1.1892,-1.1736,-1.1736,-1.1736,-1.194,-1.2223,0.0,0.0,-1.3437,-1.3948,-1.4343,-1.479,-1.5582,-1.6253,-1.6938,-1.8115,-1.8859,-1.9389,-1.9895,-1.9643,-1.9108,-1.8274,-1.7412,-1.6543,-1.5733,-1.581,-1.6228,-1.6792,-1.7895,-1.8558,-1.8371,-1.936,-1.9214,-1.6756,-1.7584,0.0,0.0,0.0,0.0,-1.7435,-1.8065,-1.884,-1.9546,-1.9576,-1.9576,-1.9576,-2.0016,-1.9664,-1.849,-1.8885,-1.9178,-1.9424,-1.9424,-1.9424,-1.9424,-1.9424,-1.9424,-1.9424,-1.9424,-1.9424,-1.9424,-1.9424,-1.9424,-1.9424,-1.9424,-1.9424,-1.9424,-1.9424,-1.9424,-1.9424,0.0,0.0,0.0,0.0,0.0,0.0,0.0,0.0,0.0,0.0,0.0,0.0,0.0,0.0,0.0,0.0,0.0,0.0,0.0,0.0,0.0,-1.1428,-1.1058,-1.124,-1.2246,-1.1396,-1.1577,-1.2837,-1.2861,-1.3248,-1.3977,-1.3977,-1.3977,-1.3977,-1.3977,-1.3997,-1.4036,-1.3997,-1.4016,-1.4065,-1.4007,-1.3545,-1.2866,-1.2846,0.0,-1.1518,0.0,0.0,0.0,0.0,0.0,0.0,0.0,0.0,0.0,-1.4231,-1.5166,-1.6239,-1.6485,-1.7591,-1.8771,-1.9038,-1.9844,-2.0313,-1.9295,-1.9486,-1.9447,-1.8008,-1.7297,-1.6848,0.0,0.0,-1.7016,-1.7111,-1.9412,-2.0763,-1.9754,-2.0621,-2.0486,0.0,0.0,0.0,0.0,0.0,0.0,-1.8871,0.0,-1.9032,-1.9745,-1.9834,-1.9842,-1.9857,-2.0331,-1.9983,-1.8677,-1.9135,-1.9424,-1.9424,-1.9424,-1.9424,-1.9424,-1.9424,-1.9424,-1.9424,-1.9424,-1.9424,-1.9424,-1.9424,-1.9424,-1.9424,-1.9424,-1.9424,-1.9424,-1.9424,-1.9424,-1.9482,0.0,0.0,0.0,0.0,0.0,0.0,0.0,0.0,0.0,0.0,0.0,0.0,0.0,0.0,0.0,0.0,0.0,0.0,0.0,0.0,0.0,0.0,-1.0552,-1.1026,-1.1695,-1.1814,-1.1902,-1.1917,-1.2277,-1.2365,-1.224,-1.224,-1.224,-1.224,-1.224,-1.2612,-1.3154,-1.2514,-1.2783,-1.3584,0.0,-1.2285,-1.234,0.0,0.0,0.0,0.0,0.0,0.0,0.0,0.0,0.0,0.0,0.0,-1.5215,0.0,0.0,-1.7658,-1.8363,-1.9308,-2.0118,-2.0159,-2.0401,-2.044,-1.9803,-1.9559,-1.9078,-1.7734,-1.7111,-1.6318,0.0,0.0,0.0,-1.759,-1.9267,0.0,-2.0811,-2.1898,0.0,0.0,0.0,-2.1258,-2.0945,-2.1755,0.0,0.0,-2.1556,-2.1776,-2.2633,-2.2667,-2.2797,-2.3073,-2.2396,-2.148,-2.0427,-1.9731,-1.9424,-1.9424,-1.9424,-1.9424,-1.9424,-1.9424,-1.9424,-1.9424,-1.9424,-1.9424,-1.9424,-1.9424,-1.9424,-1.9424,-1.9424,-1.9424,-1.9424,-1.9424,-2.009,-2.0866,0.0,0.0,0.0,0.0,0.0,0.0,0.0,0.0,0.0,0.0,0.0,0.0,0.0,0.0,0.0,0.0,0.0,0.0,0.0,0.0,0.0,-0.9805,-1.0033,-1.0464,-1.1188,-1.1318,-1.1308,-1.1204,0.0,0.0,-1.1255,-1.1287,-1.1301,-1.1301,-1.1518,-1.1881,-1.2289,-1.1822,0.0,0.0,0.0,0.0,0.0,0.0,0.0,0.0,0.0,0.0,0.0,0.0,0.0,-1.3938,-1.459,-1.5342,-1.6093,-1.6816,0.0,-1.8721,-1.9385,-2.0049,-2.0605,-2.0605,-2.0458,-2.0117,-1.9502,-1.8887,-1.8086,-1.6787,-1.6172,0.0,0.0,0.0,0.0,0.0,0.0,0.0,-2.1646,-2.2562,-2.2403,0.0,-2.1762,0.0,-2.2071,-2.2852,-2.3542,0.0,-2.3138,-2.2985,-2.3656,-2.3692,-2.3863,-2.4311,-2.3817,-2.3096,-2.2292,-2.1673,-2.1323,-2.1323,-2.1323,-2.1323,-2.1323,-2.0644,-2.0371,-2.0314,0.0,-1.9424,-1.9424,-1.9424,-1.9758,-2.0371,-2.0371,-2.0759,-2.1323,-2.1323,-2.1877,-2.2428,0.0,0.0,0.0,0.0,0.0,0.0,0.0,0.0,0.0,0.0,0.0,0.0,0.0,0.0,0.0,0.0,0.0,0.0,0.0,0.0,0.0,-0.9642,-0.9422,-0.9722,-1.0676,-1.0431,-1.0397,0.0,0.0,0.0,0.0,0.0,0.0,0.0,0.0,0.0,0.0,0.0,0.0,0.0,0.0,0.0,0.0,0.0,0.0,0.0,0.0,0.0,0.0,0.0,-1.3977,-1.3994,-1.4863,-1.5947,-1.697,-1.749,-1.8418,-1.9394,-1.9873,-2.0273,-2.0605,-2.0605,-2.0195,-1.9609,-1.8715,-1.7852,-1.6836,-1.5518,0.0,-1.4482,-1.4016,0.0,-1.5967,-1.7656,0.0,-2.0518,-2.2266,-2.2779,-2.2663,-2.1658,-2.291,-2.3451,-2.2428,-2.3698,-2.4746,-2.5127,-2.4066,-2.3526,-2.393,-2.3949,-2.4099,-2.4383,-2.4731,-2.4596,-2.3813,-2.3822,-2.3822,-2.3822,-2.3822,-2.3822,-2.3766,-2.2476,-2.1813,-2.1529,0.0,0.0,-1.9424,-1.9591,-2.0422,-2.1643,-2.1805,-2.2645,-2.3822,-2.3822,-2.3933,-2.41,0.0,0.0,0.0,0.0,0.0,0.0,0.0,0.0,0.0,0.0,-0.6878,-0.6599,0.0,0.0,0.0,0.0,0.0,0.0,0.0,0.0,0.0,0.0,-0.8621,-0.9125,0.0,0.0,0.0,0.0,0.0,0.0,0.0,0.0,0.0,0.0,0.0,0.0,0.0,0.0,0.0,0.0,0.0,0.0,0.0,0.0,0.0,0.0,0.0,0.0,0.0,0.0,-1.4795,-1.5801,-1.666,-1.7324,-1.7939,-1.873,-1.9111,-1.9453,-2.0273,-2.0546,-2.0605,-2.0605,-2.0018,-1.917,-1.8311,-1.7168,0.0,0.0,0.0,-1.3603,-1.3174,-1.4365,0.0,-1.7266,0.0,0.0,0.0,0.0,-2.2658,0.0,0.0,0.0,0.0,0.0,0.0,0.0,0.0,-2.5246,-2.5323,-2.5333,-2.5164,-2.4738,-2.5459,-2.5193,-2.3822,-2.3822,-2.3822,-2.3822,-2.3822,-2.3822,-2.3766,-2.3543,-2.2758,-2.1586,-2.1309,0.0,-1.9475,-2.0702,-2.1365,-2.1692,-2.2927,-2.3599,-2.3822,-2.3822,-2.4599,-2.5544,0.0,0.0,0.0,0.0,0.0,0.0,0.0,-0.7016,-0.7216,-0.7801,-0.7648,-0.7363,-0.7053,-0.6774,-0.6599,0.0,0.0,0.0,0.0,0.0,0.0,0.0,0.0,0.0,0.0,0.0,0.0,0.0,0.0,0.0,0.0,0.0,0.0,0.0,0.0,0.0,0.0,0.0,0.0,0.0,0.0,0.0,0.0,0.0,0.0,0.0,0.0,0.0,0.0,0.0,-1.4336,-1.5576,-1.6457,-1.7305,-1.8135,-1.8769,-1.9268,-1.9756,-2.0429,-2.0605,-2.0605,-2.0605,-1.9746,-1.8662,-1.7555,0.0,0.0,0.0,0.0,-1.3125,-1.2944,0.0,0.0,0.0,0.0,0.0,0.0,0.0,0.0,0.0,0.0,0.0,0.0,0.0,0.0,0.0,0.0,-2.5693,-2.5693,-2.5947,-2.5952,-2.566,-2.6479,-2.6582,-2.5865,-2.6064,-2.6164,-2.6164,-2.6164,-2.6164,-2.6109,-2.5325,-2.4591,-2.3925,-2.3087,0.0,-2.1764,-2.2428,-2.3199,-2.4036,-2.471,-2.5489,-2.6164,-2.6164,-2.6608,-2.7168,0.0,0.0,0.0,0.0,0.0,0.0,0.0,-0.7331,-0.7616,-0.8212,-0.8298,-0.8125,-0.7641,-0.7103,-0.6724,0.0,0.0,0.0,0.0,0.0,0.0,0.0,0.0,0.0,0.0,0.0,0.0,0.0,0.0,0.0,0.0,0.0,0.0,0.0,0.0,0.0,0.0,0.0,0.0,0.0,0.0,0.0,0.0,0.0,0.0,0.0,0.0,0.0,0.0,0.0,-1.3512,-1.4404,-1.5381,-1.6543,-1.7695,-1.8213,-1.8939,-1.9756,-2.0283,-2.0537,-2.0586,-2.0488,-1.9453,-1.813,-1.6853,-1.5576,0.0,0.0,-1.2905,-1.2905,-1.2905,0.0,0.0,0.0,0.0,0.0,0.0,0.0,0.0,0.0,0.0,0.0,0.0,0.0,0.0,0.0,0.0,0.0,-2.5693,-2.6152,-2.6387,-2.6387,-2.7268,-2.7718,-2.7718,-2.8086,-2.8291,-2.8291,-2.8291,-2.8291,-2.8237,-2.7114,-2.6381,-2.6036,-2.4829,0.0,0.0,-2.4156,-2.4986,-2.6155,-2.6436,-2.7276,-2.8291,-2.8291,-2.8232,-2.8154,0.0,0.0,0.0,0.0,0.0,0.0,0.0,-0.7091,-0.7616,-0.8212,-0.8298,-0.8286,-0.8225,-0.7678,-0.7141,0.0,0.0,0.0,0.0,0.0,0.0,0.0,0.0,0.0,0.0,0.0,0.0,0.0,0.0,0.0,0.0,0.0,0.0,0.0,0.0,0.0,0.0,0.0,0.0,0.0,0.0,0.0,0.0,0.0,0.0,0.0,0.0,0.0,0.0,0.0,0.0,-1.2652,-1.3899,-1.5205,-1.6437,-1.7288,0.0,0.0,-1.9756,-2.0264,-2.0507,-2.0078,-1.9014,-1.7725,-1.6457,0.0,0.0,-1.3066,-1.2905,-1.2905,-1.2905,-1.3262,0.0,0.0,0.0,0.0,0.0,0.0,0.0,0.0,0.0,0.0,0.0,0.0,0.0,0.0,0.0,0.0,-2.5693,-2.6152,-2.6387,-2.6387,-2.7268,-2.7718,-2.7718,-2.8086,-2.8291,-2.8291,-2.8291,-2.8291,-2.8291,-2.8174,-2.7384,-2.61,-2.5963,0.0,0.0,-2.5325,-2.5982,-2.6209,-2.7555,-2.8174,-2.8291,-2.8291,-2.8057,-2.7777,0.0,0.0,0.0,0.0,0.0,0.0,-0.7028,-0.7256,-0.7616,-0.8212,-0.8298,-0.8298,-0.8298,-0.7753,-0.7181,-0.6649,0.0,0.0,0.0,0.0,0.0,0.0,0.0,0.0,0.0,0.0,0.0,0.0,0.0,0.0,0.0,0.0,0.0,0.0,0.0,0.0,0.0,0.0,0.0,0.0,0.0,0.0,0.0,0.0,0.0,0.0,0.0,0.0,0.0,0.0,0.0,0.0,-1.2086,-1.3096,0.0,0.0,-1.7207,-1.8125,-1.9238,-1.9853,-2.0127,-1.9961,-1.8955,-1.7666,-1.6388,0.0,-1.387,-1.3081,-1.2905,-1.2905,-1.2905,-1.3042,-1.333,-1.3916,-1.4453,-1.5508,0.0,0.0,0.0,0.0,0.0,0.0,0.0,0.0,0.0,0.0,0.0,0.0,-2.5693,-2.5908,-2.5996,-2.5996,-2.6582,-2.6904,-2.6904,-2.7578,-2.792,-2.792,-2.8174,-2.8291,-2.8291,-2.8291,-2.796,-2.7447,-2.7403,0.0,0.0,-2.7168,-2.7447,-2.7501,-2.8067,-2.8135,-2.792,-2.792,-2.7646,-2.7275,0.0,0.0,0.0,0.0,0.0,-0.6724,-0.7116,-0.7294,-0.7553,-0.7976,-0.8187,-0.8298,-0.8298,-0.7753,-0.7244,-0.6865,-0.6699,0.0,0.0,0.0,0.0,0.0,0.0,0.0,0.0,0.0,0.0,0.0,0.0,0.0,0.0,0.0,0.0,0.0,0.0,0.0,0.0,0.0,0.0,0.0,0.0,0.0,0.0,0.0,0.0,0.0,0.0,0.0,0.0,0.0,0.0,0.0,0.0,0.0,0.0,0.0,-1.6144,-1.7279,-1.8408,-1.9121,-1.9512,-1.9385,-1.8486,-1.7285,0.0,0.0,-1.3724,-1.3027,-1.2905,-1.2905,-1.2905,-1.2905,-1.3003,-1.3271,-1.3643,-1.4551,-1.6434,0.0,0.0,0.0,0.0,0.0,0.0,0.0,0.0,0.0,0.0,0.0,0.0,-2.5693,-2.5693,-2.5693,-2.6162,-2.6387,-2.6387,-2.7109,-2.7471,-2.748,-2.7773,-2.792,-2.792,-2.792,-2.792,-2.792,0.0,0.0,0.0,-2.792,-2.792,-2.792,-2.792,-2.7734,-2.7471,-2.7471,-2.7197,-2.6826,0.0,0.0,0.0,0.0,0.0,0.0,-0.6611,-0.7066,-0.7406,-0.7406,-0.7926,-0.8298,-0.8298,-0.7753,-0.7393,-0.7393,-0.6903,0.0,0.0,0.0,0.0,0.0,0.0,0.0,0.0,0.0,0.0,-0.988,-0.9611,0.0,0.0,0.0,0.0,0.0,0.0,0.0,0.0,0.0,0.0,0.0,0.0,0.0,0.0,0.0,0.0,0.0,0.0,0.0,0.0,0.0,0.0,0.0,0.0,0.0,0.0,0.0,-1.4764,-1.63,-1.7191,-1.8018,-1.852,-1.8135,-1.735,-1.6375,0.0,-1.4131,-1.3389,-1.2993,-1.2905,-1.2905,-1.2905,-1.2905,-1.2905,-1.2915,-1.3945,-1.5234,-1.6521,0.0,0.0,0.0,0.0,0.0,0.0,0.0,0.0,0.0,0.0,0.0,0.0,-2.5693,-2.5693,-2.5693,-2.6162,-2.6387,-2.6387,-2.6807,-2.7021,-2.7021,-2.7021,-2.7021,-2.7021,-2.7021,-2.7021,0.0,0.0,0.0,0.0,-2.7021,-2.7021,-2.7021,-2.7021,-2.7021,-2.7021,-2.7021,-2.6758,-2.6396,0.0,0.0,0.0,0.0,0.0,0.0,0.0,-0.6749,-0.6853,-0.6853,-0.7025,-0.7275,-0.7641,-0.7191,-0.7003,-0.7369,-0.6903,0.0,0.0,0.0,0.0,0.0,0.0,0.0,0.0,0.0,-0.8841,-0.9208,-0.8899,0.0,0.0,0.0,0.0,0.0,0.0,0.0,0.0,0.0,0.0,0.0,0.0,0.0,0.0,0.0,0.0,0.0,0.0,0.0,0.0,0.0,0.0,0.0,0.0,0.0,0.0,-1.1611,0.0,0.0,-1.5723,-1.6445,-1.6846,-1.6741,-1.625,-1.5537,-1.4543,-1.3906,-1.3389,-1.2993,-1.2905,-1.2905,-1.2905,-1.2905,-1.3199,-1.4069,-1.4549,0.0,0.0,0.0,0.0,0.0,0.0,0.0,0.0,0.0,0.0,0.0,0.0,0.0,0.0,-2.5693,-2.5693,-2.5693,-2.582,-2.5947,-2.5947,-2.6377,-2.6592,-2.6592,-2.6875,-2.7012,-2.7012,-2.7012,0.0,0.0,0.0,0.0,0.0,-2.7012,-2.7012,-2.7012,-2.7012,-2.6836,-2.6592,-2.6592,-2.6318,-2.5947,0.0,0.0,0.0,0.0,0.0,0.0,0.0,-0.6599,-0.6599,-0.6599,-0.6599,-0.6803,-0.7344,-0.6915,-0.6815,-0.7356,-0.6903,0.0,0.0,0.0,0.0,0.0,0.0,0.0,0.0,-0.7785,-0.8404,-0.913,-0.8946,-0.8987,-0.9214,-0.8964,0.0,0.0,0.0,0.0,0.0,0.0,0.0,0.0,0.0,0.0,0.0,0.0,0.0,0.0,0.0,0.0,0.0,0.0,0.0,0.0,0.0,0.0,0.0,0.0,-1.168,0.0,0.0,-1.5127,-1.5606,-1.5606,-1.5254,-1.4718,-1.4026,-1.3422,-1.2998,-1.2925,-1.2754,-1.2686,-1.2876,-1.2905,-1.3169,-1.3962,-1.4336,0.0,0.0,0.0,0.0,0.0,0.0,0.0,0.0,0.0,0.0,0.0,0.0,0.0,0.0,-2.5693,-2.5693,-2.5693,-2.5693,-2.5693,-2.5693,-2.6006,-2.6143,-2.6143,-2.6406,-2.6533,-2.6533,-2.6533,0.0,0.0,0.0,0.0,0.0,-2.6533,-2.6533,-2.6533,-2.6533,-2.6377,-2.6143,-2.6143,-2.5967,-2.5693,0.0,0.0,0.0,0.0,0.0,0.0,0.0,-0.6599,-0.6599,-0.6599,-0.6599,-0.679,-0.7294,-0.6903,-0.6803,-0.7294,0.0,0.0,0.0,0.0,0.0,0.0,0.0,0.0,-0.7223,-0.7448,-0.8186,-0.9462,-0.9525,-0.9597,-0.9642,-0.9623,-0.9182,-0.8444,0.0,0.0,0.0,0.0,0.0,0.0,0.0,0.0,0.0,0.0,0.0,0.0,0.0,0.0,0.0,0.0,0.0,0.0,0.0,0.0,0.0,0.0,0.0,0.0,0.0,0.0,0.0,0.0,-1.4248,-1.3821,-1.3457,-1.273,0.0,-1.2744,-1.2486,-1.235,-1.2842,-1.2925,-1.2954,-1.3111,0.0,0.0,0.0,0.0,0.0,0.0,0.0,0.0,0.0,0.0,0.0,0.0,0.0,0.0,0.0,-2.5635,-2.5654,-2.5693,-2.5693,-2.5693,-2.5693,-2.5693,-2.5693,-2.5693,-2.5693,-2.5693,-2.5693,-2.5693,0.0,0.0,0.0,0.0,0.0,-2.5693,-2.5693,-2.5693,-2.5693,-2.5693,-2.5693,-2.5693,-2.5693,-2.5693,0.0,0.0,0.0,0.0,0.0,0.0,0.0,0.0,0.0,0.0,-0.6599,-0.6649,-0.6765,-0.6674,-0.6649,0.0,0.0,0.0,0.0,0.0,0.0,0.0,0.0,0.0,-0.6603,-0.701,-0.7839,-0.912,-0.9131,-0.9477,-1.0121,-0.9773,-0.9338,-0.8848,-0.8541,-0.8135,0.0,0.0,0.0,0.0,0.0,0.0,0.0,0.0,0.0,0.0,0.0,0.0,0.0,0.0,0.0,0.0,0.0,0.0,0.0,0.0,-1.0654,-1.0996,-1.1406,0.0,-1.2347,-1.2347,-1.2269,-1.2162,0.0,-1.1888,-1.1868,-1.2272,0.0,0.0,-1.3223,0.0,0.0,0.0,0.0,0.0,0.0,0.0,0.0,0.0,0.0,0.0,0.0,0.0,0.0,0.0,0.0,0.0,0.0,-2.5225,-2.5381,-2.5674,-2.5693,-2.5693,-2.5693,-2.5693,-2.5693,-2.5693,-2.5693,-2.5693,-2.5693,-2.5693,0.0,0.0,0.0,0.0,-2.5693,-2.5693,-2.5693,-2.5693,-2.5693,-2.5693,-2.5693,-2.5693,-2.5693,-2.5693,0.0,0.0,0.0,0.0,0.0,0.0,0.0,0.0,0.0,0.0,0.0,0.0,0.0,0.0,0.0,0.0,0.0,0.0,0.0,0.0,0.0,0.0,0.0,-0.6118,-0.6297,-0.6615,-0.7422,-0.8721,-0.8906,-0.9443,-1.0293,-1.0039,-0.96,-0.8975,-0.8359,-0.7934,0.0,0.0,0.0,0.0,0.0,0.0,0.0,0.0,0.0,0.0,0.0,-0.8359,0.0,-0.8945,-0.9443,-0.9923,0.0,0.0,0.0,0.0,-1.0127,-1.0342,-1.0566,-1.123,-1.1888,-1.1888,-1.2044,-1.2191,-1.2191,0.0,0.0,0.0,0.0,0.0,0.0,0.0,0.0,0.0,0.0,0.0,0.0,0.0,0.0,0.0,0.0,0.0,0.0,0.0,0.0,0.0,0.0,0.0,0.0,-2.4775,-2.4883,-2.5079,-2.5322,-2.5527,-2.5693,-2.5693,-2.5693,-2.5693,-2.5693,-2.5693,-2.5693,-2.5693,-2.5693,0.0,0.0,0.0,-2.5693,-2.5693,-2.5693,-2.5693,-2.5693,-2.5693,-2.5693,-2.5693,-2.5693,-2.5693,0.0,0.0,0.0,0.0,0.0,0.0,0.0,0.0,0.0,0.0,0.0,0.0,0.0,0.0,0.0,0.0,0.0,0.0,0.0,0.0,0.0,0.0,0.0,-0.5733,-0.622,-0.6348,-0.7061,-0.8395,-0.8799,-0.9414,-1.0186,-1.0273,-0.9843,-0.8975,-0.8168,-0.7763,0.0,0.0,0.0,0.0,0.0,0.0,0.0,0.0,0.0,0.0,0.0,0.0,0.0,-0.8711,-0.9153,-0.9573,-0.9464,0.0,0.0,0.0,0.0,0.0,-1.0166,-1.1133,-1.2008,-1.2008,-1.2353,-1.27,-1.27,0.0,0.0,0.0,0.0,0.0,0.0,0.0,0.0,0.0,0.0,0.0,0.0,0.0,0.0,0.0,0.0,0.0,0.0,0.0,0.0,0.0,0.0,0.0,0.0,-2.4316,-2.4346,-2.4414,-2.4775,-2.5156,-2.5479,-2.5615,-2.5693,-2.5693,-2.5693,-2.5693,-2.5693,-2.5693,-2.5693,-2.5693,0.0,0.0,-2.5693,-2.5693,-2.5693,-2.5693,-2.5693,-2.5693,-2.5693,-2.5693,-2.5693,-2.5693,0.0,0.0,0.0,0.0,0.0,0.0,0.0,0.0,0.0,0.0,0.0,0.0,0.0,0.0,0.0,0.0,0.0,0.0,0.0,0.0,0.0,-0.5614,-0.554,-0.5766,-0.6358,-0.6389,-0.7061,-0.8395,-0.8799,-0.924,-0.9718,-1.0107,-0.9843,-0.8984,-0.8512,-0.8076,-0.7695,0.0,0.0,0.0,0.0,0.0,0.0,0.0,0.0,0.0,0.0,0.0,0.0,-0.8012,-0.8649,-0.9484,-0.8799,0.0,0.0,0.0,0.0,0.0,-1.0087,-1.0684,-1.1092,-1.1092,-1.1445,-1.1802,-1.1802,0.0,0.0,0.0,0.0,0.0,0.0,0.0,0.0,0.0,0.0,0.0,0.0,0.0,0.0,0.0,0.0,0.0,0.0,0.0,0.0,0.0,0.0,0.0,0.0,-2.3887,-2.4043,-2.4404,-2.4482,-2.4551,-2.4619,-2.5313,-2.5693,-2.5693,-2.5693,-2.5693,-2.5693,-2.5693,-2.5693,-2.5693,0.0,-2.5693,-2.5693,-2.5693,-2.5693,-2.5693,-2.5693,-2.5693,-2.5693,-2.5693,-2.5693,-2.5693,0.0,0.0,0.0,0.0,0.0,0.0,0.0,0.0,0.0,0.0,0.0,0.0,0.0,0.0,0.0,0.0,0.0,0.0,0.0,0.0,0.0,-0.5936,-0.5756,-0.5791,-0.6076,-0.6745,-0.7529,-0.8395,-0.9023,-0.9542,-0.998,-0.9717,-0.9385,-0.8975,-0.832,-0.7905,-0.7695,-0.7695,0.0,0.0,0.0,0.0,0.0,0.0,0.0,0.0,0.0,0.0,0.0,0.0,-0.8613,-0.9172,-0.859,0.0,0.0,0.0,0.0,0.0,-0.9697,-1.041,-1.0967,-1.1222,-1.1966,-1.2641,-1.2641,0.0,0.0,0.0,0.0,0.0,0.0,0.0,0.0,0.0,0.0,0.0,0.0,0.0,0.0,0.0,0.0,0.0,0.0,0.0,0.0,0.0,0.0,0.0,0.0,0.0,-2.3525,-2.3676,-2.3955,-2.4082,-2.4082,-2.4707,-2.5146,-2.5381,-2.5625,-2.5693,-2.5693,-2.5693,-2.5693,-2.5693,0.0,-2.5693,-2.5693,-2.5693,-2.5693,-2.5693,-2.5693,-2.5693,-2.5693,-2.5693,-2.5693,-2.5693,0.0,0.0,0.0,0.0,0.0,0.0,0.0,0.0,0.0,0.0,0.0,0.0,0.0,0.0,0.0,0.0,0.0,0.0,0.0,0.0,-0.5964,-0.6105,-0.6007,-0.6082,-0.6383,-0.7258,-0.7973,-0.8541,-0.925,-0.9835,-1.0283,-0.9512,-0.9084,-0.8975,-0.8197,-0.7807,-0.7695,-0.7695,-0.7695,0.0,0.0,0.0,0.0,0.0,0.0,0.0,0.0,0.0,0.0,0.0,0.0,0.0,0.0,0.0,0.0,-0.8639,-0.8473,-0.86,-0.9513,-1.0244,-1.0918,-1.1584,0.0,-1.3408,-1.3613,-1.387,0.0,0.0,0.0,0.0,0.0,0.0,0.0,0.0,0.0,0.0,0.0,0.0,0.0,0.0,0.0,0.0,0.0,0.0,0.0,0.0,0.0,0.0,0.0,0.0,-2.3091,-2.3091,-2.3467,-2.3633,-2.3633,-2.4053,-2.4482,-2.4922,-2.5264,-2.5382,-2.5382,-2.5382,-2.544,-2.5586,-2.5586,-2.5596,-2.5693,-2.5693,-2.5693,-2.5693,-2.5693,-2.5693,-2.5693,-2.5693,-2.5693,-2.5693,0.0,0.0,0.0,0.0,0.0,0.0,0.0,0.0,0.0,0.0,0.0,0.0,0.0,0.0,0.0,0.0,0.0,0.0,0.0,0.0,-0.5793,-0.5563,-0.6072,-0.6916,-0.8095,-0.7849,-0.8119,-0.8955,-0.9396,-0.9835,-1.0293,-0.9786,-0.9367,-0.8984,-0.8551,-0.8105,-0.7695,-0.7695,-0.7695,-0.7695,0.0,0.0,0.0,0.0,0.0,0.0,0.0,0.0,0.0,0.0,0.0,0.0,0.0,0.0,-0.9004,-0.8975,-0.8682,-0.8669,-0.9911,-1.0303,-1.0645,-1.1843,-1.2559,0.0,-1.389,-1.4085,0.0,-1.5128,0.0,0.0,0.0,0.0,0.0,0.0,0.0,0.0,0.0,0.0,0.0,0.0,0.0,0.0,0.0,0.0,0.0,0.0,0.0,0.0,0.0,0.0,0.0,-2.3091,-2.312,-2.314,-2.314,-2.3613,-2.4043,-2.4463,-2.4492,-2.4512,-2.4512,-2.4512,-2.4736,-2.5117,-2.5117,-2.5352,-2.5693,-2.5693,-2.5693,-2.5693,-2.5693,-2.5693,-2.5693,-2.5693,-2.5693,-2.5693,0.0,0.0,0.0,0.0,0.0,0.0,0.0,0.0,0.0,0.0,0.0,0.0,0.0,0.0,0.0,0.0,0.0,0.0,0.0,-0.6007,-0.6008,-0.6231,-0.6103,-0.6597,-0.7829,-0.8289,-0.8792,-0.9377,-0.9533,-0.9698,-0.9845,-0.917,-0.877,-0.861,-0.8164,-0.7866,-0.7695,-0.7695,-0.7695,-0.7695,-0.7695,0.0,0.0,0.0,0.0,0.0,0.0,0.0,0.0,0.0,-0.7803,-0.8346,-0.8057,-0.8431,-0.8955,-0.8691,-0.8522,-0.861,-0.9609,-1.0264,-1.0859,-1.1621,-1.2744,0.0,0.0,-1.4951,-1.5576,-1.6455,-1.6846,0.0,0.0,0.0,0.0,0.0,0.0,0.0,0.0,0.0,0.0,0.0,0.0,0.0,0.0,0.0,0.0,0.0,0.0,0.0,0.0,0.0,0.0,-2.3091,-2.3091,-2.3091,-2.3091,-2.3257,-2.3422,-2.3578,-2.416,-2.4414,-2.4414,-2.4414,-2.4502,-2.4668,-2.4668,-2.4756,-2.4865,-2.4865,-2.4865,-2.4865,-2.4865,-2.4865,-2.4951,-2.5215,-2.5322,-2.5361,0.0,0.0,0.0,0.0,0.0,0.0,0.0,0.0,0.0,0.0,0.0,0.0,0.0,0.0,0.0,0.0,0.0,0.0,-0.6336,-0.6115,-0.6158,-0.6531,-0.615,-0.6376,-0.7331,-0.8174,-0.8792,-0.9221,-0.9348,-0.9416,-0.9406,-0.8711,-0.8463,-0.8561,-0.7963,-0.7773,-0.7905,-0.7754,-0.7695,-0.7695,-0.7695,-0.7695,0.0,0.0,0.0,0.0,0.0,0.0,0.0,0.0,-0.749,-0.7984,-0.7939,-0.834,-0.8779,-0.8639,-0.8688,-0.8936,-0.962,-1.0459,-1.125,0.0,0.0,0.0,-1.5029,-1.5782,-1.6562,-1.7568,0.0,0.0,0.0,0.0,0.0,0.0,0.0,0.0,0.0,0.0,0.0,0.0,0.0,0.0,0.0,0.0,0.0,0.0,0.0,0.0,0.0,0.0,0.0,0.0,-2.3091,-2.3091,-2.3091,-2.3091,-2.3091,-2.3101,-2.3686,-2.3968,-2.3968,-2.3968,-2.4092,-2.4219,-2.4219,-2.4287,-2.4414,-2.4414,-2.4414,-2.4414,-2.4414,-2.4414,-2.4453,-2.4756,-2.4863,-2.4902,0.0,0.0,0.0,0.0,0.0,0.0,0.0,0.0,0.0,0.0,0.0,0.0,0.0,0.0,0.0,0.0,0.0,0.0,-0.6599,-0.6354,-0.6198,-0.6198,-0.6193,-0.6378,-0.6779,-0.7375,-0.7915,-0.8395,-0.8789,-0.8994,-0.8984,-0.8581,-0.861,-0.8955,-0.809,-0.7969,-0.8356,-0.7895,-0.7695,-0.7695,-0.7695,-0.7695,0.0,0.0,0.0,0.0,0.0,0.0,0.0,0.0,-0.71,-0.7256,-0.8121,-0.8395,-0.8483,-0.8877,-0.9279,-0.9718,-1.0166,-1.0929,0.0,0.0,0.0,0.0,-1.5801,-1.6416,-1.7077,-1.8354,0.0,0.0,0.0,0.0,0.0,0.0,0.0,0.0,0.0,0.0,0.0,0.0,0.0,0.0,0.0,0.0,0.0,0.0,0.0,0.0,0.0,0.0,0.0,0.0,-2.3091,-2.3091,-2.3091,-2.3091,-2.3091,-2.3091,-2.3091,-2.3091,-2.3091,-2.3091,-2.3335,-2.3779,-2.3779,-2.4014,-2.4404,-2.4404,-2.4404,-2.4404,-2.4404,-2.4404,-2.4404,-2.4414,-2.4414,-2.4414,0.0,0.0,0.0,0.0,0.0,0.0,0.0,0.0,0.0,0.0,0.0,0.0,0.0,0.0,0.0,0.0,0.0,0.0,-0.6599,-0.6354,-0.6198,-0.6198,-0.5885,-0.5763,-0.5889,-0.6392,-0.723,-0.8395,-0.8193,-0.809,-0.808,-0.7676,-0.7705,-0.808,-0.7812,-0.7925,-0.83,-0.7876,-0.787,-0.8091,-0.7812,-0.7695,0.0,0.0,0.0,0.0,0.0,0.0,0.0,0.0,0.0,0.0,-0.7729,-0.8519,-0.9153,-0.8701,-0.9305,-1.0117,-1.0263,0.0,0.0,0.0,0.0,0.0,0.0,-1.6875,0.0,0.0,0.0,0.0,0.0,0.0,0.0,0.0,0.0,0.0,0.0,0.0,0.0,0.0,0.0,0.0,0.0,0.0,0.0,0.0,0.0,0.0,0.0,0.0,0.0,0.0,-2.3091,-2.3091,-2.3091,-2.3091,-2.3091,-2.3091,-2.3091,-2.3091,-2.3091,-2.3091,-2.3169,-2.3286,-2.3286,-2.3364,-2.3471,-2.3471,-2.3471,-2.3471,-2.3471,-2.3471,-2.351,-2.3857,-2.3975,-2.4014,0.0,0.0,0.0,0.0,0.0,0.0,0.0,0.0,0.0,0.0,0.0,0.0,0.0,0.0,0.0,0.0,0.0,0.0,0.0,-0.6444,-0.6362,-0.6362,-0.5988,-0.5812,-0.5891,-0.6169,-0.6722,-0.7533,-0.7406,-0.7387,-0.7457,-0.7203,-0.7422,-0.7978,-0.795,-0.7976,-0.8062,-0.7976,-0.7889,-0.7817,-0.7728,-0.7695,-0.7598,0.0,0.0,0.0,0.0,0.0,0.0,0.0,0.0,0.0,-0.7759,-0.8361,-0.8821,-0.8682,-0.9432,-1.0381,-1.0714,0.0,0.0,0.0,0.0,0.0,0.0,0.0,0.0,0.0,0.0,0.0,0.0,0.0,0.0,0.0,0.0,0.0,0.0,0.0,0.0,0.0,0.0,0.0,0.0,0.0,0.0,0.0,0.0,0.0,0.0,0.0,0.0,0.0,-2.3091,-2.3091,-2.3091,-2.3091,-2.3091,-2.3091,-2.3091,-2.3091,-2.3091,-2.3091,-2.3091,-2.3091,-2.3091,-2.3091,-2.3091,-2.3091,-2.3091,-2.3091,-2.3091,-2.3091,-2.312,-2.3437,-2.3525,-2.3574,0.0,0.0,0.0,0.0,0.0,0.0,0.0,0.0,0.0,0.0,0.0,0.0,0.0,0.0,0.0,0.0,0.0,0.0,0.0,0.0,-0.6599,-0.6599,-0.6345,-0.6285,-0.6469,-0.647,-0.6378,-0.6202,-0.6565,-0.6849,-0.7041,-0.7041,-0.7528,-0.8395,-0.8319,-0.8103,-0.7786,-0.81,-0.7814,-0.718,-0.7465,-0.7593,-0.7534,-0.667,0.0,0.0,0.0,0.0,0.0,0.0,0.0,0.0,-0.806,-0.808,-0.7948,-0.8665,-0.958,-1.0518,0.0,0.0,0.0,0.0,0.0,0.0,0.0,0.0,0.0,0.0,0.0,0.0,0.0,0.0,0.0,0.0,0.0,0.0,0.0,0.0,0.0,0.0,0.0,0.0,0.0,0.0,0.0,0.0,0.0,0.0,0.0,0.0,0.0,-2.3091,-2.3091,-2.3091,-2.3091,-2.3091,-2.3091,-2.3091,-2.3091,-2.3091,-2.3091,-2.3091,-2.3091,-2.3091,-2.3091,-2.3091,-2.3091,-2.3091,-2.3091,-2.3091,-2.3091,-2.3091,-2.3091,-2.3091,-2.3091,-2.3091,0.0,0.0,0.0,0.0,0.0,0.0,0.0,0.0,0.0,0.0,0.0,0.0,0.0,0.0,0.0,0.0,0.0,0.0,0.0,0.0,-0.6599,-0.6599,-0.6345,-0.6221,-0.6264,-0.6266,-0.6248,-0.6193,-0.6285,-0.6408,-0.6553,-0.6553,-0.7193,-0.8321,-0.8304,-0.8317,-0.8299,-0.7921,-0.769,-0.7517,-0.6915,-0.6813,-0.6925,-0.6205,-0.5929,0.0,0.0,0.0,0.0,0.0,0.0,0.0,-0.8129,-0.8491,-0.8616,-0.8129,-0.9299,-1.0742,0.0,0.0,0.0,0.0,0.0,0.0,0.0,0.0,0.0,0.0,0.0,0.0,0.0,0.0,0.0,0.0,0.0,0.0,0.0,0.0,0.0,0.0,0.0,0.0,0.0,0.0,0.0,0.0,0.0,0.0,0.0,0.0,0.0,-2.3091,-2.3091,-2.3091,-2.3091,-2.3091,-2.3091,0.0,-2.3091,-2.3091,-2.3091,-2.3091,-2.3091,-2.3091,-2.3091,-2.3091,-2.3091,-2.3091,-2.3091,-2.3091,-2.3091,-2.3091,-2.3091,-2.3091,-2.3091,-2.3091,0.0,0.0,0.0,0.0,0.0,0.0,0.0,0.0,0.0,0.0,0.0,0.0,0.0,0.0,0.0,0.0,0.0,0.0,0.0,-0.6599,-0.6599,-0.6599,-0.6462,-0.6388,-0.6388,-0.6388,-0.6336,-0.6198,-0.6204,-0.6329,-0.6607,-0.731,-0.8018,-0.8693,-0.8786,-0.8654,-0.8328,-0.7855,-0.745,-0.7099,-0.6731,-0.6742,-0.6924,-0.6248,-0.6052,-0.6097,-0.5804,0.0,0.0,0.0,0.0,0.0,0.0,0.0,-0.8693,-0.8813,-0.9699,-1.0732,0.0,0.0,0.0,0.0,0.0,0.0,0.0,0.0,0.0,0.0,0.0,0.0,0.0,0.0,0.0,0.0,0.0,0.0,0.0,0.0,0.0,0.0,0.0,0.0,0.0,0.0,0.0,0.0,0.0,0.0,0.0,-2.3091,-2.3091,-2.3091,-2.3091,-2.3091,-2.3091,-2.3091,-2.3091,-2.3091,-2.3091,-2.3091,-2.3091,-2.3091,-2.3091,-2.3091,-2.3091,-2.3091,-2.3091,-2.3091,-2.3091,-2.3091,-2.3091,-2.3091,-2.3091,-2.3091,-2.3091,-2.3091,0.0,0.0,0.0,0.0,0.0,0.0,0.0,0.0,0.0,0.0,0.0,0.0,0.0,0.0,0.0,0.0,0.0,0.0,0.0,-0.6599,-0.6599,-0.6599,-0.6599,-0.6599,-0.6599,-0.6599,-0.6491,-0.6271,-0.6367,-0.6694,-0.7268,-0.8355,-0.9018,-0.9301,-0.9466,-0.9042,-0.82,-0.7876,-0.7261,-0.653,-0.6607,-0.6801,-0.6958,-0.6372,-0.6252,-0.636,-0.6065,-0.6234,-0.6739,-0.7666,0.0,0.0,0.0,0.0,-0.8464,-0.9555,-1.0026,-1.0439,0.0,0.0,0.0,0.0,0.0,0.0,0.0,0.0,0.0,0.0,0.0,0.0,0.0,0.0,0.0,0.0,0.0,0.0,0.0,0.0,0.0,0.0,0.0,0.0,0.0,0.0,0.0,0.0,0.0,0.0,-2.2877,-2.2945,-2.2984,-2.2984,-2.3052,-2.3091,-2.3091,-2.3091,-2.3091,-2.3091,-2.3091,-2.3091,-2.3091,-2.3091,-2.3091,-2.3091,-2.3091,-2.3091,-2.3091,-2.3091,-2.3091,-2.3091,-2.3091,-2.3091,-2.3091,-2.3091,-2.3091,-2.3091,0.0,0.0,0.0,0.0,0.0,0.0,0.0,0.0,0.0,0.0,0.0,-0.6866,-0.6866,-0.6698,0.0,0.0,0.0,0.0,-0.6599,0.0,0.0,-0.6599,-0.6599,-0.6599,-0.6599,-0.6599,-0.6582,-0.6543,-0.7019,-0.7856,0.0,0.0,-0.8924,-1.0053,-1.0083,-0.9418,-0.8267,-0.7992,-0.7374,-0.6549,-0.6173,-0.6147,-0.631,-0.6042,-0.5954,-0.5999,-0.6117,-0.6535,-0.715,-0.7971,-0.833,0.0,0.0,0.0,0.0,0.0,-0.9204,-0.9586,0.0,0.0,0.0,0.0,0.0,0.0,0.0,0.0,0.0,0.0,0.0,0.0,0.0,0.0,0.0,0.0,0.0,0.0,0.0,0.0,0.0,0.0,0.0,0.0,0.0,0.0,0.0,0.0,0.0,0.0,-2.2051,-2.2402,-2.2598,-2.2598,-2.2906,-2.3091,-2.3091,-2.3091,-2.3091,-2.3091,-2.3091,-2.3091,-2.3091,-2.3091,-2.3091,-2.3091,-2.3091,-2.3091,-2.3091,-2.3091,-2.3091,-2.3091,-2.3091,-2.3091,-2.3091,-2.3091,-2.3091,-2.3091,0.0,0.0,0.0,0.0,0.0,0.0,0.0,0.0,0.0,0.0,0.0,-0.7029,-0.6911,-0.6824,0.0,0.0,0.0,0.0,-0.6599,-0.6599,0.0,-0.6599,-0.6599,-0.6599,-0.6599,-0.6599,-0.6599,-0.6599,-0.6828,0.0,0.0,-0.9627,-1.0322,0.0,0.0,-1.0495,-0.9554,0.0,-0.7402,-0.6988,-0.6331,-0.6773,-0.7694,-0.6516,-0.6739,-0.758,-0.6727,-0.6595,0.0,0.0,0.0,0.0,0.0,0.0,0.0,0.0,0.0,0.0,0.0,0.0,0.0,0.0,0.0,0.0,0.0,0.0,0.0,0.0,0.0,0.0,0.0,0.0,0.0,0.0,0.0,0.0,0.0,0.0,0.0,0.0,0.0,0.0,0.0,0.0,0.0,0.0,0.0,-2.1885,-2.1885,-2.206,-2.2158,-2.2158,-2.2344,-2.2441,-2.2441,-2.2676,-2.2867,-2.3091,-2.3091,-2.3091,-2.3091,-2.3091,-2.3091,-2.3091,-2.3091,-2.3091,-2.3091,-2.3091,-2.3091,-2.3091,-2.3091,-2.3091,-2.3091,-2.3091,-2.3091,-2.3091,0.0,0.0,0.0,0.0,0.0,0.0,0.0,0.0,0.0,0.0,0.0,0.0,-0.6996,0.0,0.0,0.0,0.0,0.0,-0.6599,0.0,0.0,0.0,0.0,-0.6599,-0.6599,-0.6599,-0.6599,-0.6599,0.0,0.0,-1.0106,-1.0506,-1.1551,0.0,-1.2319,-1.1435,0.0,0.0,0.0,0.0,-0.7176,-0.7801,-0.8989,-0.7956,-0.8466,-0.9529,-0.7987,0.0,0.0,0.0,0.0,0.0,0.0,0.0,0.0,0.0,0.0,0.0,0.0,0.0,0.0,0.0,0.0,0.0,0.0,0.0,0.0,0.0,0.0,0.0,0.0,0.0,0.0,0.0,0.0,0.0,0.0,0.0,0.0,0.0,0.0,0.0,0.0,0.0,0.0,0.0,0.0,-2.1817,-2.1593,-2.166,-2.1719,-2.1719,-2.1826,-2.1885,-2.1885,-2.2197,-2.2568,-2.2935,-2.2935,-2.2994,-2.3091,-2.3091,-2.3091,-2.3091,-2.3091,-2.3091,-2.3091,-2.3091,-2.3091,-2.3091,-2.3091,-2.3091,-2.3091,-2.3091,-2.3091,-2.3091,0.0,0.0,0.0,0.0,0.0,0.0,0.0,0.0,0.0,0.0,0.0,0.0,-0.7217,-0.7012,-0.6824,-0.6616,0.0,0.0,0.0,0.0,0.0,0.0,0.0,0.0,-0.6599,-0.6599,-0.6599,-0.6599,0.0,0.0,-1.0656,-1.0695,-1.1889,-1.3991,-1.3391,-1.1936,-0.9905,0.0,0.0,0.0,0.0,-0.9013,-0.9264,-1.0747,-1.1374,-1.1314,0.0,0.0,0.0,0.0,0.0,0.0,0.0,0.0,0.0,0.0,0.0,0.0,0.0,0.0,0.0,0.0,0.0,0.0,0.0,0.0,0.0,0.0,0.0,0.0,0.0,0.0,0.0,0.0,0.0,0.0,0.0,0.0,0.0,0.0,0.0,0.0,0.0,0.0,0.0,0.0,0.0,-2.1589,-2.0713,-2.1035,-2.1229,-2.1229,-2.167,-2.1885,-2.1885,-2.1904,-2.2129,-2.2549,-2.2549,-2.2711,-2.3091,-2.3091,-2.3091,-2.3091,-2.3091,-2.3091,-2.3091,-2.3091,-2.3091,-2.3091,-2.3091,-2.3091,-2.3091,-2.3091,-2.3091,-2.3091,0.0,0.0,0.0,0.0,0.0,0.0,0.0,0.0,0.0,0.0,0.0,0.0,0.0,-0.7399,-0.7203,-0.6824,-0.6676,0.0,0.0,0.0,0.0,0.0,0.0,0.0,0.0,-0.6599,-0.6599,0.0,0.0,-0.7475,-0.9178,-0.9867,-1.0621,-1.1439,-1.23,-1.225,-1.1412,-0.978,0.0,0.0,0.0,0.0,0.0,-1.1625,-1.2272,-1.3002,0.0,0.0,0.0,0.0,0.0,0.0,0.0,-0.9002,-0.8225,-0.7839,0.0,0.0,0.0,0.0,0.0,0.0,0.0,0.0,0.0,0.0,0.0,0.0,0.0,0.0,0.0,0.0,0.0,0.0,0.0,0.0,0.0,0.0,0.0,0.0,0.0,0.0,0.0,0.0,0.0,0.0,0.0,0.0,-2.2451,-2.1977,-2.1696,-2.1696,-2.1292,-2.1172,-2.1465,-2.1465,-2.168,-2.2109,-2.2109,-2.2334,-2.2691,-2.2691,-2.2838,-2.3091,-2.3091,-2.3091,-2.3091,-2.3091,-2.3091,-2.3091,-2.3091,-2.3091,-2.3091,-2.3091,-2.3091,-2.3091,0.0,0.0,0.0,0.0,0.0,0.0,0.0,0.0,0.0,-0.7962,0.0,0.0,0.0,0.0,-0.7438,-0.7037,-0.6873,-0.6803,-0.6803,-0.674,0.0,0.0,0.0,0.0,0.0,-0.6599,-0.6599,-0.6599,-0.6599,0.0,0.0,-0.9039,-0.9554,-0.9943,-1.0872,-1.1698,0.0,0.0,0.0,-1.1259,0.0,0.0,-1.3198,0.0,-1.3941,0.0,0.0,0.0,0.0,0.0,0.0,0.0,0.0,-0.9165,-0.7951,-0.7753,-0.8374,0.0,0.0,0.0,0.0,0.0,0.0,0.0,0.0,0.0,0.0,0.0,0.0,0.0,0.0,0.0,0.0,0.0,0.0,0.0,0.0,0.0,0.0,0.0,0.0,0.0,0.0,0.0,0.0,0.0,0.0,0.0,-2.3478,-2.2888,-2.2366,-2.2027,-2.1413,-2.1044,-2.1006,-2.1016,-2.123,-2.167,-2.167,-2.204,-2.2768,-2.2559,-2.2827,-2.3395,-2.3197,-2.3091,-2.3091,-2.3091,-2.3091,-2.3091,-2.3091,-2.3091,-2.3091,-2.3091,-2.3091,-2.3091,0.0,0.0,0.0,0.0,0.0,0.0,0.0,0.0,-0.8095,-0.8088,0.0,0.0,0.0,0.0,0.0,-0.7268,-0.7231,-0.7223,-0.7201,-0.7012,0.0,0.0,0.0,0.0,0.0,-0.6599,-0.6599,-0.6599,-0.6599,-0.7172,-0.8248,-0.8273,-0.8838,-0.983,-0.9315,-1.0308,-1.2287,0.0,-1.1864,-1.2463,0.0,-1.3198,-1.3498,0.0,0.0,0.0,-1.5324,-1.4934,0.0,0.0,0.0,0.0,0.0,-0.9216,-0.7566,-0.8137,-0.87,0.0,0.0,0.0,0.0,0.0,0.0,0.0,0.0,0.0,0.0,0.0,0.0,0.0,0.0,0.0,0.0,0.0,0.0,0.0,0.0,0.0,0.0,0.0,0.0,0.0,0.0,0.0,0.0,0.0,0.0,-2.3506,-2.3543,-2.3529,-2.3051,-2.2044,-2.2027,-2.1593,-2.0673,-2.0683,-2.0899,-2.1251,-2.1251,-2.197,-2.3282,-2.2707,-2.301,-2.3909,-2.3352,-2.3115,-2.3081,-2.3091,-2.3091,-2.3091,-2.3091,-2.3091,-2.3091,-2.3091,-2.3091,-2.3091,0.0,0.0,0.0,0.0,0.0,-0.8657,-0.8504,-0.8273,-0.8063,0.0,0.0,0.0,-0.7827,-0.8073,-0.822,-0.814,-0.8005,-0.7664,-0.7023,-0.7064,-0.7048,-0.6903,-0.6849,-0.6816,-0.6816,-0.6676,-0.6599,-0.6599,-0.6599,-0.6762,-0.7084,-0.7466,-0.8039,-0.8763,-0.8988,-0.9654,-1.0533,-0.9604,0.0,0.0,-1.2303,-1.3232,0.0,0.0,0.0,0.0,0.0,-1.5806,0.0,0.0,-1.4393,-1.3292,0.0,0.0,-0.8587,-0.8361,-0.924,-1.0219,-0.9968,0.0,0.0,0.0,0.0,0.0,0.0,0.0,0.0,0.0,0.0,0.0,0.0,0.0,0.0,0.0,0.0,0.0,0.0,0.0,0.0,0.0,0.0,0.0,0.0,0.0,0.0,0.0,-2.3362,-2.3681,-2.4393,-2.4163,-2.3533,-2.2556,-2.2886,-2.2962,-2.2713,-2.2713,-2.274,-2.2832,-2.2123,-2.217,-2.2851,-2.1949,-2.1881,-2.2527,-2.3472,-2.3412,-2.2672,-2.2974,-2.3091,-2.3091,-2.3091,-2.3091,-2.3091,-2.3091,-2.3091,-2.3091,0.0,0.0,0.0,-0.8897,-0.884,-0.8848,-0.9041,-0.866,-0.841,0.0,0.0,0.0,-0.8386,-0.9036,-0.9248,-0.8706,-0.8561,-0.8162,-0.7371,-0.7354,-0.7323,-0.7195,-0.7085,-0.7029,-0.7029,-0.6828,-0.6723,-0.6723,-0.6642,-0.6599,-0.6611,-0.6915,-0.7263,-0.7598,-0.7922,-0.8361,-0.8802,0.0,0.0,0.0,-1.286,0.0,0.0,-1.5856,-1.6233,0.0,0.0,0.0,-1.6032,-1.6032,-1.5324,0.0,0.0,-1.0971,-1.032,-0.9529,-1.0306,0.0,-1.1021,0.0,0.0,0.0,0.0,0.0,0.0,0.0,0.0,0.0,0.0,0.0,0.0,0.0,0.0,0.0,0.0,0.0,0.0,0.0,0.0,0.0,0.0,0.0,0.0,0.0,0.0,-2.3821,-2.3523,-2.3734,-2.4755,-2.457,-2.4108,-2.3351,-2.3649,-2.3711,-2.3514,-2.3514,-2.3514,-2.3478,-2.2925,-2.2992,-2.3614,-2.2812,-2.282,-2.3488,-2.4146,-2.3948,-2.3145,-2.3396,-2.3315,-2.3091,-2.3091,-2.3091,-2.3091,-2.3091,-2.3091,-2.3091,0.0,0.0,-0.8931,-0.901,-0.9027,-0.9269,-0.9982,-0.9438,-0.911,0.0,-0.9094,-0.8922,-0.9457,-1.0348,-1.0458,-0.9317,-0.91,-0.8709,-0.8012,-0.7761,-0.7627,-0.7605,-0.7371,-0.7248,-0.7248,-0.7045,-0.6936,-0.6936,-0.6732,-0.6633,-0.6633,-0.6608,-0.6599,-0.6599,-0.6599,-0.6865,-0.7294,0.0,0.0,-1.1678,-1.3639,-1.4657,0.0,0.0,-1.645,0.0,-1.65,-1.65,-1.65,-1.65,-1.5831,0.0,0.0,-1.2642,-1.2379,-1.1282,-1.1736,0.0,-1.2592,-1.2977,0.0,0.0,0.0,0.0,-1.504,-1.506,0.0,0.0,0.0,0.0,0.0,0.0,0.0,0.0,0.0,0.0,0.0,0.0,0.0,0.0,0.0,0.0,0.0,-2.3052,-2.3156,-2.4498,-2.3761,-2.3663,-2.4568,-2.4662,-2.4542,-2.419,-2.4261,-2.4096,-2.3752,-2.3727,-2.375,-2.3806,-2.3708,-2.412,-2.4981,-2.4394,-2.4588,-2.5339,-2.5024,-2.457,-2.4041,-2.4259,-2.3874,-2.3091,-2.3091,-2.3091,-2.3091,-2.3091,-2.3091,-2.3091,0.0,-0.8897,-0.9095,-0.9686,-0.9787,-1.0003,-1.0625,-1.0582,-1.0453,-1.0388,-1.0533,-1.102,-1.1977,-1.1781,-1.1506,-1.1262,-1.0303,-0.9327,-0.8441,-0.8048,-0.7768,-0.7612,-0.7552,-0.753,-0.753,-0.7278,-0.7138,-0.7138,-0.6931,-0.6841,-0.6841,-0.6685,-0.6599,-0.6599,-0.6599,-0.6662,-0.6874,0.0,0.0,-1.0921,-1.1347,0.0,-1.5575,-1.5781,-1.6132,-1.65,-1.65,-1.65,-1.65,0.0,-1.6082,-1.5412,0.0,0.0,0.0,0.0,0.0,-1.377,-1.377,-1.4155,-1.4381,0.0,0.0,0.0,0.0,-1.3664,0.0,0.0,0.0,0.0,0.0,0.0,0.0,0.0,0.0,0.0,0.0,0.0,0.0,0.0,0.0,0.0,0.0,-2.2845,-2.3113,-2.3421,-2.3268,-2.3238,-2.3434,-2.3904,-2.411,-2.4052,-2.4442,-2.4847,-2.5185,-2.5185,-2.5419,-2.5908,-2.5111,-2.4826,-2.4981,-2.4066,-2.3734,-2.3977,-2.5108,-2.505,-2.4305,-2.5947,-2.5226,-2.3091,-2.3091,-2.3091,-2.3091,-2.3091,-2.3091,-2.3091,0.0,-0.8897,-0.9128,-0.9872,-1.0001,-1.037,-1.1433,-1.1258,-1.1198,-1.177,-1.2371,-1.2857,-1.3171,-1.2951,-1.2538,-1.1865,-1.0922,-0.9874,-0.8777,-0.8519,-0.8206,-0.7768,-0.7746,-0.7746,-0.7746,-0.7515,-0.7394,-0.7394,-0.716,-0.7048,-0.7039,-0.6955,-0.7252,-0.7882,-0.7557,-0.7771,-0.8439,0.0,-1.0078,-1.1387,-1.2386,0.0,-1.5772,-1.6278,-1.6664,-1.693,-1.7188,-1.7321,-1.7243,-1.6696,-1.6522,0.0,0.0,-1.5726,-1.5563,0.0,-1.4852,-1.5236,-1.4959,-1.5085,-1.5153,-1.4582,0.0,0.0,0.0,0.0,0.0,0.0,0.0,0.0,0.0,0.0,0.0,0.0,0.0,0.0,0.0,0.0,0.0,0.0,0.0,0.0,0.0,-2.2146,-2.2393,-2.2681,-2.2694,-2.2819,-2.3095,-2.3384,-2.3703,-2.3991,-2.4268,-2.4669,-2.5209,-2.5209,-2.5485,-2.6072,-2.5536,-2.5465,-2.5734,-2.5252,-2.4981,-2.504,-2.5813,-2.5672,-2.4975,-2.6024,-2.547,-2.3992,-2.4587,-2.4808,-2.4723,-2.4178,-2.4307,-2.4723,0.0,-0.8913,-0.9128,-0.9872,-1.0125,-1.0683,-1.2094,-1.1881,-1.2016,-1.3311,-1.417,-1.4607,-1.4446,-1.4404,-1.4029,-1.3073,-1.1935,-1.086,-0.9847,-0.9361,-0.8852,-0.8304,-0.8034,-0.7959,-0.8094,-0.7798,-0.7665,-0.7665,-0.7402,-0.728,-0.7272,-0.7233,-0.7854,-0.8991,-0.8586,-0.9141,0.0,0.0,0.0,-1.2747,0.0,-1.5178,-1.5622,-1.6728,-1.714,-1.7235,-1.7866,-1.8221,-1.8203,-1.7051,0.0,-1.7441,-1.6741,-1.6835,0.0,0.0,0.0,0.0,0.0,0.0,0.0,0.0,0.0,-1.607,0.0,0.0,0.0,-1.6057,0.0,0.0,0.0,0.0,0.0,0.0,0.0,0.0,0.0,0.0,0.0,0.0,0.0,0.0,0.0,-2.1154,-2.1443,-2.2108,-2.1945,-2.2142,-2.2907,-2.2945,-2.3208,-2.3816,-2.3841,-2.4104,-2.4625,-2.4637,-2.4983,-2.5598,-2.5598,-2.5933,-2.6499,-2.6499,-2.6499,-2.6499,-2.6499,-2.6225,-2.578,-2.5876,-2.5669,-2.5363,-2.6066,-2.6337,-2.6214,-2.543,-2.5714,-2.6359,-0.9068,-0.8984,-0.9128,-0.9872,-1.0531,-1.1265,-1.2162,-1.2778,-1.3563,-1.472,-1.5523,-1.6356,-1.731,0.0,0.0,0.0,0.0,0.0,-1.2984,0.0,-0.9749,-0.9674,-0.8536,-0.8177,-0.877,-0.8184,-0.787,-0.787,-0.7665,-0.7552,-0.7552,-0.7303,-0.7607,-0.8336,-0.8856,0.0,0.0,0.0,-1.2942,0.0,-1.5223,-1.5086,0.0,-1.6138,-1.6586,-1.6731,-1.7736,-1.8492,-1.8803,0.0,-1.7652,-1.7991,0.0,-1.6538,0.0,0.0,0.0,0.0,0.0,0.0,0.0,0.0,-1.6823,0.0,0.0,0.0,-1.6082,-1.5248,0.0,0.0,0.0,0.0,0.0,0.0,0.0,0.0,0.0,0.0,0.0,0.0,0.0,0.0,0.0,0.0,-2.0439,-2.1506,-2.0652,-2.0765,-2.2322,-2.2397,-2.2631,-2.3183,-2.3195,-2.3484,-2.4092,-2.4092,-2.4594,-2.5598,-2.5598,-2.5933,-2.6499,-2.6499,-2.6499,-2.6499,-2.6499,-2.6455,-2.6439,-2.6926,-2.7057,-2.6941,-2.6048,-2.5719,-2.5735,-2.614,-2.6389,-2.6472,-0.9124,-0.8995,-0.9128,-0.9872,-1.0261,-1.0876,-1.2111,-1.4014,-1.565,-1.6541,-1.7138,-1.7823,0.0,0.0,0.0,0.0,0.0,-1.4789,0.0,0.0,-1.1682,-1.1022,-0.9764,-0.9195,-0.9473,-0.8822,-0.8297,-0.7899,-0.782,-0.7768,-0.7768,-0.7665,-0.8566,-1.0307,-1.058,0.0,-1.3846,0.0,0.0,0.0,0.0,0.0,0.0,-1.7149,-1.8097,-1.8427,-1.8953,-1.9523,-1.9921,0.0,-1.8844,0.0,0.0,0.0,0.0,0.0,0.0,0.0,0.0,0.0,0.0,0.0,0.0,0.0,0.0,0.0,-1.6007,0.0,0.0,0.0,0.0,0.0,0.0,0.0,0.0,0.0,0.0,0.0,0.0,0.0,0.0,0.0,0.0,0.0,0.0,0.0,0.0,-1.9936,-2.1307,-2.197,-2.2393,-2.2619,-2.2945,-2.3221,-2.3471,-2.3471,-2.3891,-2.4669,-2.4669,-2.5121,-2.5996,-2.5996,-2.6172,-2.6499,-2.6499,-2.6499,-2.6512,-2.6738,-2.6839,-2.6809,-2.6663,-2.6978,-2.7463,-2.7088,-2.7568,-2.8343,-0.9194,0.0,0.0,0.0,-1.0055,-1.0886,-1.2635,-1.4716,-1.6519,-1.7648,0.0,0.0,-1.987,-1.8589,0.0,0.0,0.0,-1.6849,0.0,0.0,-1.3772,-1.3259,-1.1414,0.0,0.0,-0.9768,-0.8852,-0.8177,-0.7989,-0.7989,-0.8177,-0.7989,-0.9195,-1.154,-1.191,-1.3463,-1.5769,0.0,0.0,-1.6114,-1.5687,-1.5854,-1.6537,-1.8104,-1.9233,-1.9997,-2.0079,-2.0613,-2.115,-2.0529,-2.0105,0.0,-2.0509,0.0,0.0,0.0,0.0,0.0,-1.72,0.0,0.0,0.0,0.0,0.0,0.0,0.0,0.0,0.0,0.0,0.0,0.0,0.0,0.0,0.0,0.0,0.0,0.0,0.0,0.0,0.0,0.0,0.0,0.0,0.0,0.0,0.0,0.0,0.0,-2.0377,-2.1192,-2.1832,-2.2297,-2.2669,-2.2945,-2.3108,-2.3108,-2.3396,-2.4004,-2.4004,-2.4556,-2.5598,-2.5598,-2.5912,-2.6499,-2.6499,-2.6499,-2.6499,-2.6499,-2.6499,-2.6537,-2.6939,-2.7645,-2.84,-2.7931,-2.8502,-2.945,-0.9326,-0.9179,0.0,0.0,0.0,-1.1823,-1.4081,-1.452,-1.5349,-1.7512,0.0,0.0,0.0,0.0,0.0,0.0,0.0,-1.9439,-1.9515,0.0,-1.5794,0.0,0.0,-1.2257,0.0,0.0,-0.9548,-0.8875,-0.8222,-0.8237,-0.886,-0.8207,-0.8947,-1.0887,-1.219,-1.3895,-1.5844,-1.6398,-1.7742,-1.9438,-1.813,-1.8384,-1.9459,0.0,-1.9185,-2.0673,-2.0669,0.0,0.0,-2.1268,-2.1289,0.0,0.0,0.0,0.0,0.0,0.0,0.0,0.0,0.0,0.0,-1.6938,0.0,0.0,0.0,0.0,-1.7174,0.0,0.0,0.0,0.0,0.0,-1.5492,-1.4984,0.0,0.0,0.0,0.0,0.0,0.0,0.0,0.0,0.0,0.0,0.0,0.0,0.0,0.0,-1.9685,-1.9861,-2.0627,-2.2259,-2.2334,-2.2556,-2.3095,-2.3108,-2.3396,-2.4004,-2.4004,-2.4556,-2.5598,-2.5598,-2.5912,-2.6499,-2.6499,-2.6499,-2.6499,-2.6499,-2.6499,-2.6499,-2.6512,-2.6864,-2.7457,-2.8499,-2.89,-2.9001,0.0,0.0,0.0,0.0,0.0,-1.1461,-1.4733,-1.6059,-1.749,0.0,0.0,0.0,0.0,0.0,-2.117,0.0,0.0,-2.0732,-2.0309,-1.8713,0.0,0.0,0.0,-1.4536,0.0,0.0,-1.173,-1.0159,-0.9926,-0.9725,-0.9563,-0.933,-1.0024,-1.151,-1.2867,-1.4544,0.0,0.0,0.0,0.0,0.0,-1.8775,-2.0314,0.0,0.0,-2.0808,-2.1695,-2.2328,0.0,-2.2687,-2.2343,-2.1953,-2.2315,-2.1363,-2.0264,-2.1054,-2.0733,0.0,0.0,0.0,-1.9876,-1.814,0.0,0.0,0.0,0.0,0.0,0.0,0.0,0.0,0.0,0.0,-1.563,-1.5462,-1.4821,0.0,0.0,0.0,0.0,0.0,0.0,0.0,0.0,0.0,0.0,0.0,0.0,0.0,0.0,-1.9221,-2.0238,-2.1219,-2.1933,-2.2543,-2.3095,-2.3108,-2.3195,-2.3396,-2.3396,-2.3785,-2.4556,-2.4921,-2.5385,-2.5946,-2.6336,-2.6499,-2.6499,-2.6499,-2.6499,-2.6499,-2.6499,-2.6612,-2.6864,-2.757,-2.8072,-2.8461,-1.142,0.0,0.0,0.0,0.0,0.0,0.0,0.0,0.0,0.0,-2.0737,0.0,-2.2161,0.0,-2.1738,0.0,-2.2266,-2.1951,-2.1247,-2.0188,0.0,-2.0155,-1.8103,0.0,0.0,0.0,-1.3755,-1.1754,-1.1353,-1.0837,-1.0219,-0.9994,-1.0578,-1.1865,0.0,0.0,0.0,0.0,-1.8401,0.0,0.0,-1.9537,0.0,0.0,-2.141,-2.1515,0.0,-2.2838,-2.3092,-2.346,-2.3117,-2.2635,-2.3374,-2.257,-2.1499,-2.2279,-2.1953,-2.1262,-2.0854,-2.0986,0.0,-1.9339,-1.9206,0.0,-1.7489,0.0,0.0,0.0,0.0,0.0,0.0,0.0,-1.5919,-1.5731,-1.4947,-1.4236,0.0,0.0,0.0,0.0,0.0,0.0,0.0,0.0,-1.5141,-1.5932,0.0,0.0,0.0,0.0,-1.9673,-2.0666,-2.1543,-2.2343,-2.3095,-2.3108,-2.3108,-2.3108,-2.3108,-2.3409,-2.4004,-2.4368,-2.4921,-2.5611,-2.6021,-2.6298,-2.6499,-2.6499,-2.6499,-2.6499,-2.6499,-2.6499,-2.6562,-2.7115,-2.7632,-2.8185,0.0,0.0,0.0,0.0,-1.3687,0.0,0.0,0.0,-1.9481,0.0,-2.1275,-2.1546,-2.2313,-2.3038,-2.3173,-2.2465,-2.3054,0.0,-2.2448,-2.1378,0.0,0.0,-2.0303,-1.9349,-1.9741,0.0,0.0,0.0,-1.251,-1.1582,-1.0902,-1.0298,-1.0648,-1.1895,-1.3867,0.0,-1.5963,-1.851,-1.9663,-1.9813,-2.0453,-2.0733,-2.0946,-2.2224,-2.2718,-2.2748,-2.2748,-2.3122,-2.3595,-2.3595,-2.3595,-2.3595,-2.3595,-2.3595,-2.3595,-2.3595,-2.3595,-2.3352,-2.2279,-2.2004,-2.1744,-2.0512,0.0,0.0,0.0,0.0,-1.8877,0.0,0.0,0.0,0.0,0.0,0.0,-1.5819,-1.5299,-1.4557,0.0,0.0,0.0,0.0,0.0,0.0,0.0,0.0,-1.4156,-1.6224,-1.5009,0.0,0.0,0.0,-1.8907,-2.0566,-2.1207,-2.2008,-2.3058,-2.3095,-2.3108,-2.3108,-2.3108,-2.3396,-2.3954,-2.3979,-2.4569,-2.5561,-2.5586,-2.5925,-2.6499,-2.6499,-2.6499,-2.6499,-2.6499,-2.6499,-2.6562,-2.709,-2.7595,-2.8134,-1.4001,-1.5282,-1.6608,0.0,-1.6255,-1.6538,0.0,0.0,0.0,0.0,-2.2361,-2.2513,-2.3797,-2.4101,-2.4135,-2.3949,-2.4118,0.0,0.0,0.0,0.0,-2.3124,-2.1949,-2.1016,-2.0378,-1.8984,0.0,-1.602,0.0,0.0,-1.2643,-1.1943,-1.1688,-1.1865,0.0,0.0,-1.5903,-1.7535,-1.9074,-2.0468,-2.0628,-2.1306,0.0,0.0,-2.2987,-2.3355,-2.3355,-2.346,-2.3595,-2.3595,-2.3595,-2.3595,-2.3595,-2.3595,-2.3595,-2.3595,-2.3595,-2.3543,-2.3235,-2.3518,-2.3511,-2.1867,-2.1808,-2.1718,0.0,0.0,0.0,0.0,0.0,0.0,0.0,0.0,0.0,-1.6447,-1.5844,0.0,0.0,0.0,0.0,0.0,0.0,0.0,0.0,0.0,-1.4532,-1.4714,0.0,0.0,0.0,0.0,0.0,-1.9409,-2.0778,-2.182,-2.2493,-2.2895,-2.3108,-2.3108,-2.3108,-2.3183,-2.3346,-2.3803,-2.4368,-2.5046,-2.5435,-2.5925,-2.6499,-2.6499,-2.6499,-2.6499,-2.6499,-2.6499,-2.6512,-2.665,-2.7052,-2.7519,-1.6163,0.0,0.0,-1.9758,0.0,0.0,-2.1184,0.0,0.0,-2.3377,-2.315,0.0,-2.3932,-2.4577,-2.4846,-2.4525,-2.4795,0.0,0.0,0.0,0.0,-2.3883,-2.31,-2.2397,-2.184,-2.0685,0.0,-1.7595,0.0,0.0,-1.3463,-1.2609,-1.2118,0.0,0.0,-1.4826,0.0,-1.7775,-1.9388,-2.0718,-2.1017,0.0,0.0,-2.3002,-2.3295,-2.3595,-2.3595,-2.3595,-2.3595,-2.3595,-2.3595,-2.3595,-2.3595,-2.3595,-2.3595,-2.3595,-2.3595,-2.3595,-2.3595,-2.3879,-2.3985,-2.326,-2.3143,-2.2878,-2.1612,-2.1336,-2.1161,0.0,0.0,0.0,0.0,0.0,0.0,0.0,0.0,0.0,0.0,0.0,0.0,0.0,0.0,0.0,0.0,0.0,0.0,0.0,0.0,0.0,0.0,0.0,0.0,-1.897,-2.0388,-2.1506,-2.2297,-2.2832,-2.3108,-2.3108,-2.3108,-2.3108,-2.3108,-2.3446,-2.3929,-2.4494,-2.5021,-2.5573,-2.6135,-2.6386,-2.6499,-2.6499,-2.6499,-2.6499,-2.6499,-2.6499,-2.6688,-2.6989,0.0,0.0,0.0,0.0,0.0,0.0,0.0,-2.305,0.0,-2.4126,0.0,-2.3714,-2.3816,-2.4983,-2.549,-2.4846,0.0,-2.5473,-2.4829,-2.4795,-2.4745,-2.4643,-2.4019,-2.3596,-2.3393,-2.228,0.0,0.0,0.0,0.0,-1.3869,-1.2764,0.0,0.0,0.0,0.0,0.0,-1.8781,-2.025,0.0,-2.1643,-2.2325,-2.2972,-2.3513,-2.3702,-2.3702,-2.3616,-2.3595,-2.3595,-2.3595,-2.3595,-2.3595,-2.3595,-2.3595,-2.3595,-2.3595,-2.3595,-2.3595,-2.3595,-2.3729,-2.3969,-2.4365,-2.4156,-2.371,-2.312,-2.2542,-2.1953,-2.1372,-2.0884,-2.08,0.0,0.0,0.0,0.0,0.0,0.0,0.0,0.0,0.0,0.0,0.0,0.0,0.0,0.0,0.0,0.0,0.0,0.0,0.0,0.0,0.0,-1.8857,-2.0088,-2.1182,-2.2196,0.0,-2.3108,-2.3108,-2.3108,-2.3108,-2.3108,-2.3108,-2.3421,-2.4029,-2.4582,-2.5109,-2.5636,-2.6248,-2.6499,-2.6499,-2.6499,-2.6499,-2.6499,-2.6499,-2.6499,-2.6562,0.0,0.0,0.0,0.0,0.0,-2.4846,-2.5867,-2.4697,-2.4206,-2.562,-2.5451,-2.5456,-2.6048,-2.6336,-2.6454,-2.6336,-2.642,0.0,0.0,0.0,0.0,-2.5439,-2.5287,-2.4661,-2.3427,-2.2594,-2.1386,0.0,0.0,0.0,-1.4899,-1.3289,0.0,0.0,0.0,0.0,-1.8053,-1.9791,0.0,-2.2075,-2.2813,-2.3496,-2.4112,-2.4215,-2.4266,-2.4204,-2.3752,-2.3595,-2.3595,-2.3595,-2.3595,-2.3595,-2.3595,-2.3595,-2.3595,-2.3595,-2.3595,-2.3595,-2.3595,-2.4418,-2.5016,-2.4029,-2.4522,-2.4948,-2.374,-2.3375,-2.3264,-2.3156,-2.3052,-2.276,-2.2004,0.0,0.0,0.0,0.0,0.0,0.0,0.0,0.0,0.0,0.0,0.0,0.0,0.0,0.0,0.0,0.0,0.0,0.0,0.0,0.0,0.0,-1.9887,0.0,0.0,0.0,-2.3108,-2.3108,-2.3108,-2.3108,-2.3108,-2.3108,-2.3421,-2.4029,-2.4582,-2.5109,-2.5636,-2.6248,-2.6499,-2.6499,-2.6499,-2.6499,-2.6499,-2.6499,-2.6499,-2.6512,0.0,0.0,0.0,0.0,0.0,0.0,0.0,-2.6682,0.0,-2.6726,-2.6451,-2.6288,-2.6435,-2.678,-2.6923,-2.6725,-2.6691,-2.6691,-2.6691,-2.6691,-2.6539,-2.6184,-2.5812,0.0,-2.456,-2.3444,-2.2327,-2.1197,0.0,-1.7209,-1.5938,-1.4196,-1.3488,-1.3738,0.0,-1.7162,0.0,0.0,0.0,-2.2789,-2.3522,-2.422,-2.4796,-2.4796,-2.4796,-2.4736,-2.4204,-2.4012,-2.397,-2.3702,-2.3595,-2.3595,-2.3595,-2.3595,-2.3595,-2.3595,-2.3849,-2.4036,-2.3699,-2.4306,-2.4918,-2.4276,-2.4343,-2.4492,-2.4208,-2.3849,-2.3595,-2.3595,-2.3595,-2.325,-2.2105,-2.0904,0.0,0.0,0.0,0.0,0.0,0.0,0.0,0.0,0.0,0.0,0.0,0.0,0.0,0.0,0.0,0.0,0.0,0.0,0.0,0.0,0.0,0.0,0.0,0.0,0.0,-2.3108,-2.3108,-2.3108,-2.3108,-2.3108,-2.3258,-2.359,-2.4155,-2.4695,-2.5259,-2.6147,-2.6499,-2.6499,-2.6499,-2.6499,-2.6499,-2.6499,-2.6499,-2.6499,0.0,-2.3896,0.0,0.0,-2.6245,0.0,-2.7695,-2.8209,-2.8292,-2.7616,-2.7245,-2.6911,-2.6597,-2.7076,-2.7272,-2.6857,-2.6824,-2.6791,-2.6708,-2.6691,-2.6691,-2.6691,-2.615,-2.5761,-2.5592,-2.4458,-2.3359,0.0,0.0,0.0,-1.6908,-1.5475,-1.4846,0.0,0.0,0.0,0.0,0.0,-2.2903,-2.3533,-2.4279,-2.4892,-2.5373,-2.5373,-2.5373,-2.5297,-2.4756,-2.4572,-2.4507,-2.411,-2.3823,-2.3625,-2.3774,-2.3819,-2.3849,-2.3984,-2.4395,-2.4694,-2.4178,-2.45,-2.4963,-2.4679,-2.4306,-2.4088,-2.4335,-2.3984,-2.3595,-2.3595,-2.3595,-2.325,-2.2105,-2.1327,0.0,0.0,0.0,0.0,0.0,0.0,0.0,0.0,0.0,0.0,0.0,0.0,0.0,0.0,0.0,0.0,-1.4053,-1.4614,0.0,0.0,0.0,-1.9735,-2.1292,0.0,-2.2556,-2.3108,-2.3108,-2.3108,-2.3108,-2.3108,-2.3108,-2.3133,-2.3753,-2.4368,-2.5059,-2.6084,-2.6499,-2.6499,-2.6499,-2.6499,-2.6499,-2.6499,-2.6499,-2.6499,0.0,0.0,0.0,0.0,0.0,0.0,0.0,-2.845,-2.8791,-2.835,-2.8009,-2.7791,-2.7748,-2.7801,-2.7678,-2.7288,-2.7239,-2.7083,-2.6725,-2.6691,-2.6691,-2.6691,-2.6623,-2.6285,-2.5609,-2.5457,-2.4391,0.0,0.0,-1.987,-1.7698,-1.727,-1.7288,0.0,0.0,0.0,0.0,-2.3331,-2.4238,-2.4704,-2.5512,-2.5875,-2.5924,-2.5924,-2.5924,-2.5852,-2.5316,-2.5125,-2.5143,-2.5217,-2.4502,-2.3714,-2.4306,-2.4515,-2.4634,-2.5217,-2.5465,-2.5495,-2.5435,-2.5899,-2.6123,-2.4903,-2.5008,-2.5121,-2.3969,-2.3655,-2.3595,-2.3595,-2.3595,-2.325,-2.2105,-2.2635,-2.2585,0.0,0.0,0.0,0.0,0.0,0.0,0.0,0.0,0.0,0.0,0.0,0.0,0.0,0.0,0.0,-1.4065,-1.4614,-1.5688,-1.7423,0.0,-1.9572,-2.0754,-2.1782,-2.2556,-2.3108,-2.3108,-2.3108,-2.3108,-2.3108,-2.3108,-2.3133,-2.3753,-2.4582,-2.5573,-2.6235,-2.6499,-2.6499,-2.6499,-2.6499,-2.6499,-2.6499,-2.6499,-2.6499,0.0,0.0,0.0,0.0,0.0,0.0,0.0,-2.9916,-3.0381,-3.0221,-2.9245,-2.8469,-2.8224,-2.8197,-2.8043,-2.7692,-2.7439,-2.7241,-2.7067,-2.6824,-2.6691,-2.6691,-2.6691,-2.6556,-2.6268,-2.5828,-2.5186,0.0,0.0,-2.1177,-1.9807,-1.8776,0.0,0.0,0.0,-2.2844,-2.3483,-2.458,-2.5129,-2.5347,-2.61,-2.6419,-2.6469,-2.6904,-2.7071,-2.7068,-2.7022,-2.7016,-2.6951,-2.6684,-2.5737,-2.4737,-2.5092,-2.5187,-2.5247,-2.5516,-2.5884,-2.6108,-2.5719,-2.6093,-2.6363,-2.5427,-2.5098,-2.4859,-2.4321,-2.3894,-2.3595,-2.3595,-2.3595,-2.3455,-2.2993,-2.2723,-2.2387,0.0,0.0,0.0,0.0,0.0,0.0,0.0,0.0,0.0,0.0,0.0,0.0,0.0,0.0,0.0,0.0,0.0,0.0,-1.681,0.0,-1.9221,-2.0679,-2.143,-2.2259,-2.3108,-2.3108,-2.3108,-2.3108,-2.3108,-2.3108,-2.3133,-2.3753,-2.4431,-2.5172,-2.5724,-2.6185,-2.6499,-2.6499,-2.6499,-2.6499,-2.6499,-2.6499,-2.6499,-2.725,0.0,-2.8496,0.0,-2.9439,-2.9898,-3.0467,-3.1035,-3.1397,-3.1397,-3.0411,-2.96,-2.9305,-2.9279,-2.9042,-2.8445,-2.837,-2.8198,-2.7849,-2.7648,-2.7538,-2.7538,-2.7216,0.0,-2.7385,-2.642,-2.593,-2.593,-2.4139,0.0,-2.1817,-2.0733,0.0,0.0,-2.3712,-2.4644,-2.5218,-2.6184,-2.6607,-2.664,-2.7165,-2.7385,-2.7418,-2.796,-2.8145,-2.8177,-2.8371,-2.8441,-2.8381,-2.8033,-2.7304,-2.6476,-2.6237,-2.6049,-2.5929,-2.6123,-2.6512,-2.6806,-2.6318,-2.6527,-2.6722,-2.6063,-2.5382,-2.4844,-2.4649,-2.4066,-2.3595,-2.3595,-2.3595,-2.3595,-2.3595,-2.2942,-2.2364,-2.22,0.0,0.0,0.0,0.0,0.0,0.0,0.0,-1.8481,0.0,0.0,0.0,0.0,0.0,0.0,0.0,0.0,0.0,0.0,0.0,0.0,0.0,-2.1424,-2.2204,-2.3108,-2.3108,-2.3108,-2.3108,-2.3108,-2.3108,-2.3133,-2.3753,-2.4305,-2.4825,-2.5385,-2.5971,-2.6499,-2.6499,-2.6499,-2.6499,-2.6499,-2.6499,-2.6499,-2.9068,-2.9828,-3.0894,-3.1961,-3.1727,-3.1378,-3.1378,-3.1397,-3.1397,-3.1397,-3.1378,-3.1378,-3.1347,-3.1347,-3.0874,-2.9682,-3.0346,-3.0352,-2.9171,-2.9381,-2.9554,0.0,0.0,-2.8145,-2.8959,-2.7469,-2.6691,-2.6691,0.0,0.0,-2.3359,0.0,-2.3731,-2.4525,-2.6014,-2.6657,-2.6759,-2.8316,-2.8959,-2.8959,-2.8976,-2.8976,-2.8976,-2.8976,-2.8993,-2.8993,-2.8993,-2.8993,-2.9003,-2.9155,-2.9169,-2.8952,-2.7834,-2.7077,-2.6731,-2.739,-2.7585,-2.7585,-2.757,-2.7585,-2.742,-2.6761,-2.6078,-2.5397,-2.4754,-2.4066,-2.3595,-2.3595,-2.3595,-2.3595,-2.3595,-2.3595,-2.3012,-2.1206,0.0,0.0,0.0,0.0,0.0,0.0,-1.7038,-1.6591,-1.8688,0.0,0.0,0.0,0.0,0.0,0.0,0.0,0.0,-1.8113,-1.8759,0.0,-2.0706,-2.182,-2.2618,-2.3108,-2.3108,-2.3108,-2.3108,-2.3108,-2.3108,-2.3133,-2.3753,-2.4305,-2.4825,-2.5385,-2.5971,-2.6499,-2.6499,-2.6499,-2.6499,-2.6499,-2.6499,-2.6499,-3.1317,-3.1686,-3.207,-3.1949,-3.2096,-3.2228,-3.2228,-3.2687,-3.3036,-3.3036,-3.3036,-3.3036,-3.3036,-3.2045,-3.1249,0.0,-3.0857,-3.0734,0.0,-3.0166,-3.0074,-3.0074,-2.9413,-2.9145,-2.9386,-2.8662,-2.8282,-2.8282,0.0,0.0,0.0,-2.6167,-2.6522,-2.6776,-2.7807,-2.8282,-2.8299,-2.879,-2.8993,-2.8993,-2.8993,-2.8993,-2.9044,-2.955,-2.9753,-2.982,-3.0311,-3.0497,-3.0511,-3.0558,-3.0288,-2.9884,-2.9529,-2.8711,-2.7865,-2.765,-2.76,-2.76,-2.76,-2.76,-2.754,-2.7345,-2.6791,-2.6108,-2.5427,-2.4418,-2.3595,-2.3595,-2.3595,-2.3595,-2.3595,-2.3595,-2.3133,-2.1687,-2.158,0.0,0.0,0.0,0.0,0.0,0.0,-1.8699,0.0,-1.7511,0.0,0.0,0.0,0.0,0.0,0.0,0.0,0.0,-1.9827,0.0,-2.1459,-2.2549,-2.3373,-2.3914,-2.3914,-2.3914,-2.3884,-2.3335,-2.3108,-2.3108,-2.3296,-2.391,-2.48,-2.4963,-2.5624,-2.6499,-2.6499,-2.6499,-2.6499,-2.6499,-2.6499,-2.6499,-3.3397,-3.3479,-3.3455,-3.2814,-3.2986,-3.3159,-3.3067,-3.3476,-3.3807,-3.3807,-3.3807,-3.3807,-3.3807,-3.2889,0.0,-3.188,-3.1936,-3.1851,-3.156,-3.1441,-3.1392,-3.1392,-3.0672,-3.0329,-3.0422,-2.9643,0.0,-2.9397,-2.8636,-2.8027,-2.7571,-2.8044,-2.8264,-2.8281,-2.9059,-2.9397,-2.9433,-2.9721,-2.9839,-2.9839,-2.9839,-2.9839,-2.989,-3.0345,-3.0514,-3.0581,-3.1021,-3.119,-3.119,-3.119,-3.0938,-3.0597,-3.0372,-2.9783,-2.8996,-2.8174,-2.7785,-2.76,-2.76,-2.76,-2.76,-2.76,-2.7106,-2.6363,-2.5427,-2.4575,-2.3909,-2.3655,-2.3595,-2.3595,-2.3595,-2.3595,-2.3176,-2.1904,-2.1695,-2.1216,-1.9887,0.0,0.0,0.0,0.0,0.0,0.0,-1.872,0.0,0.0,0.0,0.0,0.0,0.0,0.0,-1.857,-2.0985,0.0,-2.2462,-2.3593,-2.4368,-2.4709,-2.4709,-2.4709,-2.4709,-2.4179,-2.3946,-2.3946,-2.3946,-2.461,-2.5678,-2.5678,-2.6387,-2.7451,-2.7451,-2.7451,-2.7384,-2.7061,-2.6939,-2.6905,-3.5182,-3.5113,-3.4925,0.0,-3.4223,0.0,-3.3881,-3.3802,-3.3807,-3.3807,-3.3807,-3.3807,-3.3807,-3.3807,-3.3495,-3.2748,0.0,0.0,0.0,-3.3033,-3.3243,-3.3243,-3.2143,-3.1642,-3.188,-3.0525,-2.9937,-3.0213,-2.9484,-2.9145,-2.9145,-2.9145,-2.9145,-2.9179,-2.9871,-3.0192,-3.0207,-3.0903,-3.119,-3.119,-3.119,-3.119,-3.119,-3.119,-3.119,-3.119,-3.119,-3.119,-3.119,-3.119,-3.119,-3.1095,-3.0539,-3.0335,-3.0081,-2.8896,-2.814,-2.766,-2.771,-2.766,-2.7625,-2.7635,-2.713,-2.6273,-2.5023,-2.4664,-2.4425,-2.3804,-2.3625,-2.3595,-2.3595,-2.3595,-2.3176,-2.1904,-2.1695,-2.1216,-1.9887,0.0,0.0,0.0,0.0,0.0,0.0,-1.9604,-1.9914,0.0,0.0,0.0,0.0,0.0,-1.9293,-2.0803,-2.2294,-2.3311,-2.3721,-2.4967,-2.5552,-2.5481,-2.5425,-2.5425,-2.5481,-2.5425,-2.5398,-2.5398,-2.5398,-2.6061,-2.7138,-2.7179,-2.7884,-2.8947,-2.8989,-2.9002,-2.8907,-2.8084,-2.7802,-2.767,0.0,0.0,-3.5051,-3.4916,-3.4502,-3.4183,-3.4111,-3.3923,-3.3807,-3.3807,-3.3807,-3.3807,-3.3807,-3.3807,-3.3715,-3.3532,-3.3697,-3.3715,-3.3532,-3.3597,-3.3666,-3.3666,-3.3092,-3.2801,-3.2872,-3.2196,-3.1672,-3.1401,-3.0925,-3.0685,-3.0685,-3.0685,-3.0685,-3.0683,-3.0852,-3.0937,-3.0954,-3.1123,-3.119,-3.119,-3.119,-3.119,-3.119,-3.119,-3.119,-3.119,-3.119,-3.119,-3.119,-3.119,-3.119,-3.1171,-3.1035,-3.0679,-3.0145,-2.9406,-2.8756,-2.8391,-2.8857,-2.8304,-2.771,-2.8165,-2.7443,-2.6512,-2.6198,-2.5322,-2.456,-2.4395,-2.3969,-2.3595,-2.3595,-2.3595,-2.3176,-2.1904,-2.1695,-2.1216,-1.9887,-1.9708,0.0,0.0,-1.9972,-2.0264,-2.0264,-2.0413,-2.0499,0.0,0.0,0.0,0.0,-2.1302,-2.1831,-2.2219,-2.3988,-2.4998,-2.5123,-2.5871,-2.6246,-2.6229,-2.5673,-2.5673,-2.6229,-2.5646,-2.5398,-2.5398,-2.5398,-2.5798,-2.6486,-2.6984,-2.7605,-2.8291,-2.8791,-2.9002,-2.8971,-2.878,-2.8684,-2.8684,-3.55,-3.5376,-3.5239,-3.5122,-3.4832,-3.4574,-3.4445,-3.4159,-3.3986,-3.3986,-3.3876,-3.3807,-3.3807,-3.3807,-3.3807,-3.3807,-3.3807,-3.3807,-3.3807,-3.3807,-3.3807,-3.3807,-3.3578,-3.3375,-3.3199,-3.2952,-3.2599,-3.2109,-3.1695,-3.147,-3.147,-3.1291,-3.119,-3.119,-3.119,-3.119,-3.119,-3.119,-3.119,-3.119,-3.119,-3.119,-3.119,-3.119,-3.119,-3.119,-3.119,-3.119,-3.119,-3.119,-3.119,-3.119,-3.119,-3.0975,-3.0658,-3.0314,-2.9607,-2.8973,-2.9316,-2.8927,-2.8496,-2.8826,-2.8169,-2.7394,-2.7074,-2.6217,-2.5337,-2.4724,-2.4306,-2.3947,-2.3655,-2.337,-2.2868,-2.1859,-2.144,-2.0887,-1.9857,-1.9708,0.0,-2.0124,-2.0483,-2.0823,-2.1141,-2.144,-2.1485,-2.1186,-2.171,0.0,-2.162,-2.2862,-2.3428,-2.312,-2.4713,-2.5747,-2.6035,-2.6685,-2.7008,-2.6982,-2.6602,-2.6628,-2.6982,-2.6602,-2.6402,-2.6402,-2.6402,-2.6734,-2.7352,-2.801,-2.8627,-2.9214,-2.9889,-3.0133,-3.0103,-2.9721,-2.9597,-2.9535,-3.55,-3.55,-3.5432,-3.5198,-3.5122,-3.5016,-3.4803,-3.4478,-3.4265,-3.42,-3.3993,-3.3842,-3.3802,-3.3807,-3.3807,-3.3807,-3.3807,-3.3807,-3.3807,-3.3807,-3.3807,-3.3807,-3.3807,-3.3634,-3.3302,-3.3229,-3.2999,-3.2599,-3.2127,-3.1915,-3.1897,-3.1564,-3.1351,-3.1291,-3.1291,-3.1269,-3.1207,-3.1309,-3.136,-3.1376,-3.1478,-3.1529,-3.1529,-3.1529,-3.1529,-3.1529,-3.1529,-3.1529,-3.1529,-3.1529,-3.1529,-3.1512,-3.1393,-3.136,-3.1326,-3.1224,-3.0477,-2.9673,-2.9673,-2.9607,-2.9518,-2.9429,-2.8996,-2.8459,-2.7798,-2.7193,-2.6378,-2.5151,-2.4739,-2.4425,-2.3864,-2.3236,-2.2598,-2.1814,-2.1321,-2.0707,-1.9828,0.0,-2.0168,-2.0643,-2.0868,-2.1231,-2.1799,-2.2373,-2.2508,-2.2024,-2.2892,-2.331,-2.3002,-2.4007,-2.4425,-2.4059,-2.5166,-2.6078,-2.6737,-2.7315,-2.76,-2.76,-2.76,-2.76,-2.76,-2.76,-2.76,-2.76,-2.76,-2.7929,-2.8502,-2.9292,-2.9894,-3.0447,-3.1197,-3.1511,-3.1409,-3.0748,-3.0494,-3.0389,-3.55,-3.55,-3.5493,-3.5446,-3.5239,-3.5088,-3.5034,-3.4803,-3.4518,-3.4253,-3.4152,-3.4056,-3.3815,-3.3807,-3.3807,-3.3807,-3.3807,-3.3807,-3.3807,-3.3807,-3.3807,-3.3807,-3.3807,-3.3762,-3.3707,-3.3375,-3.3169,-3.309,-3.2632,-3.2401,-3.2401,-3.2333,-3.2092,-3.1715,-3.1715,-3.1526,-3.1241,-3.187,-3.2141,-3.2192,-3.2814,-3.3068,-3.3068,-3.3068,-3.3068,-3.3068,-3.3068,-3.3068,-3.3068,-3.3068,-3.3068,-3.2949,-3.2327,-3.2141,-3.2005,-3.1376,-3.1055,-3.0918,-3.0918,-3.0539,-3.0038,-2.9518,-2.9339,-2.9102,-2.8474,-2.7845,-2.7157,-2.6438,-2.5382,-2.4575,-2.447,-2.3924,-2.3071,-2.1889,-2.2104,-2.1759,-1.9947,0.0,-2.1216,-2.0748,-2.1695,-2.2433,-2.2538,-2.2643,-2.2868,-2.3266,-2.3032,-2.3266,-2.4246,-2.4485,-2.5068,-2.6093,-2.6333,-2.6776,-2.7435,-2.754,-2.76,-2.76,-2.76,-2.76,-2.76,-2.76,-2.76,-2.76,-2.76,-2.766,-2.7854,-2.9097,-2.9666,-2.9849,-3.1032,-3.1511,-3.1467,-3.1351,-3.1307,-3.1278,-3.55,-3.55,-3.55,-3.55,-3.541,-3.5312,-3.5312,-3.5088,-3.486,-3.4715,-3.4553,-3.4532,-3.4704,-3.4722,-3.4829,-3.5105,-3.5147,-3.5147,-3.5147,-3.4302,-3.399,-3.4417,-3.4454,-3.4669,-3.5128,-3.4501,-3.4397,-3.4867,-3.44,-3.3944,-3.3516,-3.3254,-3.3017,-3.2827,-3.2827,-3.2821,-3.2853,-3.3176,-3.3171,-3.2916,-3.3271,-3.3406,-3.3406,-3.3406,-3.3406,-3.3406,-3.3406,-3.3406,-3.3406,-3.3406,-3.3406,-3.3339,-3.3,-3.2882,-3.2747,-3.2022,-3.1495,-3.119,-3.119,-3.0995,-3.072,-3.0435,-3.0123,-2.9805,-2.954,-2.8971,-2.8238,-2.7271,-2.6589,-2.5834,-2.4792,-2.4036,-2.3415,-2.2817,-2.2418,0.0,0.0,-2.155,-2.1724,-2.1769,-2.2328,-2.2823,-2.3152,-2.3176,-2.3295,-2.358,-2.3684,-2.3977,-2.4575,-2.5277,-2.5959,-2.6572,-2.6956,-2.7285,-2.76,-2.76,-2.76,-2.76,-2.76,-2.76,-2.76,-2.76,-2.76,-2.76,-2.76,-2.76,-2.7675,-2.8678,-2.9265,-2.9696,-3.0612,-3.1182,-3.1511,-3.1511,-3.1511,-3.1511,-3.55,-3.55,-3.55,-3.55,-3.55,-3.55,-3.55,-3.5339,-3.5182,-3.5105,-3.5078,-3.5193,-3.5546,-3.5701,-3.5943,-3.6362,-3.6342,-3.6303,-3.6303,-3.5092,-3.4669,-3.5279,-3.5298,-3.561,-3.6285,-3.5628,-3.5642,-3.6303,-3.593,-3.545,-3.4836,-3.4469,-3.4255,-3.4138,-3.4138,-3.4217,-3.4376,-3.4434,-3.4226,-3.3849,-3.3889,-3.3914,-3.3914,-3.3914,-3.3914,-3.3914,-3.3914,-3.3914,-3.3914,-3.3914,-3.3914,-3.3897,-3.3711,-3.366,-3.3508,-3.2763,-3.2019,-3.141,-3.1241,-3.119,-3.119,-3.119,-3.0858,-3.0477,-3.0335,-2.9935,-2.9291,-2.8173,-2.7802,-2.7223,-2.5584,-2.473,-2.4113,-2.3661,0.0,0.0,0.0,-2.2283,-2.2278,-2.2658,-2.2823,-2.3092,-2.355,-2.3595,-2.367,-2.3819,-2.4306,-2.4739,-2.5053,-2.6033,-2.6662,-2.6836,-2.733,-2.76,-2.76,-2.76,-2.76,-2.76,-2.76,-2.76,-2.76,-2.76,-2.76,-2.76,-2.76,-2.76,-2.7645,-2.8308,-2.8891,-2.943,-3.0193,-3.0821,-3.1286,-3.1451,-3.1511,-3.1511,-3.55,-3.55,-3.55,-3.55,-3.55,-3.55,-3.55,-3.5486,-3.5376,-3.513,-3.5725,-3.6102,-3.5885,-3.6323,-3.6634,-3.6683,-3.644,-3.6303,-3.6303,-3.6174,-3.6138,-3.6193,-3.6193,-3.6229,-3.6303,-3.6229,-3.6229,-3.6303,-3.6256,-3.6219,-3.6149,-3.6117,-3.5888,-3.5457,-3.5457,-3.5229,-3.4872,-3.511,-3.5186,-3.5175,-3.5346,-3.543,-3.543,-3.543,-3.543,-3.543,-3.543,-3.543,-3.543,-3.543,-3.543,-3.5312,-3.4624,-3.4421,-3.4269,-3.3541,-3.2797,-3.2073,-3.1396,-3.119,-3.119,-3.119,-3.1171,-3.0995,-3.0435,-3.0272,-3.0064,-2.9371,-2.876,-2.8112,-2.7409,-2.6745,-2.5703,-2.3898,0.0,0.0,-2.2024,-2.2742,-2.3266,-2.2763,-2.3176,-2.355,-2.3595,-2.3595,-2.3864,-2.4485,-2.4575,-2.5128,-2.6378,-2.6542,-2.6896,-2.751,-2.757,-2.76,-2.76,-2.76,-2.76,-2.76,-2.76,-2.76,-2.76,-2.76,-2.76,-2.76,-2.76,-2.76,-2.7645,-2.8308,-2.8622,-2.8801,-3.0028,-3.0537,-3.0657,-3.1271,-3.1511,-3.1511,-3.55,-3.55,-3.55,-3.55,-3.55,-3.55,-3.55,-3.55,-3.5645,-3.604,-3.6358,-3.6845,-3.7604,-3.7883,-3.8142,-3.8479,-3.8231,-3.8035,-3.8035,-3.7882,-3.7569,-3.707,-3.7052,-3.7276,-3.7771,-3.7309,-3.7276,-3.779,-3.779,-3.7533,-3.7052,-3.7052,-3.696,-3.6787,-3.6787,-3.6771,-3.677,-3.6863,-3.6731,-3.648,-3.6561,-3.6378,-3.6097,-3.6097,-3.5898,-3.56,-3.56,-3.56,-3.56,-3.56,-3.56,-3.5549,-3.5261,-3.5182,-3.5047,-3.4303,-3.3558,-3.2814,-3.209,-3.1565,-3.119,-3.119,-3.119,-3.1151,-3.0898,-3.0858,-3.0679,-3.0064,-2.9766,-2.9275,-2.8246,-2.785,-2.7322,-2.6211,0.0,-2.5514,-2.4845,-2.4807,-2.4762,-2.4522,-2.4702,-2.4837,-2.4837,-2.4837,-2.4956,-2.5187,-2.5615,-2.6063,-2.6557,-2.7001,-2.7345,-2.7585,-2.76,-2.76,-2.76,-2.76,-2.76,-2.76,-2.76,-2.76,-2.76,-2.76,-2.76,-2.76,-2.76,-2.76,-2.7615,-2.7884,-2.8483,-2.9265,-2.9744,-3.0432,-3.1152,-3.1406,-3.1511,-3.1511,-3.55,-3.6346,-3.6738,-3.5673,-3.55,-3.5673,-3.6192,-3.6288,-3.6481,-3.7046,-3.7353,-3.7871,-3.8845,-3.9108,-3.9364,-3.9719,-3.9438,-3.9199,-3.9112,-3.8859,-3.845,-3.7915,-3.7878,-3.8138,-3.8689,-3.8157,-3.8138,-3.8707,-3.8707,-3.8414,-3.7878,-3.7878,-3.7878,-3.7878,-3.7878,-3.7985,-3.815,-3.7963,-3.772,-3.7396,-3.7248,-3.698,-3.6643,-3.6643,-3.6312,-3.5854,-3.5854,-3.5739,-3.56,-3.56,-3.56,-3.56,-3.56,-3.56,-3.5498,-3.4996,-3.432,-3.3626,-3.3139,-3.2293,-3.1478,-3.1258,-3.119,-3.119,-3.119,-3.119,-3.1075,-3.0679,-3.058,-3.0249,-2.9183,-2.8995,-2.8737,-2.7904,-2.7397,-2.7038,-2.6865,-2.6466,-2.6175,-2.6175,-2.6175,-2.6085,-2.5894,-2.6039,-2.6176,-2.6197,-2.6801,-2.7176,-2.7188,-2.7627,-2.781,-2.7625,-2.76,-2.76,-2.76,-2.76,-2.76,-2.76,-2.76,-2.76,-2.76,-2.76,-2.76,-2.76,-2.76,-2.76,-2.76,-2.76,-2.8139,-2.9022,-2.9442,-3.0133,-3.0943,-3.1346,-3.1511,-3.1511,-3.5538,-3.8219,-3.9457,-3.6115,-3.5538,-3.6096,-3.7757,-3.8007,-3.8007,-3.8007,-3.8757,-3.9304,-3.9304,-3.9771,-4.0101,-4.0101,-3.9797,-3.945,-3.9139,-3.884,-3.8707,-3.8707,-3.8707,-3.8707,-3.8707,-3.8707,-3.8707,-3.8707,-3.8707,-3.8707,-3.8707,-3.8707,-3.8707,-3.8707,-3.8707,-3.8707,-3.8676,-3.8115,-3.7911,-3.7877,-3.7396,-3.7209,-3.7209,-3.7209,-3.6865,-3.6412,-3.6412,-3.6054,-3.56,-3.56,-3.56,-3.56,-3.56,-3.56,-3.56,-3.56,-3.5081,-3.4506,-3.4489,-3.3444,-3.2141,-3.1376,-3.119,-3.119,-3.119,-3.119,-3.119,-3.119,-3.119,-3.1015,-3.0414,-3.0293,-2.9899,-2.8603,-2.8405,-2.8185,-2.7515,-2.7423,-2.7423,-2.7423,-2.7423,-2.7174,-2.6582,-2.7047,-2.7439,-2.7525,-2.8066,-2.8443,-2.8504,-2.8511,-2.8238,-2.7625,-2.7625,-2.7625,-2.7625,-2.76,-2.76,-2.76,-2.76,-2.76,-2.76,-2.76,-2.76,-2.76,-2.76,-2.76,-2.76,-2.76,-2.76,-2.7735,-2.9082,-2.9606,-2.9771,-3.1017,-3.1511,-3.1511,-3.7815,-3.9265,-4.0189,-3.9181,-3.9008,-3.8911,-3.8611,-3.8553,-3.8649,-3.8873,-3.915,-3.9515,-4.0073,-4.0287,-4.0381,-4.0381,-4.012,-3.9808,-3.9462,-3.9157,-3.8971,-3.8971,-3.8803,-3.8707,-3.8707,-3.8707,-3.8707,-3.8707,-3.8707,-3.8707,-3.8707,-3.8707,-3.8707,-3.8707,-3.8707,-3.8707,-3.8692,-3.853,-3.8465,-3.8449,-3.8302,-3.8033,-3.7685,-3.7685,-3.7396,-3.696,-3.696,-3.6623,-3.6161,-3.6161,-3.592,-3.56,-3.56,-3.56,-3.56,-3.56,-3.543,-3.5165,-3.4641,-3.4167,-3.3525,-3.2293,-3.1562,-3.119,-3.119,-3.119,-3.119,-3.119,-3.119,-3.1151,-3.0958,-3.0918,-3.0673,-2.9871,-2.9737,-2.9523,-2.8886,-2.881,-2.881,-2.881,-2.881,-2.8722,-2.8545,-2.87,-2.8818,-2.8824,-2.8997,-2.9115,-2.9134,-2.9134,-2.885,-2.8262,-2.8238,-2.8238,-2.8238,-2.781,-2.76,-2.76,-2.76,-2.76,-2.76,-2.76,-2.76,-2.76,-2.76,-2.76,-2.76,-2.76,-2.7884,-2.8338,-2.8742,-2.9445,-3.0283,-3.0672,-3.1092,-3.1511,-3.9381,-4.0035,-4.0496,-4.0496,-4.0496,-4.0265,-3.9573,-3.9477,-3.9554,-3.9746,-3.9765,-3.9958,-4.0458,-4.0496,-4.0496,-4.0496,-4.025,-4.0012,-3.9808,-3.9474,-3.9238,-3.9112,-3.8947,-3.8818,-3.8707,-3.8707,-3.8707,-3.8707,-3.8707,-3.8707,-3.8707,-3.8707,-3.8707,-3.8707,-3.8707,-3.8707,-3.8707,-3.8707,-3.8707,-3.8707,-3.8707,-3.8515,-3.8216,-3.8216,-3.7894,-3.747,-3.747,-3.7154,-3.6724,-3.6724,-3.6354,-3.592,-3.592,-3.5783,-3.56,-3.56,-3.56,-3.5498,-3.5064,-3.4726,-3.4307,-3.3393,-3.2412,-3.1546,-3.1258,-3.119,-3.119,-3.119,-3.119,-3.119,-3.119,-3.119,-3.1075,-3.072,-3.0658,-3.0518,-3.0166,-3.0123,-3.0123,-3.0123,-3.0123,-3.0016,-2.9783,-2.9957,-3.0123,-3.0123,-3.0123,-3.0016,-2.9761,-2.9761,-2.9473,-2.8873,-2.885,-2.885,-2.885,-2.8496,-2.8304,-2.8304,-2.8304,-2.8198,-2.7959,-2.7959,-2.7835,-2.76,-2.76,-2.76,-2.76,-2.76,-2.7839,-2.8218,-2.8502,-2.9071,-2.9819,-3.0313,-3.0776,-3.1137,-4.0308,-4.0504,-4.0496,-4.0496,-4.0496,-4.0496,-4.0496,-4.0496,-4.0496,-4.0496,-4.0496,-4.0496,-4.0496,-4.0496,-4.0496,-4.0496,-4.0286,-4.0129,-4.0129,-3.9829,-3.9517,-3.9199,-3.9147,-3.9013,-3.8732,-3.8704,-3.8707,-3.8707,-3.8707,-3.8707,-3.8707,-3.8707,-3.8707,-3.8707,-3.8707,-3.8707,-3.8707,-3.8707,-3.8707,-3.8707,-3.8707,-3.8707,-3.8707,-3.8707,-3.8399,-3.7963,-3.7963,-3.7685,-3.7266,-3.721,-3.6882,-3.6478,-3.6478,-3.6097,-3.5672,-3.5672,-3.5644,-3.56,-3.56,-3.5115,-3.4573,-3.4506,-3.3495,-3.2293,-3.1481,-3.1241,-3.119,-3.119,-3.119,-3.119,-3.119,-3.119,-3.119,-3.119,-3.119,-3.119,-3.119,-3.119,-3.119,-3.119,-3.119,-3.0995,-3.0435,-3.0878,-3.119,-3.119,-3.119,-3.0975,-3.0414,-3.0393,-3.0086,-2.9496,-2.9473,-2.9473,-2.9473,-2.9473,-2.9451,-2.9406,-2.9406,-2.9111,-2.8583,-2.8583,-2.8271,-2.776,-2.776,-2.776,-2.776,-2.771,-2.7685,-2.7735,-2.8289,-2.8547,-2.8742,-2.9909,-3.0372,-3.0507,-4.061,-4.0581,-4.0496,-4.0496,-4.0496,-4.0496,-4.0496,-4.0496,-4.0496,-4.0496,-4.0496,-4.0496,-4.0496,-4.0496,-4.0496,-4.0496,-4.0449,-4.0406,-4.0406,-4.0139,-3.9972,-3.9891,-3.9634,-3.9346,-3.9027,-3.8818,-3.8707,-3.8707,-3.8707,-3.8707,-3.8707,-3.8707,-3.8707,-3.8707,-3.8707,-3.8707,-3.8707,-3.8707,-3.8707,-3.8707,-3.8707,-3.8707,-3.8707,-3.8707,-3.8627,-3.853,-3.853,-3.8183,-3.7685,-3.7323,-3.7116,-3.7038,-3.7038,-3.6664,-3.6224,-3.6224,-3.5941,-3.56,-3.56,-3.5481,-3.5211,-3.4641,-3.4252,-3.3698,-3.2361,-3.1596,-3.119,-3.119,-3.119,-3.119,-3.119,-3.119,-3.119,-3.119,-3.119,-3.119,-3.119,-3.119,-3.119,-3.119,-3.119,-3.1151,-3.1015,-3.1131,-3.119,-3.119,-3.119,-3.1151,-3.1015,-3.1015,-3.072,-3.0123,-3.0086,-3.0086,-3.0086,-3.0086,-2.987,-2.9406,-2.9406,-2.9339,-2.9203,-2.9203,-2.9134,-2.9019,-2.9019,-2.9019,-2.8973,-2.8511,-2.8295,-2.8277,-2.7951,-2.8154,-2.8637,-2.8906,-2.934,-2.9864,-4.0757,-4.0666,-4.0609,-4.0609,-4.0537,-4.0496,-4.0496,-4.0496,-4.0496,-4.0496,-4.0496,-4.0496,-4.0496,-4.0496,-4.0496,-4.0496,-4.0496,-4.0496,-4.0496,-4.0364,-4.0232,-4.0101,-3.9932,-3.9679,-3.9339,-3.9203,-3.8984,-3.8707,-3.8707,-3.8707,-3.8707,-3.8707,-3.8707,-3.8707,-3.8707,-3.8707,-3.8707,-3.8707,-3.8707,-3.8707,-3.8707,-3.8707,-3.8707,-3.8707,-3.8707,-3.8707,-3.8707,-3.853,-3.8251,-3.7999,-3.7738,-3.7524,-3.7524,-3.7192,-3.6724,-3.6478,-3.6203,-3.592,-3.5672,-3.56,-3.5498,-3.5131,-3.4759,-3.41,-3.2649,-3.2005,-3.1633,-3.1258,-3.119,-3.119,-3.119,-3.119,-3.119,-3.119,-3.119,-3.119,-3.119,-3.119,-3.119,-3.119,-3.119,-3.119,-3.119,-3.119,-3.119,-3.119,-3.119,-3.119,-3.119,-3.119,-3.1055,-3.074,-3.072,-3.072,-3.072,-3.072,-3.0559,-3.0251,-3.0251,-3.0102,-2.9827,-2.9827,-2.9673,-2.9406,-2.9406,-2.9406,-2.9384,-2.9042,-2.8943,-2.8896,-2.8591,-2.8664,-2.9011,-2.9336,-2.9705,-3.0035,-4.086,-4.0771,-4.0718,-4.0718,-4.063,-4.0523,-4.0523,-4.0519,-4.0496,-4.0496,-4.0496,-4.0496,-4.0496,-4.0496,-4.0496,-4.0496,-4.0496,-4.0496,-4.0496,-4.0496,-4.0397,-4.0177,-4.0167,-4.0022,-3.969,-3.9698,-3.9414,-3.8848,-3.8807,-3.8777,-3.8777,-3.8719,-3.8707,-3.8707,-3.8707,-3.8707,-3.8707,-3.8707,-3.8707,-3.8707,-3.8707,-3.8707,-3.8707,-3.8707,-3.8707,-3.8707,-3.8707,-3.8707,-3.8707,-3.8707,-3.8399,-3.8048,-3.8048,-3.772,-3.7229,-3.6803,-3.6522,-3.6291,-3.5854,-3.5672,-3.56,-3.56,-3.5148,-3.432,-3.2987,-3.2581,-3.2276,-3.1529,-3.1396,-3.1343,-3.1207,-3.119,-3.119,-3.119,-3.119,-3.119,-3.119,-3.119,-3.119,-3.119,-3.119,-3.119,-3.119,-3.119,-3.119,-3.119,-3.119,-3.119,-3.119,-3.119,-3.119,-3.119,-3.119,-3.119,-3.119,-3.119,-3.119,-3.119,-3.119,-3.0955,-3.0456,-3.0456,-3.0187,-2.9695,-2.9695,-2.9695,-2.9695,-2.9585,-2.9563,-2.954,-2.9451,-2.9406,-2.947,-3.0016,-3.0354,-3.0396,-4.0986,-4.0864,-4.0796,-4.0796,-4.0731,-4.0667,-4.0667,-4.0561,-4.0496,-4.0496,-4.0496,-4.0496,-4.0496,-4.0496,-4.0496,-4.0496,-4.0496,-4.0496,-4.0496,-4.0496,-4.0481,-4.0457,-4.0449,-4.033,-4.0032,-4.0022,-3.9859,-3.9469,-3.9178,-3.9049,-3.9036,-3.8818,-3.8707,-3.8707,-3.8707,-3.8707,-3.8707,-3.8707,-3.8707,-3.8707,-3.8707,-3.8707,-3.8707,-3.8707,-3.8707,-3.8707,-3.8707,-3.8707,-3.8707,-3.8707,-3.8643,-3.8578,-3.8578,-3.8234,-3.779,-3.772,-3.7079,-3.6374,-3.6291,-3.5963,-3.56,-3.56,-3.5515,-3.5228,-3.4387,-3.3711,-3.3034,-3.231,-3.2158,-3.1955,-3.1309,-3.119,-3.119,-3.119,-3.119,-3.119,-3.119,-3.119,-3.119,-3.119,-3.119,-3.119,-3.119,-3.119,-3.119,-3.119,-3.119,-3.119,-3.119,-3.119,-3.119,-3.119,-3.119,-3.119,-3.119,-3.119,-3.119,-3.119,-3.119,-3.1151,-3.1092,-3.1092,-3.1035,-3.0975,-3.0975,-3.0975,-3.0918,-3.0393,-3.0187,-3.0123,-2.9607,-2.9406,-2.9422,-2.9518,-2.9906,-3.0323,-4.1105,-4.0998,-4.0914,-4.0914,-4.084,-4.0732,-4.0709,-4.0655,-4.0575,-4.0512,-4.0496,-4.0496,-4.0496,-4.0496,-4.0496,-4.0496,-4.0496,-4.0496,-4.0496,-4.0496,-4.0496,-4.0496,-4.0496,-4.043,-4.033,-4.033,-4.0258,-4.0091,-3.9615,-3.9276,-3.9099,-3.8971,-3.8826,-3.8707,-3.8707,-3.8707,-3.8707,-3.8707,-3.8707,-3.8744,-3.9184,-3.9368,-3.9423,-3.9882,-4.0031,-3.9976,-3.9533,-3.9074,-3.8707,-3.8707,-3.8707,-3.8707,-3.8707,-3.8546,-3.8283,-3.798,-3.7596,-3.7135,-3.6542,-3.6224,-3.5968,-3.5672,-3.56,-3.5515,-3.5199,-3.4878,-3.4298,-3.3152,-3.2598,-3.2209,-3.187,-3.1481,-3.119,-3.119,-3.119,-3.119,-3.119,-3.119,-3.119,-3.119,-3.119,-3.119,-3.119,-3.119,-3.119,-3.119,-3.119,-3.119,-3.119,-3.119,-3.119,-3.119,-3.119,-3.119,-3.119,-3.119,-3.119,-3.119,-3.119,-3.119,-3.119,-3.119,-3.119,-3.119,-3.119,-3.119,-3.1171,-3.0898,-3.0801,-3.0777,-3.0497,-3.0414,-3.0356,-3.0038,-3.0087,-3.0253]},{"header":{"parameterUnit":"m.s-1","parameterCategory":1,"la1":30.6,"la2":28.766,"lo1":-90.7593,"lo2":-88.6598,"dy":0.0162,"dx":0.0183,"nx":116,"ny":114,"refTime":"2024-06-07T12:00:00:Z","depth":0,"parameterNumber":3,"parameterNumberName":"V-component_of_WINDS"},"data":[0.0,0.0,0.0,0.0,0.0,0.0,0.0,0.0,0.0,0.0,0.0,0.0,0.0,0.0,0.0,0.0,0.0,0.0,0.0,0.0,0.0,0.0,0.0,0.0,0.0,0.0,0.0,0.0,0.0,0.0,0.0,0.0,0.0,0.0,0.0,0.0,0.0,0.0,0.0,0.0,0.0,0.0,0.0,0.0,0.0,0.0,0.0,0.0,0.0,0.0,0.0,0.0,0.0,0.0,0.0,0.0,0.0,0.0,0.0,0.0,0.0,0.0,0.0,0.0,0.0,0.0,0.0,0.0,0.0,0.0,0.0,0.0,0.0,0.0,0.0,0.0,0.0,0.0,0.0,0.0,0.0,0.0,0.0,0.0,0.0,0.0,0.0,0.0,0.0,0.0,0.0,0.0,0.0,0.0,0.0,0.0,0.0,0.0,0.0,0.0,0.0,0.0,0.0,0.0,0.0,0.0,0.0,0.0,0.0,0.0,0.0,0.0,0.0,0.0,0.0,0.0,0.0,0.0,0.0,0.0,0.0,0.0,0.0,0.0,0.0,0.0,0.0,0.0,0.0,0.0,0.0,0.0,0.0,0.0,0.0,0.0,0.0,0.0,0.0,0.0,0.0,0.0,0.0,0.0,0.0,0.0,0.0,0.0,0.0,0.0,0.0,0.0,0.0,0.0,0.0,0.0,0.0,0.0,0.0,0.0,0.0,0.0,0.0,0.0,0.0,0.0,0.0,0.0,0.0,0.0,0.0,0.0,0.0,0.0,0.0,0.0,0.0,0.0,0.0,0.0,0.0,0.0,0.0,0.0,0.0,0.0,0.0,0.0,0.0,0.0,0.0,0.0,0.0,0.0,0.0,0.0,0.0,0.0,0.0,0.0,0.0,0.0,0.0,0.0,0.0,0.0,0.0,0.0,0.0,0.0,0.0,0.0,0.0,0.0,0.0,0.0,0.0,0.0,0.0,0.0,0.0,0.0,0.0,0.0,0.0,0.0,0.0,0.0,0.0,0.0,0.0,0.0,0.0,0.0,0.0,0.0,0.0,0.0,0.0,0.0,0.0,0.0,0.0,0.0,0.0,0.0,0.0,0.0,0.0,0.0,0.0,0.0,0.0,0.0,0.0,0.0,0.0,0.0,0.0,0.0,0.0,0.0,0.0,0.0,0.0,0.0,0.0,0.0,0.0,0.0,0.0,0.0,0.0,0.0,0.0,0.0,0.0,0.0,0.0,0.0,0.0,0.0,0.0,0.0,0.0,0.0,0.0,0.0,0.0,0.0,0.0,0.0,0.0,0.0,0.0,0.0,0.0,0.0,0.0,0.0,0.0,0.0,0.0,0.0,0.0,0.0,0.0,0.0,0.0,0.0,0.0,0.0,0.0,0.0,0.0,0.0,0.0,0.0,0.0,0.0,0.0,0.0,0.0,0.0,0.0,0.0,0.0,0.0,0.0,0.0,0.0,0.0,0.0,0.0,0.0,0.0,0.0,0.0,0.0,0.0,0.0,0.0,0.0,0.0,0.0,0.0,0.0,0.0,0.0,0.0,0.0,0.0,0.0,0.0,0.0,0.0,0.0,0.0,0.0,0.0,0.0,0.0,0.0,0.0,0.0,0.0,0.0,0.0,0.0,0.0,0.0,0.0,0.0,0.0,0.0,0.0,0.0,0.0,0.0,0.0,0.0,0.0,0.0,0.0,0.0,0.0,0.0,0.0,0.0,0.0,0.0,0.0,0.0,0.0,0.0,0.0,0.0,0.0,0.0,0.0,0.0,0.0,0.0,0.0,0.0,0.0,0.0,0.0,0.0,0.0,0.0,0.0,0.0,0.0,0.0,0.0,0.0,0.0,0.0,0.0,0.0,0.0,0.0,0.0,0.0,0.0,0.0,0.0,0.0,0.0,0.0,0.0,0.0,0.0,0.0,0.0,0.0,0.0,0.0,0.0,0.0,0.0,0.0,0.0,0.0,0.0,0.0,0.0,0.0,0.0,0.0,0.0,0.0,0.0,0.0,0.0,0.0,0.0,0.0,0.0,0.0,0.0,0.0,0.0,0.0,0.0,0.0,0.0,0.0,0.0,0.0,0.0,0.0,0.0,0.0,0.0,0.0,0.0,0.0,0.0,0.0,0.0,0.0,0.0,0.0,0.0,0.0,0.0,0.0,0.0,0.0,0.0,0.0,0.0,0.0,0.0,0.0,0.0,0.0,0.0,0.0,0.0,0.0,0.0,0.0,0.0,0.0,0.0,0.0,0.0,0.0,0.0,0.0,0.0,0.0,0.0,0.0,0.0,0.0,0.0,0.0,0.0,0.0,0.0,0.0,0.0,0.0,0.0,0.0,0.0,0.0,0.0,0.0,0.0,0.0,0.0,0.0,0.0,0.0,0.0,0.0,0.0,0.0,0.0,0.0,0.0,0.0,0.0,0.0,0.0,0.0,0.0,0.0,0.0,0.0,0.0,0.0,0.0,0.0,0.0,0.0,0.0,0.0,0.0,0.0,0.0,0.0,0.0,0.0,0.0,0.0,0.0,0.0,0.0,0.0,0.0,0.0,0.0,0.0,0.0,0.0,0.0,0.0,0.0,0.0,0.0,0.0,0.0,0.0,0.0,0.0,0.0,0.0,0.0,0.0,0.0,0.0,0.0,0.0,0.0,0.0,0.0,0.0,0.0,0.0,0.0,0.0,0.0,0.0,0.0,0.0,0.0,0.0,0.0,0.0,0.0,0.0,0.0,0.0,0.0,0.0,0.0,0.0,0.0,0.0,0.0,0.0,0.0,0.0,0.0,0.0,0.0,0.0,0.0,0.0,0.0,0.0,0.0,0.0,0.0,0.0,0.0,0.0,0.0,0.0,0.0,0.0,0.0,0.0,0.0,0.0,0.0,0.0,0.0,0.0,0.0,0.0,0.0,0.0,0.0,0.0,0.0,0.0,0.0,0.0,0.0,0.0,0.0,0.0,0.0,0.0,0.0,0.0,0.0,0.0,0.0,0.0,0.0,0.0,0.0,0.0,0.0,0.0,0.0,0.0,0.0,0.0,0.0,0.0,0.0,0.0,0.0,0.0,0.0,0.0,0.0,0.0,0.0,0.0,0.0,0.0,0.0,0.0,0.0,0.0,0.0,0.0,0.0,0.0,0.0,0.0,0.0,0.0,0.0,0.0,0.0,0.0,0.0,0.0,0.0,0.0,0.0,0.0,0.0,0.0,0.0,0.0,0.0,0.0,0.0,0.0,0.0,0.0,0.0,0.0,0.0,0.0,0.0,0.0,0.0,0.0,0.0,0.0,0.0,0.0,0.0,0.0,0.0,0.0,0.0,0.0,0.0,0.0,0.0,0.0,0.0,0.0,0.0,0.0,0.0,0.0,0.0,0.0,0.0,0.0,0.0,0.0,0.0,0.0,0.0,0.0,0.0,0.0,0.0,0.0,0.0,0.0,0.0,0.0,0.0,0.0,0.0,0.0,0.0,0.0,0.0,0.0,0.0,0.0,0.0,0.0,0.0,0.0,0.0,0.0,0.0,0.0,0.0,0.0,0.0,0.0,0.0,0.0,0.0,0.0,0.0,0.0,0.0,0.0,0.0,0.0,0.0,0.0,0.0,0.0,0.0,0.0,0.0,0.0,0.0,0.0,0.0,0.0,0.0,0.0,0.0,0.0,0.0,0.0,0.0,0.0,0.0,0.0,0.0,0.0,0.0,0.0,0.0,0.0,0.0,0.0,0.0,0.0,0.0,0.0,0.0,0.0,0.0,0.0,0.0,0.0,0.0,0.0,0.0,0.0,0.0,0.0,0.0,0.0,0.0,0.0,0.0,0.0,0.0,0.0,0.0,0.0,0.0,0.0,0.0,0.0,0.0,0.0,0.0,0.0,0.0,0.0,0.0,0.0,0.0,0.0,0.0,0.0,0.0,0.0,0.0,0.0,0.0,0.0,0.0,0.0,0.0,0.0,0.0,0.0,0.0,0.0,0.0,0.0,0.0,0.0,0.0,0.0,0.0,0.0,0.0,0.0,0.0,0.0,0.0,0.0,0.0,0.0,0.0,0.0,0.0,0.0,0.0,0.0,0.0,0.0,0.0,0.0,0.0,0.0,0.0,0.0,0.0,0.0,0.0,0.0,0.0,0.0,0.0,0.0,0.0,0.0,0.0,0.0,0.0,0.0,0.0,0.0,0.0,0.0,0.0,0.0,0.0,0.0,0.0,0.0,0.0,0.0,0.0,0.0,0.0,0.0,0.0,0.0,0.0,0.0,0.0,0.0,0.0,0.0,0.0,0.0,0.0,0.0,0.0,0.0,0.0,0.0,0.0,0.0,0.0,0.0,0.0,0.0,0.0,0.0,0.0,0.0,0.0,0.0,0.0,0.0,0.0,0.0,0.0,0.0,0.0,0.0,0.0,0.0,0.0,0.0,0.0,0.0,0.0,0.0,0.0,0.0,0.0,0.0,0.0,0.0,0.0,0.0,0.0,0.0,0.0,0.0,0.0,0.0,0.0,0.0,0.0,0.0,0.0,0.0,0.0,0.0,0.0,0.0,0.0,0.0,0.0,0.0,0.0,0.0,0.0,0.0,0.0,0.0,0.0,0.0,0.0,0.0,0.0,0.0,0.0,0.0,0.0,0.0,0.0,0.0,0.0,0.0,0.0,0.0,0.0,0.0,0.0,0.0,0.0,0.0,0.0,0.0,0.0,0.0,0.0,0.0,0.0,0.0,0.0,0.0,0.0,0.0,0.0,0.0,0.0,0.0,0.0,0.0,0.0,0.0,0.0,0.0,0.0,0.0,0.0,0.0,0.0,0.0,0.0,0.0,0.0,0.0,0.0,0.0,0.0,0.0,0.0,0.0,0.0,0.0,0.0,0.0,0.0,0.0,0.0,0.0,0.0,0.0,0.0,0.0,0.0,0.0,0.0,0.0,0.0,0.0,0.0,0.0,0.0,0.0,0.0,0.0,0.0,0.0,0.0,0.0,0.0,0.0,0.0,0.0,0.0,0.0,0.0,0.0,0.0,0.0,0.0,0.0,0.0,0.0,0.0,0.0,0.0,0.0,0.0,0.0,0.0,0.0,0.0,0.0,0.0,0.0,0.0,0.0,0.0,0.0,0.0,0.0,0.0,0.0,0.0,0.0,0.0,0.0,0.0,0.0,0.0,0.0,0.0,0.0,0.0,0.0,0.0,0.0,0.0,0.0,0.0,0.0,0.0,0.0,0.0,0.0,0.0,0.0,0.0,0.0,0.0,0.0,0.0,0.0,0.0,0.0,0.0,0.0,0.0,0.0,0.0,0.0,0.0,0.0,0.0,0.0,0.0,0.0,0.0,0.0,0.0,0.0,0.0,0.0,0.0,0.0,0.0,0.0,0.0,0.0,0.0,0.0,0.0,0.0,0.0,0.0,0.0,0.0,0.0,0.0,0.0,0.0,0.0,0.0,0.0,0.0,0.0,0.0,0.0,0.0,0.0,0.0,0.0,0.0,0.0,0.0,0.0,0.0,0.0,0.0,0.0,0.0,0.0,0.0,0.0,0.0,0.0,0.0,0.0,0.0,0.0,0.0,0.0,0.0,0.0,0.0,0.0,0.0,0.0,0.0,0.0,0.0,0.0,0.0,0.0,0.0,0.0,0.0,0.0,0.0,0.0,0.0,0.0,0.0,0.0,0.0,0.0,0.0,0.0,0.0,0.0,0.0,0.0,0.0,0.0,0.0,0.0,0.0,0.0,0.0,0.0,0.0,0.0,0.0,0.0,0.0,0.0,0.0,0.0,0.0,0.0,0.0,0.0,0.0,0.0,0.0,0.0,0.0,0.0,0.0,0.0,0.0,0.0,0.0,0.0,0.0,0.0,0.0,0.0,0.0,0.0,0.0,0.0,0.0,0.0,0.0,0.0,0.0,0.0,0.0,0.0,0.0,0.0,0.0,0.0,0.0,0.0,0.0,0.0,0.0,0.0,0.0,0.0,0.0,0.0,0.0,0.0,0.0,0.0,0.0,0.0,0.0,0.0,0.0,0.0,0.0,0.0,0.0,0.0,0.0,0.0,0.0,0.0,0.0,0.0,0.0,0.0,0.0,0.0,0.0,0.0,0.0,0.0,0.0,0.0,0.0,0.0,-2.2666,0.0,0.0,0.0,0.0,0.0,0.0,0.0,0.0,0.0,0.0,0.0,0.0,0.0,0.0,0.0,0.0,0.0,0.0,0.0,0.0,0.0,0.0,0.0,0.0,-0.8897,-0.893,-0.9006,-0.9011,-0.9043,-0.9099,0.0,0.0,0.0,0.0,0.0,-0.9189,-0.9257,-0.9676,-1.0453,-1.0776,-1.16,-1.2873,-1.325,-1.286,-1.1841,0.0,0.0,0.0,0.0,0.0,0.0,0.0,0.0,0.0,0.0,0.0,0.0,0.0,0.0,0.0,0.0,0.0,0.0,0.0,0.0,0.0,0.0,0.0,0.0,0.0,0.0,0.0,0.0,0.0,0.0,0.0,0.0,0.0,0.0,0.0,0.0,0.0,0.0,0.0,0.0,0.0,0.0,0.0,0.0,0.0,0.0,0.0,0.0,0.0,0.0,0.0,0.0,0.0,0.0,0.0,0.0,0.0,0.0,0.0,0.0,0.0,0.0,0.0,0.0,0.0,0.0,0.0,0.0,0.0,0.0,0.0,-2.5731,0.0,0.0,0.0,0.0,0.0,0.0,0.0,0.0,0.0,0.0,0.0,0.0,0.0,0.0,0.0,0.0,0.0,0.0,0.0,0.0,0.0,-0.8897,-0.8897,-0.8897,-0.8948,-0.9078,-0.8982,-0.8965,-0.9078,-0.8965,0.0,0.0,0.0,-0.9318,-0.9507,-0.9473,-1.0212,-1.1735,-1.1974,-1.3431,-1.6038,-1.7361,-1.6979,-1.5193,-1.5144,0.0,0.0,0.0,0.0,0.0,0.0,0.0,0.0,0.0,0.0,0.0,0.0,0.0,0.0,0.0,0.0,0.0,0.0,0.0,0.0,0.0,0.0,0.0,0.0,0.0,0.0,0.0,0.0,0.0,0.0,0.0,0.0,0.0,0.0,0.0,0.0,0.0,0.0,0.0,0.0,0.0,0.0,0.0,0.0,0.0,0.0,0.0,0.0,0.0,0.0,0.0,0.0,0.0,0.0,0.0,0.0,0.0,0.0,0.0,0.0,0.0,0.0,0.0,-3.3348,-3.4156,-3.4651,-3.4651,-3.5092,-3.5665,-3.2344,-3.0858,-3.0668,0.0,0.0,0.0,0.0,0.0,0.0,0.0,0.0,0.0,0.0,0.0,0.0,0.0,0.0,0.0,0.0,0.0,0.0,0.0,0.0,-0.8897,-0.8897,-0.8897,-0.9162,-0.9804,-0.9275,-0.9179,-0.9821,-0.9258,0.0,0.0,-0.8952,-0.9396,-1.031,-1.0173,-1.0948,-1.2716,-1.4394,-1.6455,-1.8857,-1.9014,-1.9256,-1.9506,-1.8207,-1.7172,-1.6321,0.0,0.0,0.0,0.0,0.0,0.0,0.0,0.0,0.0,0.0,0.0,0.0,0.0,0.0,0.0,0.0,0.0,0.0,0.0,0.0,0.0,0.0,0.0,0.0,0.0,0.0,0.0,0.0,0.0,0.0,0.0,0.0,0.0,0.0,0.0,0.0,0.0,0.0,0.0,0.0,0.0,-1.8775,-1.9887,0.0,0.0,0.0,0.0,0.0,0.0,0.0,0.0,0.0,0.0,0.0,0.0,0.0,-3.0944,-3.1959,-3.489,-3.6152,-3.5679,-3.7881,-3.8634,-3.8046,-3.8046,-3.8487,-3.9221,-3.8689,0.0,-3.3256,-3.2228,0.0,0.0,0.0,0.0,0.0,0.0,0.0,0.0,0.0,0.0,0.0,0.0,0.0,0.0,0.0,0.0,0.0,0.0,0.0,0.0,0.0,-0.9884,-1.0443,-1.1224,-1.1374,-1.1391,-1.1299,-1.0578,-0.9989,-0.9641,-0.9629,-0.9853,-1.0313,-1.1058,-1.2623,-1.5046,-1.7885,-1.984,-2.0928,-2.1493,-2.2043,-2.2506,-2.1826,-2.0369,-1.8306,-1.6749,0.0,0.0,0.0,0.0,0.0,0.0,0.0,0.0,0.0,0.0,0.0,0.0,0.0,0.0,0.0,0.0,0.0,0.0,0.0,0.0,0.0,0.0,0.0,0.0,0.0,0.0,0.0,0.0,0.0,0.0,0.0,0.0,0.0,0.0,0.0,0.0,0.0,0.0,0.0,-1.8434,-2.1005,-2.1813,-2.229,-2.2263,0.0,0.0,0.0,0.0,0.0,0.0,0.0,0.0,0.0,-3.3036,-3.3788,-3.4963,-3.6688,-3.812,-3.9129,-3.968,-4.0744,-4.1295,-4.1405,-4.1405,-4.1589,-4.1936,-4.1936,-4.0653,-3.8414,-3.6248,-3.4468,-3.2981,0.0,0.0,0.0,0.0,-3.2069,-3.2583,0.0,0.0,0.0,0.0,0.0,0.0,0.0,0.0,0.0,0.0,0.0,0.0,-1.0193,-1.0961,-1.1806,-1.2787,-1.3185,-1.3252,-1.2889,-1.1756,-1.0992,-1.0756,-1.035,-1.0449,-1.108,-1.2919,-1.5104,-1.7676,-2.0437,-2.2048,-2.257,-2.3295,-2.3872,-2.4291,-2.4291,-2.298,-2.0667,-1.9099,-1.7715,-1.6406,0.0,0.0,0.0,0.0,0.0,0.0,0.0,0.0,0.0,0.0,0.0,0.0,0.0,0.0,0.0,0.0,0.0,0.0,0.0,0.0,0.0,0.0,0.0,0.0,0.0,0.0,0.0,0.0,0.0,0.0,0.0,0.0,0.0,0.0,0.0,0.0,0.0,-2.0647,-2.2932,-2.3547,-2.4685,-2.4961,0.0,0.0,0.0,0.0,0.0,0.0,-3.1335,-3.317,-3.511,-3.7147,-3.7624,-3.8689,-4.0487,-4.0708,-4.1423,-4.2598,-4.2818,-4.3112,-4.3497,-4.3937,-4.3993,-4.3809,-4.4011,-4.3773,-4.2965,-3.9753,-3.7936,-3.7074,-3.5624,-3.5055,-3.5128,-3.572,-3.6087,-3.6509,0.0,0.0,0.0,0.0,0.0,0.0,0.0,0.0,0.0,0.0,0.0,-1.0227,-1.0961,-1.1756,-1.2821,-1.4267,-1.3768,-1.3676,-1.4351,-1.2331,-1.1424,-1.2152,-1.0791,-1.1114,-1.3469,-1.6331,-1.8635,-2.0316,-2.0926,-2.2114,-2.3804,-2.3537,-2.3801,-2.4494,-2.4494,-2.4279,-2.3858,-2.2254,-2.1044,-2.0028,-1.7646,0.0,0.0,0.0,0.0,0.0,0.0,0.0,0.0,0.0,0.0,0.0,0.0,0.0,0.0,0.0,0.0,0.0,0.0,0.0,0.0,0.0,0.0,0.0,0.0,0.0,0.0,0.0,0.0,0.0,0.0,0.0,0.0,0.0,0.0,0.0,0.0,0.0,0.0,-2.5264,-2.7346,0.0,0.0,0.0,0.0,-2.8822,-3.1696,-3.388,-3.4711,-3.7059,-3.8799,-3.968,-4.1203,-4.2066,-4.2176,-4.2928,-4.3368,-4.346,-4.4213,-4.4195,-4.3551,-4.5076,-4.5369,-4.4673,-4.5443,-4.5755,-4.5461,-4.2249,-4.0451,-3.9625,-3.8781,-3.845,-3.8469,-3.8505,-3.9001,-3.9662,0.0,0.0,0.0,0.0,0.0,-0.8897,-0.8897,-0.8897,-0.8897,-0.8897,-0.954,-1.048,-1.1739,-1.299,-1.431,-1.5791,-1.6103,-1.6136,-1.5927,-1.4276,-1.3633,-1.4394,-1.3439,-1.421,-1.699,-1.854,-1.9858,-2.0947,-2.2283,-2.3371,-2.4229,-2.4816,-2.5354,-2.5852,-2.5852,-2.5814,-2.5609,-2.3349,-2.1853,-2.0898,-1.9564,-1.7836,0.0,0.0,0.0,0.0,0.0,0.0,0.0,0.0,0.0,0.0,0.0,0.0,0.0,0.0,0.0,0.0,0.0,0.0,0.0,0.0,0.0,0.0,0.0,0.0,0.0,0.0,0.0,0.0,0.0,0.0,0.0,0.0,0.0,0.0,0.0,0.0,0.0,-2.8429,-3.0161,0.0,0.0,-3.1531,-3.2852,-3.3642,-3.5716,-3.7533,-3.8857,-4.0249,-4.1387,-4.2176,-4.2763,-4.3314,-4.3846,-4.414,-4.4525,-4.5039,-4.5333,-4.5314,-4.5057,-4.5645,-4.5736,-4.5498,-4.5773,-4.5902,-4.581,-4.4654,-4.3718,-4.291,-4.2103,-4.1791,-4.1791,-4.1791,-4.1956,-4.2229,0.0,0.0,0.0,0.0,-0.8771,-0.8858,-0.8891,-0.8897,-0.8999,-0.9241,-1.0149,-1.1342,-1.2889,-1.436,-1.5731,-1.6959,-1.7523,-1.758,-1.7111,-1.5697,-1.5206,-1.5944,-1.5737,-1.6752,-1.9232,-2.0027,-2.0906,-2.1935,-2.314,-2.4099,-2.4815,-2.5526,-2.614,-2.6639,-2.6639,-2.6559,-2.6315,-2.4572,-2.3546,-2.3004,-2.197,-2.0522,-1.8834,0.0,0.0,0.0,0.0,0.0,0.0,0.0,0.0,0.0,0.0,0.0,0.0,0.0,0.0,0.0,0.0,0.0,0.0,0.0,0.0,0.0,0.0,0.0,0.0,0.0,0.0,0.0,0.0,0.0,0.0,0.0,0.0,0.0,0.0,0.0,-3.0509,-3.1329,-3.3091,-3.4156,-3.3867,-3.5073,-3.6321,-3.7422,-3.9019,-4.0377,-4.146,-4.2268,-4.3075,-4.3883,-4.3901,-4.4287,-4.5112,-4.5112,-4.5369,-4.5902,-4.6177,-4.6159,-4.592,-4.6452,-4.6562,-4.6324,-4.6599,-4.6709,-4.6691,-4.6416,-4.5993,-4.5425,-4.4617,-4.4322,-4.4322,-4.4322,-4.4322,-4.4268,0.0,0.0,0.0,-0.8663,-0.8699,-0.8736,-0.8875,-0.8897,-0.9162,-0.9906,-1.1342,-1.2855,-1.4334,-1.5825,-1.6993,-1.7732,-1.78,-1.78,-1.78,-1.6441,-1.5977,-1.6749,-1.7523,-1.8611,-2.0035,-2.0856,-2.1969,-2.3393,-2.3444,-2.422,-2.5625,-2.5642,-2.6031,-2.6741,-2.6741,-2.653,-2.6169,-2.6169,-2.6335,-2.6507,-2.4904,-2.3776,-2.2859,0.0,0.0,0.0,0.0,0.0,0.0,0.0,0.0,0.0,0.0,0.0,0.0,0.0,0.0,0.0,0.0,0.0,0.0,0.0,0.0,0.0,0.0,0.0,0.0,0.0,0.0,0.0,0.0,0.0,0.0,0.0,0.0,0.0,-2.7952,-3.0723,-3.3041,-3.3862,-3.6134,-3.7327,-3.656,-3.8597,-3.9989,-4.001,-4.146,-4.2341,-4.2341,-4.3094,-4.3883,-4.4673,-4.4709,-4.5131,-4.592,-4.5938,-4.5957,-4.5975,-4.6764,-4.6727,-4.603,-4.759,-4.7865,-4.7186,-4.7957,-4.8306,-4.8251,-4.7461,-4.7131,-4.7058,-4.6214,-4.5902,-4.5902,-4.5902,-4.5902,-4.5792,0.0,0.0,-0.8253,-0.8438,-0.8598,-0.8736,-0.8875,-0.8897,-0.9162,-0.9906,-1.1342,-1.2855,-1.4334,-1.5825,-1.6993,-1.7732,-1.78,-1.78,-1.78,-1.6915,-1.6959,-1.8245,-2.0078,-2.1248,-2.1654,-2.2412,-2.2987,-2.3393,-2.4475,-2.5343,-2.6061,-2.658,-2.7095,-2.756,-2.756,-2.7514,-2.7408,-2.7408,-2.7469,-2.7414,-2.6056,-2.4847,-2.3768,0.0,0.0,0.0,0.0,0.0,0.0,0.0,0.0,0.0,0.0,0.0,0.0,0.0,0.0,0.0,0.0,0.0,0.0,0.0,0.0,0.0,0.0,0.0,0.0,0.0,0.0,0.0,0.0,0.0,0.0,0.0,0.0,-3.128,-3.128,-3.4082,-3.645,-3.7257,-3.8982,-4.0249,-4.0616,-4.124,-4.1882,-4.2486,-4.291,-4.3167,-4.3167,-4.3938,-4.447,-4.4691,-4.5278,-4.5957,-4.6746,-4.6764,-4.7058,-4.7645,-4.7846,-4.7865,-4.7664,-4.8104,-4.8196,-4.7994,-4.8214,-4.8306,-4.8288,-4.8067,-4.7957,-4.7828,-4.6434,-4.5902,-4.5902,-4.5902,-4.5902,-4.5865,0.0,-0.8049,-0.8072,-0.824,-0.8364,-0.8538,-0.8783,-0.8818,-0.921,-1.0322,-1.1536,-1.2855,-1.4334,-1.5544,-1.6417,-1.6847,-1.7168,-1.7202,-1.6898,-1.705,-1.7975,-1.9786,-2.1126,-2.2124,-2.275,-2.3173,-2.3697,-2.4323,-2.5186,-2.589,-2.6433,-2.6862,-2.7178,-2.7411,-2.7411,-2.757,-2.7849,-2.7849,-2.7958,-2.8037,-2.7296,-2.6383,-2.5379,-2.4556,-2.3561,-2.241,-2.1332,-2.0488,-1.9839,-1.9378,0.0,0.0,0.0,0.0,0.0,0.0,0.0,0.0,0.0,0.0,0.0,0.0,0.0,0.0,0.0,0.0,0.0,0.0,0.0,0.0,0.0,0.0,0.0,0.0,-3.2302,-3.478,-3.511,-3.6798,-3.8542,-4.0029,-4.1038,-4.1919,-4.2708,-4.28,-4.3002,-4.346,-4.3809,-4.3993,-4.3993,-4.4764,-4.5369,-4.5682,-4.6159,-4.6782,-4.759,-4.759,-4.7828,-4.8306,-4.8306,-4.8306,-4.8306,-4.8306,-4.8508,0.0,-4.8471,-4.8508,-4.882,-4.8453,-4.8306,0.0,0.0,0.0,0.0,0.0,-4.6911,-4.6856,0.0,-0.7983,-0.7941,-0.8077,-0.8095,-0.8238,-0.8634,-0.8699,-0.9247,-1.0778,-1.1756,-1.2838,-1.4216,-1.5105,-1.5629,-1.5723,-1.6316,-1.6485,-1.6001,-1.7287,-1.8995,-2.1106,-2.1275,-2.1986,-2.3359,-2.3477,-2.4205,-2.5592,-2.5677,-2.6065,-2.6691,-2.6691,-2.6691,-2.6691,-2.6793,-2.7199,-2.7807,-2.7908,-2.8135,-2.8471,-2.8367,-2.7859,-2.7065,-2.6357,-2.5828,-2.5379,-2.4624,-2.327,-2.1724,-2.0902,0.0,0.0,0.0,0.0,0.0,0.0,0.0,0.0,0.0,0.0,0.0,0.0,0.0,0.0,0.0,0.0,0.0,0.0,0.0,0.0,0.0,0.0,0.0,0.0,-3.5161,-3.7988,-3.8964,-3.9111,-3.99,-4.2047,-4.2378,-4.2708,-4.3441,-4.3515,-4.3551,-4.3643,-4.4305,-4.4745,-4.4837,0.0,0.0,0.0,0.0,-4.7571,-4.8306,-4.8306,-4.8361,-4.8453,-4.8453,-4.8489,-4.8581,-4.8581,-4.9003,-4.9702,-4.8912,-4.9022,-4.9684,-4.8893,-4.8526,-4.8434,-4.8343,-4.8306,-4.8306,-4.8306,-4.8306,-4.8214,0.0,-0.7921,-0.7941,-0.8077,-0.8095,-0.8238,-0.8634,-0.8699,-0.9074,-1.0072,-1.1434,-1.2643,-1.3523,-1.481,-1.5842,-1.6434,-1.6631,-1.7145,-1.8183,0.0,-2.0048,-2.1156,-2.1769,-2.2496,-2.3376,-2.3983,-2.4728,-2.5592,-2.6201,-2.6556,-2.6691,-2.6691,-2.6691,-2.6725,-2.7317,-2.7672,-2.7841,-2.8484,-2.8809,-2.883,-2.8184,-2.7466,-2.6783,-2.661,-2.6279,-2.5827,-2.541,-2.5225,-2.505,-2.4234,-2.3193,-2.2091,-2.1321,0.0,0.0,0.0,0.0,0.0,0.0,0.0,0.0,0.0,0.0,0.0,0.0,0.0,0.0,0.0,0.0,0.0,0.0,0.0,0.0,-3.4926,-3.711,-3.9203,-4.1313,-4.1607,-4.1772,-4.2249,-4.2873,-4.3331,-4.3478,-4.3515,-4.3754,-4.4415,-4.4617,-4.4984,-4.5626,-4.6415,0.0,-4.7094,-4.7718,-4.8141,-4.8306,-4.8306,-4.8655,-4.9353,0.0,0.0,-5.0325,-5.0325,-5.0417,-5.0563,-5.0398,-5.0417,-5.0545,-5.0398,-4.9921,-4.928,-4.8563,-4.8306,-4.8306,-4.8306,-4.8306,-4.8288,-0.7764,-0.7899,-0.7928,-0.799,-0.8004,-0.8128,-0.8498,-0.8548,-0.8872,-0.9782,-1.0636,-1.1405,-1.2085,-1.2865,-1.3506,-1.3862,-1.4599,-1.613,0.0,-1.9249,-2.0145,-2.1684,-2.2107,-2.2649,-2.3376,-2.4118,-2.4863,-2.5592,-2.6336,-2.6691,-2.6691,-2.6691,-2.6691,-2.6725,-2.7469,-2.801,-2.845,-2.9228,-2.955,-2.9482,-2.8704,-2.7947,-2.7222,-2.7068,-2.6982,-2.6889,-2.6309,-2.5879,-2.5501,-2.4843,-2.4151,-2.3462,-2.2733,-2.2129,-2.144,0.0,0.0,0.0,0.0,0.0,0.0,0.0,0.0,0.0,0.0,0.0,0.0,0.0,0.0,-2.8539,0.0,0.0,-3.5257,-3.7698,-3.9441,-4.0928,-4.2139,-4.2653,-4.2892,-4.2892,-4.3259,-4.3515,-4.3515,-4.3515,-4.3828,-4.4654,-4.5076,-4.5663,-4.6471,-4.7259,-4.77,-4.77,-4.8104,-4.8306,-4.8306,-4.8728,-4.9169,-4.961,-5.0014,-5.0398,-5.0802,-5.0802,-5.1022,-5.1371,-5.0967,-5.1041,-5.1371,-5.0967,-5.0563,-5.016,-4.9719,-4.904,-4.8306,-4.8306,-4.8306,-4.8306,-0.7764,-0.7899,-0.7899,-0.7899,-0.7899,-0.7998,-0.8296,-0.8374,-0.8676,-0.9435,-0.9801,-1.0185,-1.0648,-1.092,-1.1221,-1.1526,-1.2931,0.0,0.0,-1.9029,-2.0078,-2.2212,-2.2296,-2.2716,-2.3579,-2.4203,-2.4931,-2.5812,-2.6404,-2.6691,-2.6691,-2.6691,-2.6691,-2.6725,-2.7469,-2.8145,-2.884,-2.9719,-3.0023,-2.9837,-2.9247,-2.8518,-2.7757,-2.7343,-2.7424,-2.7677,-2.6891,-2.6093,-2.5331,-2.4579,-2.4177,-2.3903,-2.337,-2.3189,-2.2958,-2.1777,-2.081,0.0,0.0,0.0,0.0,0.0,0.0,0.0,0.0,0.0,-2.7989,-2.9592,-3.0564,-3.2014,-3.4949,-3.6193,-3.7551,-3.9955,-4.1442,-4.2359,-4.2506,-4.3075,-4.3515,-4.3515,-4.3515,-4.3515,-4.3515,-4.3515,-4.3901,-4.4874,-4.5535,-4.6324,-4.7278,-4.7957,-4.8306,-4.8306,-4.8306,-4.8379,-4.8545,-4.9262,-4.9757,-5.0069,-5.071,-5.1114,-5.1279,-5.1279,-5.1628,-5.2197,-5.1555,-5.1628,-5.2179,-5.1536,-5.1169,-5.1041,-5.1041,-5.0105,-4.8802,-4.8802,-4.8691,-4.8545,0.0,-0.7899,-0.7899,-0.7899,-0.7899,-0.7956,-0.8111,-0.828,-0.8431,-0.8537,-0.9398,-0.9977,-0.9924,-1.0635,-1.1645,-1.3024,-1.4505,0.0,-1.8741,-1.9507,-2.0606,-2.2229,-2.2296,-2.2953,-2.4355,-2.4457,-2.5185,-2.6573,-2.6657,-2.6691,-2.6691,-2.6691,-2.6691,-2.6725,-2.7469,-2.7858,-2.8027,-2.948,-2.9719,-2.9128,-2.9027,-2.8518,-2.7722,-2.7029,-2.702,-2.7276,-2.6529,-2.6416,-2.6379,-2.4901,-2.4233,-2.3903,-2.337,-2.3009,-2.2666,-2.2082,0.0,-2.1717,-2.1595,-2.2101,-2.3194,-2.5374,-2.5867,-2.6813,0.0,0.0,-3.1323,-3.2926,-3.3903,-3.5023,-3.6886,-3.7881,-3.9221,-4.1644,-4.2176,-4.2543,-4.3276,-4.3441,-4.3515,-4.3515,-4.3515,-4.3515,-4.3515,-4.3515,-4.4121,-4.5645,-4.5847,-4.6562,-4.8086,-4.8251,-4.8306,-4.8306,-4.8306,-4.8673,-4.9445,-4.9555,-5.0326,-5.172,-5.1811,-5.2234,-5.2928,-5.2928,-5.2965,-5.3078,-5.2986,-5.2965,-5.3078,-5.2986,-5.2509,-5.1867,-5.1867,-5.1316,-5.0527,-5.0527,-5.0068,-4.9463,0.0,-0.7899,-0.7899,-0.7899,-0.7899,-0.7949,-0.8084,-0.8171,-0.8234,-0.8234,-0.8711,-0.8997,-0.8838,-0.9347,-1.0333,-1.1925,-1.3456,-1.5436,-1.8099,-1.9355,-2.069,-2.2229,-2.2296,-2.2584,-2.3207,-2.4068,-2.4795,-2.5422,-2.6285,-2.6691,-2.6691,-2.6691,-2.6691,-2.6725,-2.7469,-2.7807,-2.7874,-2.8991,-2.9281,-2.8959,-2.8484,-2.8094,-2.7672,-2.6488,-2.6162,-2.6271,-2.5964,-2.5401,0.0,0.0,-2.4069,-2.3903,-2.337,-2.3423,-2.356,-2.2894,-2.288,0.0,-2.4446,-2.5458,0.0,0.0,-2.9222,-3.0538,-3.2071,-3.2769,-3.3539,-3.5151,-3.5999,-3.7092,-3.9203,-3.9882,-4.0728,0.0,-4.3002,-4.3112,-4.346,-4.3515,-4.3515,-4.3515,-4.3515,-4.3515,-4.3515,-4.3515,-4.4158,-4.5773,-4.5902,-4.6599,-4.8214,-4.8306,-4.8306,-4.8306,-4.8306,-4.8728,-4.9592,-5.005,-5.0857,-5.1995,-5.2472,-5.2876,-5.3185,-5.3185,-5.3185,-5.3185,-5.3185,-5.3185,-5.3185,-5.3185,-5.3004,-5.2711,-5.2711,-5.2491,-5.2087,-5.1151,-5.0582,-5.0288,0.0,-0.7899,-0.7899,-0.7899,-0.7899,-0.7927,-0.803,-0.8077,-0.809,-0.8043,-0.8263,-0.8348,-0.8198,-0.8495,-0.9334,-1.0908,-1.2298,-1.4353,-1.7304,-1.8882,-2.0386,-2.1938,-2.2178,-2.2398,-2.2598,-2.3646,-2.4406,-2.4795,-2.5862,-2.6488,-2.6691,-2.6691,-2.6691,-2.6708,-2.7249,-2.7503,-2.7536,-2.8332,-2.8553,-2.8333,-2.7942,-2.757,-2.708,-2.5998,-2.5355,-2.5,-2.5,-2.4306,-2.3369,-2.3213,-2.3319,-2.3421,-2.2838,-2.3193,-2.3753,-2.336,-2.3636,-2.4472,-2.629,0.0,0.0,-3.013,-3.178,-3.314,-3.3452,-3.4153,-3.5174,-3.6725,-3.7346,-3.8206,-4.018,-4.0711,0.0,-4.2911,-4.3086,-4.3142,-4.3444,-4.3375,-4.3321,-4.3479,-4.3515,-4.3515,-4.3515,-4.3515,-4.4158,-4.5773,-4.5902,-4.6599,-4.8214,-4.8306,-4.8306,-4.8306,-4.8526,-4.9058,-4.9903,-5.0729,-5.1536,-5.2344,-5.2931,-5.3185,-5.3185,-5.3185,-5.3185,-5.3185,-5.3185,-5.3185,-5.3185,-5.3185,-5.3185,-5.3185,-5.3185,-5.3185,-5.3057,-5.1903,-5.1316,-5.1132,0.0,0.0,-0.7899,-0.7899,-0.7899,-0.7899,-0.7906,-0.8016,-0.8049,-0.7913,-0.8198,-0.8403,-0.8387,-0.8573,-0.929,-1.0774,-1.1774,-1.3591,-1.6546,-1.811,-1.9616,-2.1156,-2.1921,-2.2632,-2.3342,-2.341,-2.4137,-2.5575,-2.5609,-2.5998,-2.6691,-2.6691,-2.6691,-2.6691,-2.6708,-2.6725,-2.6776,-2.7519,-2.7418,-2.6826,-2.7519,-2.6945,-2.566,-2.5625,-2.4712,-2.346,-2.346,-2.3427,-2.3173,-2.1762,-2.1762,-2.2223,-2.1488,-2.1776,0.0,-2.3185,-2.3896,0.0,0.0,0.0,-2.8648,-3.2112,-3.2997,-3.3647,-3.6018,-3.6202,-3.6238,-3.7592,-3.7892,-3.8162,-3.9011,-3.9734,-4.0691,-4.2127,-4.2057,-4.2246,-4.3339,-4.305,-4.292,-4.3427,-4.3515,-4.3515,0.0,-4.3515,-4.4158,-4.5773,-4.5902,-4.6599,-4.8214,-4.8306,-4.8306,-4.8306,-4.9114,-4.9939,-5.0765,-5.1555,-5.2362,-5.317,-5.3185,-5.3185,-5.3185,-5.3185,-5.3185,-5.3185,-5.3185,-5.3185,-5.3185,-5.3185,-5.3185,-5.3185,-5.3185,-5.3185,-5.3185,-5.3148,-5.2637,-5.1958,0.0,0.0,0.0,-0.7899,-0.7899,-0.7899,-0.7899,-0.7934,-0.7956,-0.7906,-0.7991,0.0,0.0,0.0,0.0,0.0,0.0,-1.2663,-1.4644,-1.6731,-1.8592,-2.014,-2.1076,-2.1921,-2.2649,-2.3139,-2.363,-2.4137,-2.4643,-2.4998,-2.5235,-2.5235,-2.5235,-2.5235,-2.5235,-2.5507,-2.5947,-2.571,-2.6031,-2.664,-2.5896,-2.5609,-2.5491,-2.4509,-2.3528,-2.2615,0.0,-2.1935,-2.1867,-2.136,-2.136,-2.1613,-2.1854,0.0,0.0,-2.378,-2.4812,-2.5997,0.0,0.0,-3.1255,-3.3211,-3.4091,-3.473,-3.5734,-3.6119,-3.6232,-3.6183,-3.6431,-3.6827,-3.7461,-3.8198,-3.9226,-4.0672,-4.1266,-4.1872,-4.283,-4.2462,-4.2444,-4.3392,-4.3196,0.0,0.0,0.0,0.0,-4.5755,-4.5567,-4.6047,-4.7625,-4.7715,-4.7715,-4.7715,-4.8514,-4.9536,-5.0802,-5.1591,-5.2399,-5.3185,-5.3185,-5.3185,-5.3185,-5.3185,-5.3185,-5.3185,-5.3185,-5.3185,-5.3185,-5.3185,-5.3185,-5.3185,-5.3185,-5.3185,-5.3185,-5.3185,-5.3041,-5.2803,0.0,0.0,0.0,0.0,0.0,0.0,0.0,0.0,0.0,0.0,0.0,0.0,0.0,0.0,0.0,0.0,0.0,0.0,-1.3284,-1.5103,-1.6884,-1.863,-1.9419,-2.0303,-2.1284,-2.1613,-2.2192,-2.3004,-2.3477,-2.3983,-2.4491,-2.4491,-2.4491,-2.4491,-2.4491,-2.4762,-2.5169,-2.4694,-2.5049,-2.5828,-2.488,-2.4458,-2.4308,-2.3376,-2.2378,0.0,-2.0649,-2.0378,-2.0378,-2.0378,-2.0733,-2.1224,0.0,0.0,-2.3274,-2.422,-2.5546,-2.724,-2.9695,-3.1306,-3.2711,-3.4431,-3.5098,-3.5433,-3.58,-3.5805,-3.5562,-3.501,-3.4923,-3.4977,-3.5027,-3.572,-3.6881,-3.885,-3.9494,-4.0372,-4.2125,-4.1874,-4.1919,-4.3087,-4.2714,0.0,0.0,0.0,0.0,-4.5421,-4.5279,-4.5766,-4.7334,-4.7406,-4.7406,-4.7406,-4.8471,-4.9604,-5.0802,-5.1885,-5.2692,-5.3185,-5.3185,-5.3185,-5.3185,-5.3185,-5.3185,-5.3185,-5.3185,-5.3185,-5.3185,-5.3185,-5.3185,-5.3185,-5.3185,-5.3185,-5.3185,-5.3185,-5.3185,-5.3185,0.0,0.0,0.0,0.0,0.0,0.0,0.0,0.0,0.0,0.0,0.0,0.0,0.0,0.0,0.0,0.0,0.0,0.0,0.0,0.0,0.0,-1.6627,-1.7109,-1.7988,-1.9409,-1.906,-1.9951,-2.2178,-2.2164,-2.2888,-2.4271,-2.4271,-2.4271,-2.4271,-2.4271,-2.4305,-2.4372,-2.4305,-2.4338,-2.4423,-2.4321,-2.346,-2.2229,-2.2195,0.0,-1.9849,0.0,0.0,0.0,0.0,0.0,0.0,0.0,0.0,0.0,-2.4711,-2.6268,-2.8557,-3.125,-3.2231,-3.3094,-3.5711,-3.5985,-3.5722,-3.6194,-3.5335,-3.4372,-3.4047,-3.3405,-3.2625,0.0,0.0,-3.3942,-3.6695,-3.6994,-3.8042,-4.13,-4.1246,-4.1313,0.0,0.0,0.0,0.0,0.0,0.0,-4.4865,0.0,-4.5665,-4.723,-4.7299,-4.7317,-4.7353,-4.8933,-5.0087,-5.0796,-5.2396,-5.3185,-5.3185,-5.3185,-5.3185,-5.3185,-5.3185,-5.3185,-5.3185,-5.3185,-5.3185,-5.3185,-5.3185,-5.3185,-5.3185,-5.3185,-5.3185,-5.3185,-5.3185,-5.3185,-5.3164,0.0,0.0,0.0,0.0,0.0,0.0,0.0,0.0,0.0,0.0,0.0,0.0,0.0,0.0,0.0,0.0,0.0,0.0,0.0,0.0,0.0,0.0,-1.557,-1.706,-1.8717,-1.8411,-1.9002,-2.0589,-2.0331,-2.0528,-2.1147,-2.1147,-2.1147,-2.1147,-2.1147,-2.1789,-2.2784,-2.162,-2.2141,-2.3528,0.0,-2.1278,-2.1427,0.0,0.0,0.0,0.0,0.0,0.0,0.0,0.0,0.0,0.0,0.0,-2.6353,0.0,0.0,-3.0738,-3.2539,-3.3867,-3.4934,-3.563,-3.5694,-3.5492,-3.5091,-3.4308,-3.3211,-3.1504,-3.0554,-2.9744,0.0,0.0,0.0,-3.4615,-3.6717,0.0,-4.0844,-4.0648,0.0,0.0,0.0,-4.2062,-4.224,-4.2467,0.0,0.0,-4.4073,-4.4401,-4.5895,-4.5965,-4.6227,-4.6788,-4.8303,-4.9697,-5.0877,-5.2425,-5.3185,-5.3185,-5.3185,-5.3185,-5.3185,-5.3185,-5.3185,-5.3185,-5.3185,-5.3185,-5.3185,-5.3185,-5.3185,-5.3185,-5.3185,-5.3185,-5.3185,-5.3185,-5.2853,-5.2468,0.0,0.0,0.0,0.0,0.0,0.0,0.0,0.0,0.0,0.0,0.0,0.0,0.0,0.0,0.0,0.0,0.0,0.0,0.0,0.0,0.0,-1.2663,-1.3714,-1.5014,-1.6625,-1.6584,-1.7085,-1.8194,0.0,0.0,-1.8871,-1.9306,-1.9524,-1.9524,-1.9849,-2.0475,-2.1231,-2.0373,0.0,0.0,0.0,0.0,0.0,0.0,0.0,0.0,0.0,0.0,0.0,0.0,0.0,-2.4203,-2.527,-2.6573,-2.7943,-2.9127,0.0,-3.2425,-3.3575,-3.4726,-3.56,-3.56,-3.5346,-3.4844,-3.3778,-3.2713,-3.1326,-2.9076,-2.801,0.0,0.0,0.0,0.0,0.0,0.0,0.0,-3.9763,-4.0082,-4.0417,0.0,-4.1583,0.0,-4.2061,-4.253,-4.3134,0.0,-4.3861,-4.4272,-4.5442,-4.5511,-4.584,-4.6576,-4.7771,-4.9248,-5.0963,-5.1843,-5.2284,-5.2284,-5.2284,-5.2284,-5.2284,-5.2576,-5.2725,-5.2747,0.0,-5.3185,-5.3185,-5.3185,-5.302,-5.2725,-5.2725,-5.2531,-5.2284,-5.2284,-5.2012,-5.1734,0.0,0.0,0.0,0.0,0.0,0.0,0.0,0.0,0.0,0.0,0.0,0.0,0.0,0.0,0.0,0.0,0.0,0.0,0.0,0.0,0.0,-1.1491,-1.1872,-1.2727,-1.4136,-1.439,-1.4918,0.0,0.0,0.0,0.0,0.0,0.0,0.0,0.0,0.0,0.0,0.0,0.0,0.0,0.0,0.0,0.0,0.0,0.0,0.0,0.0,0.0,0.0,0.0,-2.4271,-2.4239,-2.5744,-2.7621,-2.9467,-3.0294,-3.1901,-3.3592,-3.4421,-3.5115,-3.56,-3.56,-3.4979,-3.3964,-3.2496,-3.092,-2.9161,-2.6877,0.0,-2.5084,-2.4338,0.0,-2.7655,-3.0581,0.0,-3.5537,-3.8565,-3.9554,-4.016,-4.0733,-4.1119,-4.1554,-4.2071,-4.2424,-4.2861,-4.3521,-4.4094,-4.4716,-4.5364,-4.5399,-4.5805,-4.6715,-4.7634,-4.9063,-5.1068,-5.1086,-5.1086,-5.1086,-5.1086,-5.1086,-5.1112,-5.1692,-5.2018,-5.2136,0.0,0.0,-5.3185,-5.3103,-5.2684,-5.2089,-5.2,-5.1618,-5.1086,-5.1086,-5.1034,-5.0955,0.0,0.0,0.0,0.0,0.0,0.0,0.0,0.0,0.0,0.0,-0.8252,-0.7899,0.0,0.0,0.0,0.0,0.0,0.0,0.0,0.0,0.0,0.0,-1.0961,-1.2028,0.0,0.0,0.0,0.0,0.0,0.0,0.0,0.0,0.0,0.0,0.0,0.0,0.0,0.0,0.0,0.0,0.0,0.0,0.0,0.0,0.0,0.0,0.0,0.0,0.0,0.0,-2.5625,-2.73,-2.8856,-3.0006,-3.1072,-3.2442,-3.3102,-3.3694,-3.5025,-3.5498,-3.56,-3.56,-3.4585,-3.3203,-3.1715,-2.9736,0.0,0.0,0.0,-2.3562,-2.2818,-2.4881,0.0,-2.9905,0.0,0.0,0.0,0.0,-3.9443,0.0,0.0,0.0,0.0,0.0,0.0,0.0,0.0,-4.4623,-4.4759,-4.4776,-4.5631,-4.7521,-4.8907,-5.0118,-5.1086,-5.1086,-5.1086,-5.1086,-5.1086,-5.1086,-5.1112,-5.1215,-5.1569,-5.2112,-5.2247,0.0,-5.3146,-5.2554,-5.2224,-5.2047,-5.1494,-5.1189,-5.1086,-5.1086,-5.0716,-5.0269,0.0,0.0,0.0,0.0,0.0,0.0,0.0,-0.8417,-0.8657,-0.9338,-0.9135,-0.8814,-0.8462,-0.8109,-0.7899,0.0,0.0,0.0,0.0,0.0,0.0,0.0,0.0,0.0,0.0,0.0,0.0,0.0,0.0,0.0,0.0,0.0,0.0,0.0,0.0,0.0,0.0,0.0,0.0,0.0,0.0,0.0,0.0,0.0,0.0,0.0,0.0,0.0,0.0,0.0,-2.4831,-2.6911,-2.8432,-2.9973,-3.141,-3.251,-3.3372,-3.4218,-3.5295,-3.56,-3.56,-3.56,-3.4201,-3.2324,-3.0482,0.0,0.0,0.0,0.0,-2.2733,-2.2364,0.0,0.0,0.0,0.0,0.0,0.0,0.0,0.0,0.0,0.0,0.0,0.0,0.0,0.0,0.0,0.0,-4.4615,-4.4615,-4.4942,-4.5637,-4.6651,-4.814,-4.9085,-4.9422,-4.9803,-4.9993,-4.9993,-4.9993,-4.9993,-5.0022,-5.038,-5.0699,-5.1016,-5.1401,0.0,-5.206,-5.1734,-5.135,-5.0964,-5.0662,-5.0297,-4.9993,-4.9993,-4.978,-4.9521,0.0,0.0,0.0,0.0,0.0,0.0,0.0,-0.8815,-0.9137,-0.9809,-0.989,-0.9704,-0.9167,-0.8522,-0.8049,0.0,0.0,0.0,0.0,0.0,0.0,0.0,0.0,0.0,0.0,0.0,0.0,0.0,0.0,0.0,0.0,0.0,0.0,0.0,0.0,0.0,0.0,0.0,0.0,0.0,0.0,0.0,0.0,0.0,0.0,0.0,0.0,0.0,0.0,0.0,-2.3344,-2.4949,-2.6573,-2.8653,-3.0649,-3.1546,-3.2886,-3.4218,-3.5131,-3.5481,-3.5566,-3.5397,-3.3694,-3.1481,-2.9264,-2.6979,0.0,0.0,-2.2296,-2.2296,-2.2296,0.0,0.0,0.0,0.0,0.0,0.0,0.0,0.0,0.0,0.0,0.0,0.0,0.0,0.0,0.0,0.0,0.0,-4.4615,-4.5297,-4.5703,-4.5703,-4.7111,-4.7889,-4.7889,-4.8646,-4.9001,-4.9001,-4.9001,-4.9001,-4.9032,-4.9551,-4.9879,-5.0016,-5.0626,0.0,0.0,-5.0929,-5.0527,-4.9976,-4.985,-4.9462,-4.9001,-4.9001,-4.89,-4.8765,0.0,0.0,0.0,0.0,0.0,0.0,0.0,-0.8507,-0.9137,-0.9809,-0.989,-0.9875,-0.9824,-0.9212,-0.8567,0.0,0.0,0.0,0.0,0.0,0.0,0.0,0.0,0.0,0.0,0.0,0.0,0.0,0.0,0.0,0.0,0.0,0.0,0.0,0.0,0.0,0.0,0.0,0.0,0.0,0.0,0.0,0.0,0.0,0.0,0.0,0.0,0.0,0.0,0.0,0.0,-2.1969,-2.4135,-2.6336,-2.8398,-2.9869,0.0,0.0,-3.4218,-3.5098,-3.543,-3.4776,-3.2933,-3.07,-2.8432,0.0,0.0,-2.2632,-2.2296,-2.2296,-2.2296,-2.297,0.0,0.0,0.0,0.0,0.0,0.0,0.0,0.0,0.0,0.0,0.0,0.0,0.0,0.0,0.0,0.0,-4.4615,-4.5297,-4.5703,-4.5703,-4.7111,-4.7889,-4.7889,-4.8646,-4.9001,-4.9001,-4.9001,-4.9001,-4.9001,-4.9046,-4.9402,-5.0004,-5.0142,0.0,0.0,-5.038,-5.0044,-4.9947,-4.9329,-4.9046,-4.9001,-4.9001,-4.8595,-4.799,0.0,0.0,0.0,0.0,0.0,0.0,-0.8432,-0.8725,-0.9137,-0.9809,-0.989,-0.989,-0.989,-0.9302,-0.8634,-0.7959,0.0,0.0,0.0,0.0,0.0,0.0,0.0,0.0,0.0,0.0,0.0,0.0,0.0,0.0,0.0,0.0,0.0,0.0,0.0,0.0,0.0,0.0,0.0,0.0,0.0,0.0,0.0,0.0,0.0,0.0,0.0,0.0,0.0,0.0,0.0,0.0,-2.0987,-2.2682,0.0,0.0,-2.9803,-3.1393,-3.3322,-3.4387,-3.4861,-3.4573,-3.2831,-3.0598,-2.8314,0.0,-2.4085,-2.26,-2.2296,-2.2296,-2.2296,-2.2533,-2.3088,-2.4103,-2.5033,-2.6928,0.0,0.0,0.0,0.0,0.0,0.0,0.0,0.0,0.0,0.0,0.0,0.0,-4.4615,-4.4874,-4.5026,-4.5026,-4.6041,-4.6599,-4.6599,-4.7767,-4.8359,-4.8359,-4.8798,-4.9001,-4.9001,-4.9001,-4.9168,-4.9389,-4.9436,0.0,0.0,-4.9521,-4.9389,-4.9359,-4.9107,-4.8731,-4.8359,-4.8359,-4.7885,-4.7242,0.0,0.0,0.0,0.0,0.0,-0.8049,-0.8537,-0.877,-0.9062,-0.9548,-0.9779,-0.989,-0.989,-0.9302,-0.871,-0.8237,-0.8019,0.0,0.0,0.0,0.0,0.0,0.0,0.0,0.0,0.0,0.0,0.0,0.0,0.0,0.0,0.0,0.0,0.0,0.0,0.0,0.0,0.0,0.0,0.0,0.0,0.0,0.0,0.0,0.0,0.0,0.0,0.0,0.0,0.0,0.0,0.0,0.0,0.0,0.0,0.0,-2.7891,-2.9852,-3.1884,-3.3119,-3.3795,-3.3575,-3.2019,-2.9939,0.0,0.0,-2.3831,-2.2564,-2.2296,-2.2296,-2.2296,-2.2296,-2.2465,-2.2987,-2.363,-2.5203,-2.8536,0.0,0.0,0.0,0.0,0.0,0.0,0.0,0.0,0.0,0.0,0.0,0.0,-4.4615,-4.4615,-4.4615,-4.5314,-4.5703,-4.5703,-4.6955,-4.7581,-4.7597,-4.8105,-4.8359,-4.8359,-4.8359,-4.8359,-4.8359,0.0,0.0,0.0,-4.8359,-4.8359,-4.8359,-4.8359,-4.8037,-4.7581,-4.7581,-4.7107,-4.6464,0.0,0.0,0.0,0.0,0.0,0.0,-0.7914,-0.8477,-0.8905,-0.8905,-0.9488,-0.989,-0.989,-0.9302,-0.889,-0.889,-0.8282,0.0,0.0,0.0,0.0,0.0,0.0,0.0,0.0,0.0,0.0,-1.1801,-1.3078,0.0,0.0,0.0,0.0,0.0,0.0,0.0,0.0,0.0,0.0,0.0,0.0,0.0,0.0,0.0,0.0,0.0,0.0,0.0,0.0,0.0,0.0,0.0,0.0,0.0,0.0,0.0,-2.5508,-2.8162,-2.97,-3.1207,-3.2158,-3.141,-3.0127,-2.8434,0.0,-2.4475,-2.319,-2.2448,-2.2296,-2.2296,-2.2296,-2.2296,-2.2296,-2.2313,-2.4154,-2.6387,-2.8688,0.0,0.0,0.0,0.0,0.0,0.0,0.0,0.0,0.0,0.0,0.0,0.0,-4.4615,-4.4615,-4.4615,-4.5314,-4.5703,-4.5703,-4.643,-4.6802,-4.6802,-4.6802,-4.6802,-4.6802,-4.6802,-4.6802,0.0,0.0,0.0,0.0,-4.6802,-4.6802,-4.6802,-4.6802,-4.6802,-4.6802,-4.6802,-4.6346,-4.572,0.0,0.0,0.0,0.0,0.0,0.0,0.0,-0.8079,-0.8222,-0.8222,-0.8409,-0.8709,-0.9167,-0.8627,-0.8402,-0.886,-0.8282,0.0,0.0,0.0,0.0,0.0,0.0,0.0,0.0,0.0,-1.2954,-1.3366,-1.3969,0.0,0.0,0.0,0.0,0.0,0.0,0.0,0.0,0.0,0.0,0.0,0.0,0.0,0.0,0.0,0.0,0.0,0.0,0.0,0.0,0.0,0.0,0.0,0.0,0.0,0.0,-2.0111,0.0,0.0,-2.7232,-2.8484,-2.9178,-2.8922,-2.8146,-2.6979,-2.5252,-2.4086,-2.319,-2.2448,-2.2296,-2.2296,-2.2296,-2.2296,-2.2803,-2.4308,-2.5136,0.0,0.0,0.0,0.0,0.0,0.0,0.0,0.0,0.0,0.0,0.0,0.0,0.0,0.0,-4.4615,-4.4615,-4.4615,-4.4835,-4.4942,-4.4942,-4.5686,-4.6058,-4.6058,-4.6549,-4.6786,-4.6786,-4.6786,0.0,0.0,0.0,0.0,0.0,-4.6786,-4.6786,-4.6786,-4.6786,-4.6481,-4.6058,-4.6058,-4.5585,-4.4942,0.0,0.0,0.0,0.0,0.0,0.0,0.0,-0.7899,-0.7899,-0.7899,-0.7899,-0.8162,-0.883,-0.8297,-0.8177,-0.8845,-0.8282,0.0,0.0,0.0,0.0,0.0,0.0,0.0,0.0,-1.1875,-1.3033,-1.3959,-1.4492,-1.4993,-1.5449,-1.537,0.0,0.0,0.0,0.0,0.0,0.0,0.0,0.0,0.0,0.0,0.0,0.0,0.0,0.0,0.0,0.0,0.0,0.0,0.0,0.0,0.0,0.0,0.0,0.0,-2.023,0.0,0.0,-2.6201,-2.6962,-2.6962,-2.642,-2.5557,-2.4355,-2.3306,-2.2513,-2.233,-2.209,-2.1972,-2.2245,-2.2296,-2.2753,-2.4122,-2.4831,0.0,0.0,0.0,0.0,0.0,0.0,0.0,0.0,0.0,0.0,0.0,0.0,0.0,0.0,-4.4615,-4.4615,-4.4615,-4.4615,-4.4615,-4.4615,-4.5043,-4.528,-4.528,-4.5737,-4.5957,-4.5957,-4.5957,0.0,0.0,0.0,0.0,0.0,-4.5957,-4.5957,-4.5957,-4.5957,-4.5686,-4.528,-4.528,-4.4976,-4.4615,0.0,0.0,0.0,0.0,0.0,0.0,0.0,-0.7899,-0.7899,-0.7899,-0.7899,-0.8147,-0.877,-0.8282,-0.8162,-0.877,0.0,0.0,0.0,0.0,0.0,0.0,0.0,0.0,-1.0535,-1.1442,-1.2546,-1.3831,-1.4773,-1.5284,-1.5393,-1.6296,-1.5944,-1.4588,0.0,0.0,0.0,0.0,0.0,0.0,0.0,0.0,0.0,0.0,0.0,0.0,0.0,0.0,0.0,0.0,0.0,0.0,0.0,0.0,0.0,0.0,0.0,0.0,0.0,0.0,0.0,0.0,-2.4678,-2.4,-2.3308,-2.2104,0.0,-2.2073,-2.1681,-2.1444,-2.2243,-2.233,-2.2381,-2.2651,0.0,0.0,0.0,0.0,0.0,0.0,0.0,0.0,0.0,0.0,0.0,0.0,0.0,0.0,0.0,-4.4513,-4.4547,-4.4615,-4.4615,-4.4615,-4.4615,-4.4615,-4.4615,-4.4615,-4.4615,-4.4615,-4.4615,-4.4615,0.0,0.0,0.0,0.0,0.0,-4.4615,-4.4615,-4.4615,-4.4615,-4.4615,-4.4615,-4.4615,-4.4615,-4.4615,0.0,0.0,0.0,0.0,0.0,0.0,0.0,0.0,0.0,0.0,-0.7899,-0.7959,-0.8117,-0.7989,-0.7959,0.0,0.0,0.0,0.0,0.0,0.0,0.0,0.0,0.0,-1.0935,-1.1783,-1.3176,-1.5141,-1.5385,-1.6088,-1.7182,-1.6842,-1.6214,-1.5325,-1.4757,-1.409,0.0,0.0,0.0,0.0,0.0,0.0,0.0,0.0,0.0,0.0,0.0,0.0,0.0,0.0,0.0,0.0,0.0,0.0,0.0,0.0,-1.8454,-1.9046,-1.9756,0.0,-2.1333,-2.1333,-2.1197,-2.1011,0.0,-2.0538,-2.0504,-2.1309,0.0,0.0,-2.2902,0.0,0.0,0.0,0.0,0.0,0.0,0.0,0.0,0.0,0.0,0.0,0.0,0.0,0.0,0.0,0.0,0.0,0.0,-4.369,-4.3961,-4.4581,-4.4615,-4.4615,-4.4615,-4.4615,-4.4615,-4.4615,-4.4615,-4.4615,-4.4615,-4.4615,0.0,0.0,0.0,0.0,-4.4615,-4.4615,-4.4615,-4.4615,-4.4615,-4.4615,-4.4615,-4.4615,-4.4615,-4.4615,0.0,0.0,0.0,0.0,0.0,0.0,0.0,0.0,0.0,0.0,0.0,0.0,0.0,0.0,0.0,0.0,0.0,0.0,0.0,0.0,0.0,0.0,0.0,-0.9557,-1.048,-1.1314,-1.2855,-1.5105,-1.5426,-1.6356,-1.7783,-1.7388,-1.6627,-1.5544,-1.4479,-1.3777,0.0,0.0,0.0,0.0,0.0,0.0,0.0,0.0,0.0,0.0,0.0,-1.4479,0.0,-1.5494,-1.6356,-1.723,0.0,0.0,0.0,0.0,-1.7585,-1.7958,-1.8302,-1.9452,-2.0538,-2.0538,-2.0809,-2.1062,-2.1062,0.0,0.0,0.0,0.0,0.0,0.0,0.0,0.0,0.0,0.0,0.0,0.0,0.0,0.0,0.0,0.0,0.0,0.0,0.0,0.0,0.0,0.0,0.0,0.0,-4.2912,-4.3098,-4.3548,-4.3859,-4.4215,-4.4615,-4.4615,-4.4615,-4.4615,-4.4615,-4.4615,-4.4615,-4.4615,-4.4615,0.0,0.0,0.0,-4.4615,-4.4615,-4.4615,-4.4615,-4.4615,-4.4615,-4.4615,-4.4615,-4.4615,-4.4615,0.0,0.0,0.0,0.0,0.0,0.0,0.0,0.0,0.0,0.0,0.0,0.0,0.0,0.0,0.0,0.0,0.0,0.0,0.0,0.0,0.0,0.0,0.0,-0.9108,-0.9978,-1.0723,-1.2229,-1.4504,-1.524,-1.6306,-1.7642,-1.7749,-1.7005,-1.5544,-1.4183,-1.3515,0.0,0.0,0.0,0.0,0.0,0.0,0.0,0.0,0.0,0.0,0.0,0.0,0.0,-1.5088,-1.5893,-1.6665,-1.6434,0.0,0.0,0.0,0.0,0.0,-1.7563,-1.9283,-2.0852,-2.0852,-2.1397,-2.1941,-2.1941,0.0,0.0,0.0,0.0,0.0,0.0,0.0,0.0,0.0,0.0,0.0,0.0,0.0,0.0,0.0,0.0,0.0,0.0,0.0,0.0,0.0,0.0,0.0,0.0,-4.2117,-4.2168,-4.2286,-4.2912,-4.3572,-4.4242,-4.4479,-4.4615,-4.4615,-4.4615,-4.4615,-4.4615,-4.4615,-4.4615,-4.4615,0.0,0.0,-4.4615,-4.4615,-4.4615,-4.4615,-4.4615,-4.4615,-4.4615,-4.4615,-4.4615,-4.4615,0.0,0.0,0.0,0.0,0.0,0.0,0.0,0.0,0.0,0.0,0.0,0.0,0.0,0.0,0.0,0.0,0.0,0.0,0.0,0.0,0.0,-0.8604,-0.8675,-0.9386,-1.0875,-1.1038,-1.2229,-1.4504,-1.524,-1.6045,-1.6874,-1.7507,-1.7005,-1.5561,-1.4706,-1.3988,-1.3396,0.0,0.0,0.0,0.0,0.0,0.0,0.0,0.0,0.0,0.0,0.0,0.0,-1.3912,-1.5056,-1.6468,-1.524,0.0,0.0,0.0,0.0,0.0,-1.7428,-1.8504,-1.9261,-1.9261,-1.9824,-2.0339,-2.0339,0.0,0.0,0.0,0.0,0.0,0.0,0.0,0.0,0.0,0.0,0.0,0.0,0.0,0.0,0.0,0.0,0.0,0.0,0.0,0.0,0.0,0.0,0.0,0.0,-4.1373,-4.1644,-4.2269,-4.2405,-4.2523,-4.2642,-4.3955,-4.4615,-4.4615,-4.4615,-4.4615,-4.4615,-4.4615,-4.4615,-4.4615,0.0,-4.4615,-4.4615,-4.4615,-4.4615,-4.4615,-4.4615,-4.4615,-4.4615,-4.4615,-4.4615,-4.4615,0.0,0.0,0.0,0.0,0.0,0.0,0.0,0.0,0.0,0.0,0.0,0.0,0.0,0.0,0.0,0.0,0.0,0.0,0.0,0.0,0.0,-0.9163,-0.9324,-0.9759,-1.0497,-1.1712,-1.3041,-1.4504,-1.5629,-1.657,-1.7287,-1.683,-1.6255,-1.5544,-1.4411,-1.3726,-1.3396,-1.3396,0.0,0.0,0.0,0.0,0.0,0.0,0.0,0.0,0.0,0.0,0.0,0.0,-1.4919,-1.5927,-1.4842,0.0,0.0,0.0,0.0,0.0,-1.6796,-1.8031,-1.8995,-1.9389,-2.0673,-2.184,-2.184,0.0,0.0,0.0,0.0,0.0,0.0,0.0,0.0,0.0,0.0,0.0,0.0,0.0,0.0,0.0,0.0,0.0,0.0,0.0,0.0,0.0,0.0,0.0,0.0,0.0,-4.0747,-4.1111,-4.1491,-4.1711,-4.1711,-4.2794,-4.3555,-4.3961,-4.4384,-4.4615,-4.4615,-4.4615,-4.4615,-4.4615,0.0,-4.4615,-4.4615,-4.4615,-4.4615,-4.4615,-4.4615,-4.4615,-4.4615,-4.4615,-4.4615,-4.4615,0.0,0.0,0.0,0.0,0.0,0.0,0.0,0.0,0.0,0.0,0.0,0.0,0.0,0.0,0.0,0.0,0.0,0.0,0.0,0.0,-0.8698,-0.9356,-0.9948,-1.0403,-1.0702,-1.2476,-1.3845,-1.4757,-1.6062,-1.7077,-1.7766,-1.6475,-1.5774,-1.5544,-1.4234,-1.3557,-1.3396,-1.3396,-1.3396,0.0,0.0,0.0,0.0,0.0,0.0,0.0,0.0,0.0,0.0,0.0,0.0,0.0,0.0,0.0,0.0,-1.4926,-1.4639,-1.4858,-1.6519,-1.7788,-1.891,-2.0014,0.0,-2.3224,-2.3579,-2.4085,0.0,0.0,0.0,0.0,0.0,0.0,0.0,0.0,0.0,0.0,0.0,0.0,0.0,0.0,0.0,0.0,0.0,0.0,0.0,0.0,0.0,0.0,0.0,0.0,-4.0096,-4.0096,-4.0646,-4.0933,-4.0933,-4.166,-4.2405,-4.3166,-4.3758,-4.4073,-4.4073,-4.4073,-4.4175,-4.4316,-4.4316,-4.4445,-4.4615,-4.4615,-4.4615,-4.4615,-4.4615,-4.4615,-4.4615,-4.4615,-4.4615,-4.4615,0.0,0.0,0.0,0.0,0.0,0.0,0.0,0.0,0.0,0.0,0.0,0.0,0.0,0.0,0.0,0.0,0.0,0.0,0.0,0.0,-0.8508,-0.8753,-1.0205,-1.1567,-1.2767,-1.3193,-1.4099,-1.5511,-1.6316,-1.7077,-1.7783,-1.6993,-1.6265,-1.5561,-1.4774,-1.4039,-1.3396,-1.3396,-1.3396,-1.3396,0.0,0.0,0.0,0.0,0.0,0.0,0.0,0.0,0.0,0.0,0.0,0.0,0.0,0.0,-1.5595,-1.5544,-1.5037,-1.4977,-1.7124,-1.78,-1.8391,-2.0564,-2.1752,0.0,-2.4118,-2.4457,0.0,-2.6268,0.0,0.0,0.0,0.0,0.0,0.0,0.0,0.0,0.0,0.0,0.0,0.0,0.0,0.0,0.0,0.0,0.0,0.0,0.0,0.0,0.0,0.0,0.0,-4.0096,-4.0146,-4.018,-4.018,-4.0899,-4.1644,-4.2371,-4.2422,-4.2455,-4.2455,-4.2455,-4.2844,-4.3504,-4.3504,-4.391,-4.4615,-4.4615,-4.4615,-4.4615,-4.4615,-4.4615,-4.4615,-4.4615,-4.4615,-4.4615,0.0,0.0,0.0,0.0,0.0,0.0,0.0,0.0,0.0,0.0,0.0,0.0,0.0,0.0,0.0,0.0,0.0,0.0,0.0,-0.8286,-0.8621,-0.9108,-0.9959,-1.1006,-1.2288,-1.3932,-1.5266,-1.6282,-1.6553,-1.6841,-1.7094,-1.5883,-1.5189,-1.4875,-1.4141,-1.3659,-1.3396,-1.3396,-1.3396,-1.3396,-1.3396,0.0,0.0,0.0,0.0,0.0,0.0,0.0,0.0,0.0,-1.3515,-1.4419,-1.3954,-1.464,-1.5511,-1.5054,-1.4723,-1.4875,-1.6644,-1.7777,-1.8809,-2.0128,-2.2073,0.0,0.0,-2.5896,-2.6979,-2.8501,-2.9178,0.0,0.0,0.0,0.0,0.0,0.0,0.0,0.0,0.0,0.0,0.0,0.0,0.0,0.0,0.0,0.0,0.0,0.0,0.0,0.0,0.0,0.0,-4.0096,-4.0096,-4.0096,-4.0096,-4.0383,-4.0671,-4.0942,-4.1847,-4.2286,-4.2286,-4.2286,-4.2439,-4.2726,-4.2726,-4.2878,-4.3176,-4.3176,-4.3176,-4.3176,-4.3176,-4.3176,-4.3217,-4.3673,-4.3859,-4.3927,0.0,0.0,0.0,0.0,0.0,0.0,0.0,0.0,0.0,0.0,0.0,0.0,0.0,0.0,0.0,0.0,0.0,0.0,-0.8037,-0.8207,-0.8514,-0.8968,-0.9607,-1.0455,-1.1563,-1.3773,-1.5266,-1.6011,-1.6231,-1.635,-1.6333,-1.5088,-1.4622,-1.4791,-1.3828,-1.3532,-1.3726,-1.3498,-1.3396,-1.3396,-1.3396,-1.3396,0.0,0.0,0.0,0.0,0.0,0.0,0.0,0.0,-1.2973,-1.3794,-1.3752,-1.4445,-1.5206,-1.4926,-1.5011,-1.5477,-1.6705,-1.8115,-1.9486,0.0,0.0,0.0,-2.6031,-2.7266,-2.8687,-3.0429,0.0,0.0,0.0,0.0,0.0,0.0,0.0,0.0,0.0,0.0,0.0,0.0,0.0,0.0,0.0,0.0,0.0,0.0,0.0,0.0,0.0,0.0,0.0,0.0,-4.0096,-4.0096,-4.0096,-4.0096,-4.0096,-4.0113,-4.1128,-4.1619,-4.1619,-4.1619,-4.1728,-4.1948,-4.1948,-4.2066,-4.2286,-4.2286,-4.2286,-4.2286,-4.2286,-4.2286,-4.2354,-4.2878,-4.3064,-4.3132,0.0,0.0,0.0,0.0,0.0,0.0,0.0,0.0,0.0,0.0,0.0,0.0,0.0,0.0,0.0,0.0,0.0,0.0,-0.7899,-0.8023,-0.8095,-0.8095,-0.9181,-1.0133,-1.0849,-1.2521,-1.3743,-1.4504,-1.5223,-1.5578,-1.5561,-1.4825,-1.4875,-1.5511,-1.4048,-1.3802,-1.4436,-1.3709,-1.3396,-1.3396,-1.3396,-1.3396,0.0,0.0,0.0,0.0,0.0,0.0,0.0,0.0,-1.2297,-1.2567,-1.403,-1.4504,-1.4656,-1.5375,-1.6113,-1.6874,-1.7608,-1.8882,0.0,0.0,0.0,0.0,-2.73,-2.8433,-2.9653,-3.187,0.0,0.0,0.0,0.0,0.0,0.0,0.0,0.0,0.0,0.0,0.0,0.0,0.0,0.0,0.0,0.0,0.0,0.0,0.0,0.0,0.0,0.0,0.0,0.0,-4.0096,-4.0096,-4.0096,-4.0096,-4.0096,-4.0096,-4.0096,-4.0096,-4.0096,-4.0096,-4.0519,-4.1187,-4.1187,-4.1593,-4.2269,-4.2269,-4.2269,-4.2269,-4.2269,-4.2269,-4.2269,-4.2286,-4.2286,-4.2286,0.0,0.0,0.0,0.0,0.0,0.0,0.0,0.0,0.0,0.0,0.0,0.0,0.0,0.0,0.0,0.0,0.0,0.0,-0.7899,-0.8023,-0.8095,-0.8095,-0.8705,-0.9134,-0.9356,-1.0354,-1.2062,-1.4504,-1.4191,-1.4048,-1.4031,-1.3295,-1.3346,-1.4031,-1.3599,-1.3421,-1.3445,-1.3404,-1.3294,-1.3138,-1.3329,-1.3396,0.0,0.0,0.0,0.0,0.0,0.0,0.0,0.0,0.0,0.0,-1.3422,-1.4793,-1.5893,-1.5071,-1.6076,-1.7523,-1.7732,0.0,0.0,0.0,0.0,0.0,0.0,-2.9228,0.0,0.0,0.0,0.0,0.0,0.0,0.0,0.0,0.0,0.0,0.0,0.0,0.0,0.0,0.0,0.0,0.0,0.0,0.0,0.0,0.0,0.0,0.0,0.0,0.0,0.0,-4.0096,-4.0096,-4.0096,-4.0096,-4.0096,-4.0096,-4.0096,-4.0096,-4.0096,-4.0096,-4.0231,-4.0434,-4.0434,-4.057,-4.0756,-4.0756,-4.0756,-4.0756,-4.0756,-4.0756,-4.0823,-4.1322,-4.1525,-4.1593,0.0,0.0,0.0,0.0,0.0,0.0,0.0,0.0,0.0,0.0,0.0,0.0,0.0,0.0,0.0,0.0,0.0,0.0,0.0,-0.7976,-0.8016,-0.8016,-0.8299,-0.8637,-0.9006,-0.9454,-1.0654,-1.2631,-1.248,-1.2604,-1.2948,-1.2508,-1.2855,-1.3819,-1.3429,-1.3208,-1.3156,-1.3208,-1.3033,-1.2756,-1.3219,-1.3396,-1.3227,0.0,0.0,0.0,0.0,0.0,0.0,0.0,0.0,0.0,-1.3042,-1.4229,-1.5317,-1.5037,-1.6295,-1.7935,-1.851,0.0,0.0,0.0,0.0,0.0,0.0,0.0,0.0,0.0,0.0,0.0,0.0,0.0,0.0,0.0,0.0,0.0,0.0,0.0,0.0,0.0,0.0,0.0,0.0,0.0,0.0,0.0,0.0,0.0,0.0,0.0,0.0,0.0,-4.0096,-4.0096,-4.0096,-4.0096,-4.0096,-4.0096,-4.0096,-4.0096,-4.0096,-4.0096,-4.0096,-4.0096,-4.0096,-4.0096,-4.0096,-4.0096,-4.0096,-4.0096,-4.0096,-4.0096,-4.0146,-4.0595,-4.0747,-4.0832,0.0,0.0,0.0,0.0,0.0,0.0,0.0,0.0,0.0,0.0,0.0,0.0,0.0,0.0,0.0,0.0,0.0,0.0,0.0,0.0,-0.7899,-0.7899,-0.803,-0.8494,-0.9347,-0.937,-0.9456,-0.9642,-1.043,-1.1287,-1.2195,-1.2195,-1.2974,-1.4323,-1.3411,-1.3062,-1.3185,-1.2995,-1.2597,-1.2159,-1.2898,-1.3185,-1.3016,-1.1553,0.0,0.0,0.0,0.0,0.0,0.0,0.0,0.0,-1.2836,-1.3282,-1.3837,-1.5046,-1.6593,-1.8172,0.0,0.0,0.0,0.0,0.0,0.0,0.0,0.0,0.0,0.0,0.0,0.0,0.0,0.0,0.0,0.0,0.0,0.0,0.0,0.0,0.0,0.0,0.0,0.0,0.0,0.0,0.0,0.0,0.0,0.0,0.0,0.0,0.0,-4.0096,-4.0096,-4.0096,-4.0096,-4.0096,-4.0096,-4.0096,-4.0096,-4.0096,-4.0096,-4.0096,-4.0096,-4.0096,-4.0096,-4.0096,-4.0096,-4.0096,-4.0096,-4.0096,-4.0096,-4.0096,-4.0096,-4.0096,-4.0096,-4.0096,0.0,0.0,0.0,0.0,0.0,0.0,0.0,0.0,0.0,0.0,0.0,0.0,0.0,0.0,0.0,0.0,0.0,0.0,0.0,0.0,-0.7899,-0.7899,-0.803,-0.82,-0.8388,-0.8411,-0.8424,-0.8465,-0.9518,-1.0482,-1.135,-1.135,-1.2061,-1.3317,-1.3097,-1.2506,-1.1689,-1.1996,-1.1563,-1.0711,-1.1339,-1.1537,-1.1356,-1.0535,-1.0244,0.0,0.0,0.0,0.0,0.0,0.0,0.0,-1.2791,-1.3992,-1.4962,-1.4116,-1.6147,-1.8606,0.0,0.0,0.0,0.0,0.0,0.0,0.0,0.0,0.0,0.0,0.0,0.0,0.0,0.0,0.0,0.0,0.0,0.0,0.0,0.0,0.0,0.0,0.0,0.0,0.0,0.0,0.0,0.0,0.0,0.0,0.0,0.0,0.0,-4.0096,-4.0096,-4.0096,-4.0096,-4.0096,-4.0096,0.0,-4.0096,-4.0096,-4.0096,-4.0096,-4.0096,-4.0096,-4.0096,-4.0096,-4.0096,-4.0096,-4.0096,-4.0096,-4.0096,-4.0096,-4.0096,-4.0096,-4.0096,-4.0096,0.0,0.0,0.0,0.0,0.0,0.0,0.0,0.0,0.0,0.0,0.0,0.0,0.0,0.0,0.0,0.0,0.0,0.0,0.0,-0.7899,-0.7899,-0.7899,-0.7962,-0.7996,-0.7996,-0.7996,-0.8037,-0.8095,-0.8698,-0.9676,-1.1023,-1.153,-1.2376,-1.3451,-1.2874,-1.2132,-1.1332,-1.1166,-1.0615,-0.993,-1.0695,-1.0895,-1.0687,-1.0121,-0.9852,-0.9663,-0.8853,0.0,0.0,0.0,0.0,0.0,0.0,0.0,-1.4326,-1.4138,-1.5749,-1.7773,0.0,0.0,0.0,0.0,0.0,0.0,0.0,0.0,0.0,0.0,0.0,0.0,0.0,0.0,0.0,0.0,0.0,0.0,0.0,0.0,0.0,0.0,0.0,0.0,0.0,0.0,0.0,0.0,0.0,0.0,0.0,-4.0096,-4.0096,-4.0096,-4.0096,-4.0096,-4.0096,-4.0096,-4.0096,-4.0096,-4.0096,-4.0096,-4.0096,-4.0096,-4.0096,-4.0096,-4.0096,-4.0096,-4.0096,-4.0096,-4.0096,-4.0096,-4.0096,-4.0096,-4.0096,-4.0096,-4.0096,-4.0096,0.0,0.0,0.0,0.0,0.0,0.0,0.0,0.0,0.0,0.0,0.0,0.0,0.0,0.0,0.0,0.0,0.0,0.0,0.0,-0.7899,-0.7899,-0.7899,-0.7899,-0.7899,-0.7899,-0.7899,-0.7963,-0.8063,-0.8186,-0.9235,-1.1139,-1.196,-1.2879,-1.3822,-1.2822,-1.1944,-1.1183,-1.0475,-0.9813,-0.9304,-1.0125,-1.0348,-1.0124,-0.9719,-0.9446,-0.9232,-0.8581,-0.882,-0.9492,-0.9923,0.0,0.0,0.0,0.0,-1.2971,-1.4099,-1.5076,-1.6229,0.0,0.0,0.0,0.0,0.0,0.0,0.0,0.0,0.0,0.0,0.0,0.0,0.0,0.0,0.0,0.0,0.0,0.0,0.0,0.0,0.0,0.0,0.0,0.0,0.0,0.0,0.0,0.0,0.0,0.0,-3.9723,-3.9842,-3.991,-3.991,-4.0028,-4.0096,-4.0096,-4.0096,-4.0096,-4.0096,-4.0096,-4.0096,-4.0096,-4.0096,-4.0096,-4.0096,-4.0096,-4.0096,-4.0096,-4.0096,-4.0096,-4.0096,-4.0096,-4.0096,-4.0096,-4.0096,-4.0096,-4.0096,0.0,0.0,0.0,0.0,0.0,0.0,0.0,0.0,0.0,0.0,0.0,-0.7642,-0.7642,-0.779,0.0,0.0,0.0,0.0,-0.7899,0.0,0.0,-0.7899,-0.7899,-0.7899,-0.7899,-0.7899,-0.7914,-0.792,-0.8515,-0.9898,0.0,0.0,-1.2226,-1.331,-1.314,-1.1974,-1.0119,-1.0114,-0.9333,-0.8142,-0.8575,-0.8618,-0.8451,-0.8549,-0.8563,-0.8508,-0.8229,-0.8575,-0.9235,-0.9756,-1.0519,0.0,0.0,0.0,0.0,0.0,-1.3487,-1.4313,0.0,0.0,0.0,0.0,0.0,0.0,0.0,0.0,0.0,0.0,0.0,0.0,0.0,0.0,0.0,0.0,0.0,0.0,0.0,0.0,0.0,0.0,0.0,0.0,0.0,0.0,0.0,0.0,0.0,0.0,-3.8193,-3.8802,-3.914,-3.914,-3.9774,-4.0096,-4.0096,-4.0096,-4.0096,-4.0096,-4.0096,-4.0096,-4.0096,-4.0096,-4.0096,-4.0096,-4.0096,-4.0096,-4.0096,-4.0096,-4.0096,-4.0096,-4.0096,-4.0096,-4.0096,-4.0096,-4.0096,-4.0096,0.0,0.0,0.0,0.0,0.0,0.0,0.0,0.0,0.0,0.0,0.0,-0.7439,-0.7575,-0.7679,0.0,0.0,0.0,0.0,-0.7899,-0.7899,0.0,-0.7899,-0.7899,-0.7899,-0.7899,-0.7899,-0.7899,-0.7899,-0.8192,0.0,0.0,-1.2158,-1.3152,0.0,0.0,-1.2788,-1.1437,0.0,-0.906,-0.8439,-0.8288,-0.8786,-0.9502,-0.8589,-0.8862,-0.9593,-0.84,-0.818,0.0,0.0,0.0,0.0,0.0,0.0,0.0,0.0,0.0,0.0,0.0,0.0,0.0,0.0,0.0,0.0,0.0,0.0,0.0,0.0,0.0,0.0,0.0,0.0,0.0,0.0,0.0,0.0,0.0,0.0,0.0,0.0,0.0,0.0,0.0,0.0,0.0,0.0,0.0,-3.7905,-3.7905,-3.821,-3.8379,-3.8379,-3.87,-3.887,-3.887,-3.9276,-3.9706,-4.0096,-4.0096,-4.0096,-4.0096,-4.0096,-4.0096,-4.0096,-4.0096,-4.0096,-4.0096,-4.0096,-4.0096,-4.0096,-4.0096,-4.0096,-4.0096,-4.0096,-4.0096,-4.0096,0.0,0.0,0.0,0.0,0.0,0.0,0.0,0.0,0.0,0.0,0.0,0.0,-0.747,0.0,0.0,0.0,0.0,0.0,-0.7899,0.0,0.0,0.0,0.0,-0.7899,-0.7899,-0.7899,-0.7899,-0.7899,0.0,0.0,-1.207,-1.2576,-1.4043,0.0,-1.4878,-1.3658,0.0,0.0,0.0,0.0,-0.8941,-0.9591,-1.0713,-0.9868,-1.0385,-1.1331,-0.9539,0.0,0.0,0.0,0.0,0.0,0.0,0.0,0.0,0.0,0.0,0.0,0.0,0.0,0.0,0.0,0.0,0.0,0.0,0.0,0.0,0.0,0.0,0.0,0.0,0.0,0.0,0.0,0.0,0.0,0.0,0.0,0.0,0.0,0.0,0.0,0.0,0.0,0.0,0.0,0.0,-3.7131,-3.7307,-3.7516,-3.7618,-3.7618,-3.7804,-3.7905,-3.7905,-3.8447,-3.9089,-3.9825,-3.9825,-3.9926,-4.0096,-4.0096,-4.0096,-4.0096,-4.0096,-4.0096,-4.0096,-4.0096,-4.0096,-4.0096,-4.0096,-4.0096,-4.0096,-4.0096,-4.0096,-4.0096,0.0,0.0,0.0,0.0,0.0,0.0,0.0,0.0,0.0,0.0,0.0,0.0,-0.7201,-0.7454,-0.7679,-0.7885,0.0,0.0,0.0,0.0,0.0,0.0,0.0,0.0,-0.7899,-0.7899,-0.7899,-0.7899,0.0,0.0,-1.2756,-1.2774,-1.4169,-1.6637,-1.5994,-1.4257,-1.1805,0.0,0.0,0.0,0.0,-1.0718,-1.0992,-1.2807,-1.3555,-1.3453,0.0,0.0,0.0,0.0,0.0,0.0,0.0,0.0,0.0,0.0,0.0,0.0,0.0,0.0,0.0,0.0,0.0,0.0,0.0,0.0,0.0,0.0,0.0,0.0,0.0,0.0,0.0,0.0,0.0,0.0,0.0,0.0,0.0,0.0,0.0,0.0,0.0,0.0,0.0,0.0,0.0,-3.5058,-3.5695,-3.6434,-3.6863,-3.6863,-3.7533,-3.7905,-3.7905,-3.7939,-3.8328,-3.9056,-3.9056,-3.9436,-4.0096,-4.0096,-4.0096,-4.0096,-4.0096,-4.0096,-4.0096,-4.0096,-4.0096,-4.0096,-4.0096,-4.0096,-4.0096,-4.0096,-4.0096,-4.0096,0.0,0.0,0.0,0.0,0.0,0.0,0.0,0.0,0.0,0.0,0.0,0.0,0.0,-0.7099,-0.7298,-0.7679,-0.7834,0.0,0.0,0.0,0.0,0.0,0.0,0.0,0.0,-0.7899,-0.7899,0.0,0.0,-0.8949,-1.0962,-1.1786,-1.2658,-1.3603,-1.4691,-1.4631,-1.36,-1.163,0.0,0.0,0.0,0.0,0.0,-1.3855,-1.4561,-1.5427,0.0,0.0,0.0,0.0,0.0,0.0,0.0,-1.0728,-0.9824,-0.9383,0.0,0.0,0.0,0.0,0.0,0.0,0.0,0.0,0.0,0.0,0.0,0.0,0.0,0.0,0.0,0.0,0.0,0.0,0.0,0.0,0.0,0.0,0.0,0.0,0.0,0.0,0.0,0.0,0.0,0.0,0.0,0.0,-3.4325,-3.5,-3.5404,-3.5404,-3.6057,-3.6671,-3.7178,-3.7178,-3.755,-3.8294,-3.8294,-3.8684,-3.9402,-3.9402,-3.9656,-4.0096,-4.0096,-4.0096,-4.0096,-4.0096,-4.0096,-4.0096,-4.0096,-4.0096,-4.0096,-4.0096,-4.0096,-4.0096,0.0,0.0,0.0,0.0,0.0,0.0,0.0,0.0,0.0,-0.6462,0.0,0.0,0.0,0.0,-0.7058,-0.7431,-0.7583,-0.7672,-0.7672,-0.7753,0.0,0.0,0.0,0.0,0.0,-0.7899,-0.7899,-0.7899,-0.7899,0.0,0.0,-1.0772,-1.1386,-1.185,-1.2957,-1.3972,0.0,0.0,0.0,-1.3448,0.0,0.0,-1.5799,0.0,-1.6577,0.0,0.0,0.0,0.0,0.0,0.0,0.0,0.0,-1.0947,-0.9518,-0.9302,-0.998,0.0,0.0,0.0,0.0,0.0,0.0,0.0,0.0,0.0,0.0,0.0,0.0,0.0,0.0,0.0,0.0,0.0,0.0,0.0,0.0,0.0,0.0,0.0,0.0,0.0,0.0,0.0,0.0,0.0,0.0,0.0,-3.3608,-3.4012,-3.4358,-3.4576,-3.5028,-3.5637,-3.6383,-3.64,-3.6772,-3.7533,-3.7533,-3.7793,-3.827,-3.8779,-3.9142,-3.9421,-3.9876,-4.0096,-4.0096,-4.0096,-4.0096,-4.0096,-4.0096,-4.0096,-4.0096,-4.0096,-4.0096,-4.0096,0.0,0.0,0.0,0.0,0.0,0.0,0.0,0.0,-0.6198,-0.6206,0.0,0.0,0.0,0.0,0.0,-0.7205,-0.7215,-0.7223,-0.7217,-0.7454,0.0,0.0,0.0,0.0,0.0,-0.7899,-0.7899,-0.7899,-0.7899,-0.8566,-0.983,-0.986,-1.0533,-1.1715,-1.1077,-1.2257,-1.4676,0.0,-1.4139,-1.4886,0.0,-1.5799,-1.6158,0.0,0.0,0.0,-1.8222,-1.7758,0.0,0.0,0.0,0.0,0.0,-1.1032,-0.9077,-0.9719,-1.0369,0.0,0.0,0.0,0.0,0.0,0.0,0.0,0.0,0.0,0.0,0.0,0.0,0.0,0.0,0.0,0.0,0.0,0.0,0.0,0.0,0.0,0.0,0.0,0.0,0.0,0.0,0.0,0.0,0.0,0.0,-3.3492,-3.3467,-3.3524,-3.3855,-3.4519,-3.4576,-3.4894,-3.5538,-3.5554,-3.5926,-3.6715,-3.6715,-3.6745,-3.681,-3.8262,-3.8581,-3.8077,-3.9446,-4.0037,-4.0079,-4.0096,-4.0096,-4.0096,-4.0096,-4.0096,-4.0096,-4.0096,-4.0096,-4.0096,0.0,0.0,0.0,0.0,0.0,-0.5568,-0.5763,-0.6025,-0.6271,0.0,0.0,0.0,-0.6685,-0.7205,-0.7566,-0.7624,-0.7765,-0.7748,-0.7498,-0.7379,-0.7394,-0.7583,-0.7657,-0.7687,-0.7687,-0.7834,-0.7899,-0.7899,-0.7899,-0.8094,-0.8461,-0.8957,-0.9623,-1.0443,-1.0688,-1.148,-1.2553,-1.1446,0.0,0.0,-1.4663,-1.577,0.0,0.0,0.0,0.0,0.0,-1.8837,0.0,0.0,-1.7116,-1.5771,0.0,0.0,-1.0234,-0.9965,-1.1012,-1.2179,-1.188,0.0,0.0,0.0,0.0,0.0,0.0,0.0,0.0,0.0,0.0,0.0,0.0,0.0,0.0,0.0,0.0,0.0,0.0,0.0,0.0,0.0,0.0,0.0,0.0,0.0,0.0,0.0,-3.1428,-3.1213,-3.0735,-3.1632,-3.2465,-3.3128,-3.3612,-3.3962,-3.4153,-3.4153,-3.4275,-3.4495,-3.4978,-3.5479,-3.6042,-3.6985,-3.7614,-3.7959,-3.8302,-3.8773,-3.9368,-3.9893,-4.0096,-4.0096,-4.0096,-4.0096,-4.0096,-4.0096,-4.0096,-4.0096,0.0,0.0,0.0,-0.5098,-0.5233,-0.5448,-0.5801,-0.5882,-0.6068,0.0,0.0,0.0,-0.6776,-0.7735,-0.8146,-0.7668,-0.7742,-0.7628,-0.7212,-0.7117,-0.7149,-0.7306,-0.7385,-0.7439,-0.7439,-0.765,-0.7768,-0.7768,-0.7863,-0.7899,-0.7914,-0.8297,-0.8694,-0.9075,-0.9441,-0.9965,-1.0513,0.0,0.0,0.0,-1.5292,0.0,0.0,-1.8897,-1.9346,0.0,0.0,0.0,-1.9106,-1.9106,-1.8222,0.0,0.0,-1.3104,-1.2299,-1.1381,-1.231,0.0,-1.3163,0.0,0.0,0.0,0.0,0.0,0.0,0.0,0.0,0.0,0.0,0.0,0.0,0.0,0.0,0.0,0.0,0.0,0.0,0.0,0.0,0.0,0.0,0.0,0.0,0.0,0.0,-3.0216,-3.0449,-3.0309,-2.9633,-3.0342,-3.1206,-3.2139,-3.255,-3.3012,-3.3582,-3.3582,-3.3582,-3.3608,-3.3987,-3.4248,-3.4439,-3.5465,-3.5993,-3.6168,-3.6741,-3.759,-3.8614,-3.9033,-3.9581,-4.0096,-4.0096,-4.0096,-4.0096,-4.0096,-4.0096,-4.0096,0.0,0.0,-0.5117,-0.5176,-0.5185,-0.5352,-0.5836,-0.5755,-0.5874,0.0,-0.6353,-0.6527,-0.7405,-0.8511,-0.8776,-0.7766,-0.7568,-0.7275,-0.6768,-0.6821,-0.6883,-0.6908,-0.7072,-0.717,-0.717,-0.7424,-0.7552,-0.7552,-0.7761,-0.787,-0.787,-0.7892,-0.7899,-0.7899,-0.7899,-0.8237,-0.877,0.0,0.0,-1.3887,-1.6219,-1.7429,0.0,0.0,-1.9648,0.0,-1.9708,-1.9708,-1.9708,-1.9708,-1.8867,0.0,0.0,-1.5067,-1.4752,-1.3505,-1.4017,0.0,-1.5007,-1.55,0.0,0.0,0.0,0.0,-1.7924,-1.7908,0.0,0.0,0.0,0.0,0.0,0.0,0.0,0.0,0.0,0.0,0.0,0.0,0.0,0.0,0.0,0.0,0.0,-2.8981,-2.9373,-2.939,-2.9939,-3.0017,-2.9409,-2.9457,-3.0038,-3.1241,-3.1334,-3.1977,-3.3222,-3.3264,-3.3296,-3.3375,-3.3469,-3.3198,-3.2629,-3.3964,-3.4233,-3.3779,-3.5002,-3.6341,-3.7646,-3.7715,-3.8674,-4.0096,-4.0096,-4.0096,-4.0096,-4.0096,-4.0096,-4.0096,0.0,-0.5098,-0.5224,-0.5606,-0.5665,-0.5877,-0.6511,-0.658,-0.6675,-0.7023,-0.76,-0.8514,-0.9851,-0.9842,-0.9654,-0.9429,-0.8626,-0.7966,-0.7584,-0.6996,-0.6723,-0.6899,-0.6936,-0.696,-0.696,-0.7168,-0.728,-0.728,-0.753,-0.7665,-0.7665,-0.7827,-0.7899,-0.7899,-0.7899,-0.7974,-0.8229,0.0,0.0,-1.3044,-1.3553,0.0,-1.8521,-1.8807,-1.9226,-1.9708,-1.9708,-1.9708,-1.9708,0.0,-1.9166,-1.8326,0.0,0.0,0.0,0.0,0.0,-1.6338,-1.6338,-1.6832,-1.7101,0.0,0.0,0.0,0.0,-1.6249,0.0,0.0,0.0,0.0,0.0,0.0,0.0,0.0,0.0,0.0,0.0,0.0,0.0,0.0,0.0,0.0,0.0,-2.759,-2.7976,-2.7974,-2.8101,-2.8127,-2.7989,-2.8487,-2.8925,-2.9177,-2.9716,-3.0344,-3.1101,-3.1101,-3.1389,-3.1923,-3.2504,-3.2722,-3.2629,-3.343,-3.3738,-3.3614,-3.3854,-3.4478,-3.5363,-3.5878,-3.7665,-4.0096,-4.0096,-4.0096,-4.0096,-4.0096,-4.0096,-4.0096,0.0,-0.5098,-0.5244,-0.5714,-0.5803,-0.6062,-0.6836,-0.6748,-0.6846,-0.7552,-0.8824,-0.9777,-1.0106,-1.0511,-1.0521,-0.9956,-0.9165,-0.8378,-0.7646,-0.7228,-0.6932,-0.6753,-0.6748,-0.6748,-0.6748,-0.6947,-0.7048,-0.7048,-0.7286,-0.7394,-0.7402,-0.7508,-0.7845,-0.8379,-0.8122,-0.8296,-0.8874,0.0,-1.1242,-1.2427,-1.4439,0.0,-1.8713,-1.8768,-1.9002,-1.9262,-1.9006,-1.928,-1.9792,-1.9722,-1.969,0.0,0.0,-1.87,-1.8506,0.0,-1.77,-1.8117,-1.7788,-1.7938,-1.8059,-1.7416,0.0,0.0,0.0,0.0,0.0,0.0,0.0,0.0,0.0,0.0,0.0,0.0,0.0,0.0,0.0,0.0,0.0,0.0,0.0,0.0,0.0,-2.6393,-2.6746,-2.7091,-2.7106,-2.7255,-2.7585,-2.7929,-2.8248,-2.8592,-2.8921,-2.94,-3.0043,-3.0043,-3.0372,-3.1002,-3.1394,-3.1728,-3.2064,-3.2394,-3.2555,-3.2559,-3.2525,-3.3156,-3.4218,-3.4535,-3.5955,-3.8025,-3.8688,-3.8941,-3.8995,-3.9358,-3.9279,-3.8995,0.0,-0.5069,-0.5244,-0.5714,-0.5861,-0.6184,-0.6982,-0.6842,-0.7078,-0.8257,-0.9762,-1.0564,-1.0186,-1.1002,-1.1259,-1.0422,-0.9686,-0.8873,-0.792,-0.7682,-0.7378,-0.6937,-0.6712,-0.6649,-0.6762,-0.6808,-0.6841,-0.6841,-0.7039,-0.7138,-0.7146,-0.7186,-0.7752,-0.874,-0.84,-0.8866,0.0,0.0,0.0,-1.2664,0.0,-1.7654,-1.825,-1.8579,-1.8705,-1.8645,-1.826,-1.8787,-1.9692,-1.9571,0.0,-2.0421,-1.9863,-2.0064,0.0,0.0,0.0,0.0,0.0,0.0,0.0,0.0,0.0,-1.9151,0.0,0.0,0.0,-1.9136,0.0,0.0,0.0,0.0,0.0,0.0,0.0,0.0,0.0,0.0,0.0,0.0,0.0,0.0,0.0,-2.5211,-2.5555,-2.6348,-2.6153,-2.6447,-2.736,-2.7405,-2.772,-2.8382,-2.8412,-2.8727,-2.9412,-2.9427,-2.9774,-3.0507,-3.0507,-3.0838,-3.1511,-3.1511,-3.1511,-3.1511,-3.1511,-3.2169,-3.3295,-3.3419,-3.4142,-3.5312,-3.6969,-3.7614,-3.77,-3.8421,-3.8302,-3.7908,-0.4745,-0.4942,-0.5244,-0.5714,-0.6095,-0.6504,-0.7021,-0.7359,-0.8029,-0.9355,-1.0057,-1.0852,-1.1952,0.0,0.0,0.0,0.0,0.0,-0.9542,0.0,-0.8162,-0.81,-0.7147,-0.6815,-0.7294,-0.6867,-0.6633,-0.6633,-0.6841,-0.6936,-0.6936,-0.7114,-0.7557,-0.8209,-0.8627,0.0,0.0,0.0,-1.2745,0.0,-1.5491,-1.6002,0.0,-1.7611,-1.8021,-1.802,-1.8087,-1.8492,-1.901,0.0,-1.9349,-1.9807,0.0,-1.9753,0.0,0.0,0.0,0.0,0.0,0.0,0.0,0.0,-2.0049,0.0,0.0,0.0,-1.9166,-1.8132,0.0,0.0,0.0,0.0,0.0,0.0,0.0,0.0,0.0,0.0,0.0,0.0,0.0,0.0,0.0,0.0,-2.4358,-2.563,-2.4612,-2.4747,-2.6602,-2.6692,-2.7031,-2.769,-2.7705,-2.8049,-2.8712,-2.8712,-2.931,-3.0507,-3.0507,-3.0838,-3.1511,-3.1511,-3.1511,-3.1511,-3.1511,-3.1598,-3.179,-3.2375,-3.2749,-3.3122,-3.5853,-3.6902,-3.701,-3.768,-3.7863,-3.7806,-0.4636,-0.4922,-0.5244,-0.5714,-0.5939,-0.6279,-0.6992,-0.8071,-0.9104,-0.9939,-1.0683,-1.1464,0.0,0.0,0.0,0.0,0.0,-1.1043,0.0,0.0,-0.9189,-0.9228,-0.8175,-0.7698,-0.7914,-0.7353,-0.6915,-0.6599,-0.6693,-0.6723,-0.6723,-0.6811,-0.7679,-0.9159,-0.9381,0.0,-1.2116,0.0,0.0,0.0,0.0,0.0,0.0,-1.6852,-1.7362,-1.7183,-1.7907,-1.8526,-1.9071,0.0,-1.9814,0.0,0.0,0.0,0.0,0.0,0.0,0.0,0.0,0.0,0.0,0.0,0.0,0.0,0.0,0.0,-1.9076,0.0,0.0,0.0,0.0,0.0,0.0,0.0,0.0,0.0,0.0,0.0,0.0,0.0,0.0,0.0,0.0,0.0,0.0,0.0,0.0,-2.3759,-2.5337,-2.6183,-2.6746,-2.7016,-2.7405,-2.7735,-2.8034,-2.8034,-2.8472,-2.94,-2.94,-2.9939,-3.0913,-3.0913,-3.1122,-3.1511,-3.1511,-3.1511,-3.1525,-3.1795,-3.1914,-3.2092,-3.3671,-3.4764,-3.5549,-3.6275,-3.6501,-3.6523,-0.4496,0.0,0.0,0.0,-0.5747,-0.6301,-0.7295,-0.8496,-0.9513,-1.0215,0.0,0.0,-1.2206,-1.2362,0.0,0.0,0.0,-1.1963,0.0,0.0,-1.0284,-1.0312,-0.9305,0.0,0.0,-0.8017,-0.7378,-0.6815,-0.6674,-0.6674,-0.6815,-0.6674,-0.7698,-0.9705,-0.9993,-1.1272,-1.3203,0.0,0.0,-1.3581,-1.4218,-1.4528,-1.4792,-1.6409,-1.6904,-1.6854,-1.7686,-1.8438,-1.9127,-1.9481,-1.9974,0.0,-2.0509,0.0,0.0,0.0,0.0,0.0,-1.983,0.0,0.0,0.0,0.0,0.0,0.0,0.0,0.0,0.0,0.0,0.0,0.0,0.0,0.0,0.0,0.0,0.0,0.0,0.0,0.0,0.0,0.0,0.0,0.0,0.0,0.0,0.0,0.0,0.0,-2.4231,-2.5255,-2.6019,-2.6572,-2.7076,-2.7405,-2.76,-2.76,-2.7944,-2.8607,-2.8607,-2.9265,-3.0507,-3.0507,-3.0881,-3.1511,-3.1511,-3.1511,-3.1511,-3.1511,-3.1511,-3.1555,-3.2034,-3.2946,-3.4071,-3.4958,-3.5276,-3.5332,-0.4262,-0.4527,0.0,0.0,0.0,-0.6826,-0.815,-0.8404,-0.8884,-1.0136,0.0,0.0,0.0,0.0,0.0,0.0,0.0,-1.2235,-1.2076,0.0,-1.1423,0.0,0.0,-0.9816,0.0,0.0,-0.7976,-0.7381,-0.6853,-0.6865,-0.7369,-0.684,-0.7508,-0.9176,-1.0206,-1.1608,-1.3235,-1.3821,-1.4953,-1.6274,-1.5281,-1.5495,-1.6401,0.0,-1.6751,-1.7385,-1.742,0.0,0.0,-1.9024,-1.938,0.0,0.0,0.0,0.0,0.0,0.0,0.0,0.0,0.0,0.0,-1.9875,0.0,0.0,0.0,0.0,-2.0468,0.0,0.0,0.0,0.0,0.0,-1.8463,-1.7818,0.0,0.0,0.0,0.0,0.0,0.0,0.0,0.0,0.0,0.0,0.0,0.0,0.0,0.0,-2.346,-2.367,-2.4582,-2.6527,-2.6617,-2.6941,-2.7585,-2.76,-2.7944,-2.8607,-2.8607,-2.9265,-3.0507,-3.0507,-3.0881,-3.1511,-3.1511,-3.1511,-3.1511,-3.1511,-3.1511,-3.1511,-3.1525,-3.1944,-3.2721,-3.4039,-3.4518,-3.4638,0.0,0.0,0.0,0.0,0.0,-0.6634,-0.8506,-0.9295,-1.0098,0.0,0.0,0.0,0.0,0.0,-1.2814,0.0,0.0,-1.3113,-1.2722,-1.2563,0.0,0.0,0.0,-1.1719,0.0,0.0,-0.9843,-0.8524,-0.8347,-0.816,-0.7989,-0.7811,-0.8411,-0.9679,-1.0797,-1.2231,0.0,0.0,0.0,0.0,0.0,-1.5789,-1.7084,0.0,0.0,-1.7498,-1.8204,-1.8694,0.0,-1.9419,-1.9637,-1.981,-1.9786,-1.9791,-1.9784,-1.9806,-1.9804,0.0,0.0,0.0,-2.0583,-1.9883,0.0,0.0,0.0,0.0,0.0,0.0,0.0,0.0,0.0,0.0,-1.8627,-1.8386,-1.7624,0.0,0.0,0.0,0.0,0.0,0.0,0.0,0.0,0.0,0.0,0.0,0.0,0.0,0.0,-2.2906,-2.4118,-2.5232,-2.6138,-2.6926,-2.7585,-2.76,-2.7705,-2.7944,-2.7944,-2.8408,-2.9265,-2.9699,-3.0253,-3.0853,-3.1316,-3.1511,-3.1511,-3.1511,-3.1511,-3.1511,-3.1511,-3.1645,-3.1944,-3.2856,-3.3455,-3.3918,-0.4312,0.0,0.0,0.0,0.0,0.0,0.0,0.0,0.0,0.0,-1.1973,0.0,-1.2827,0.0,-1.3158,0.0,-1.3379,-1.3484,-1.2988,-1.2985,0.0,-1.2964,-1.3063,0.0,0.0,0.0,-1.1039,-0.935,-0.938,-0.9114,-0.8575,-0.8386,-0.8876,-0.9956,0.0,0.0,0.0,0.0,-1.5475,0.0,0.0,-1.643,0.0,0.0,-1.7965,-1.8053,0.0,-1.9121,-1.9334,-1.9685,-1.9788,-1.9807,-1.9788,-1.9793,-1.9787,-1.9798,-1.981,-1.9784,-1.979,-2.0133,0.0,-1.9852,-2.0062,0.0,-1.9811,0.0,0.0,0.0,0.0,0.0,0.0,0.0,-1.8972,-1.8747,-1.7773,-1.6891,0.0,0.0,0.0,0.0,0.0,0.0,0.0,0.0,-1.8044,-1.8986,0.0,0.0,0.0,0.0,-2.3445,-2.4575,-2.5674,-2.6686,-2.7585,-2.76,-2.76,-2.76,-2.76,-2.7959,-2.8607,-2.9041,-2.9699,-3.0522,-3.0943,-3.1271,-3.1511,-3.1511,-3.1511,-3.1511,-3.1511,-3.1511,-3.1585,-3.2243,-3.2931,-3.3589,0.0,0.0,0.0,0.0,-0.651,0.0,0.0,0.0,-1.1219,0.0,-1.2252,-1.2408,-1.2915,-1.3301,-1.3379,-1.3003,-1.3311,0.0,-1.2993,-1.3036,0.0,0.0,-1.3059,-1.2807,-1.2156,0.0,0.0,0.0,-0.9906,-0.9654,-0.9128,-0.8602,-0.8915,-0.9981,-1.161,0.0,-1.3336,-1.5497,-1.6463,-1.6588,-1.7162,-1.7436,-1.7576,-1.8607,-1.902,-1.9045,-1.9045,-1.9359,-1.9798,-1.9798,-1.9798,-1.9798,-1.9798,-1.9798,-1.9798,-1.9798,-1.9798,-1.9813,-1.9798,-1.9812,-1.9838,-1.9809,0.0,0.0,0.0,0.0,-2.0691,0.0,0.0,0.0,0.0,0.0,0.0,-1.8852,-1.8192,-1.731,0.0,0.0,0.0,0.0,0.0,0.0,0.0,0.0,-1.6907,-1.9378,-1.7848,0.0,0.0,0.0,-2.2532,-2.4455,-2.5217,-2.6228,-2.754,-2.7585,-2.76,-2.76,-2.76,-2.7944,-2.8547,-2.8577,-2.928,-3.0462,-3.0492,-3.0896,-3.1511,-3.1511,-3.1511,-3.1511,-3.1511,-3.1511,-3.1585,-3.2213,-3.2886,-3.3529,-0.5217,-0.5695,-0.6438,0.0,-0.784,-0.8793,0.0,0.0,0.0,0.0,-1.291,-1.2998,-1.3704,-1.388,-1.3899,-1.3792,-1.389,0.0,0.0,0.0,0.0,-1.3385,-1.422,-1.4109,-1.2796,-1.2895,0.0,-1.1139,0.0,0.0,-0.9767,-0.9331,-0.9402,-0.9956,0.0,0.0,-1.3286,-1.4714,-1.604,-1.7174,-1.7348,-1.7877,0.0,0.0,-1.9246,-1.9597,-1.9597,-1.9685,-1.9798,-1.9798,-1.9798,-1.9798,-1.9798,-1.9798,-1.9798,-1.9798,-1.9798,-1.9799,-1.9801,-2.0131,-2.0348,-1.9906,-2.0115,-2.0297,0.0,0.0,0.0,0.0,0.0,0.0,0.0,0.0,0.0,-1.9471,-1.8882,0.0,0.0,0.0,0.0,0.0,0.0,0.0,0.0,0.0,-1.728,-1.7458,0.0,0.0,0.0,0.0,0.0,-2.3131,-2.4762,-2.6004,-2.6866,-2.7345,-2.76,-2.76,-2.76,-2.769,-2.7884,-2.8368,-2.9041,-2.9849,-3.0313,-3.0896,-3.1511,-3.1511,-3.1511,-3.1511,-3.1511,-3.1511,-3.1525,-3.169,-3.2168,-3.2796,-0.5903,0.0,0.0,-0.8489,0.0,0.0,-1.091,0.0,0.0,-1.2858,-1.3064,0.0,-1.3782,-1.4189,-1.4309,-1.4124,-1.428,0.0,0.0,0.0,0.0,-1.3789,-1.4225,-1.4098,-1.3253,-1.3369,0.0,-1.1563,0.0,0.0,-0.9781,-0.9523,-0.9489,0.0,0.0,-1.2413,0.0,-1.4915,-1.6304,-1.7423,-1.7674,0.0,0.0,-1.9259,-1.9547,-1.9798,-1.9798,-1.9798,-1.9798,-1.9798,-1.9798,-1.9798,-1.9798,-1.9798,-1.9798,-1.9798,-1.9798,-1.9798,-1.9798,-2.0037,-2.0305,-2.022,-2.0206,-2.0241,-2.0154,-2.0247,-2.0346,0.0,0.0,0.0,0.0,0.0,0.0,0.0,0.0,0.0,0.0,0.0,0.0,0.0,0.0,0.0,0.0,0.0,0.0,0.0,0.0,0.0,0.0,0.0,0.0,-2.2658,-2.4298,-2.563,-2.6572,-2.727,-2.76,-2.76,-2.76,-2.76,-2.76,-2.8004,-2.8517,-2.919,-2.9819,-3.0477,-3.1077,-3.1376,-3.1511,-3.1511,-3.1511,-3.1511,-3.1511,-3.1511,-3.1735,-3.2093,0.0,0.0,0.0,0.0,0.0,0.0,0.0,-1.1808,0.0,-1.2492,0.0,-1.3691,-1.375,-1.4424,-1.4717,-1.4309,0.0,-1.4707,-1.4299,-1.428,-1.425,-1.4192,-1.3867,-1.3623,-1.3506,-1.362,0.0,0.0,0.0,0.0,-0.951,-0.938,0.0,0.0,0.0,0.0,0.0,-1.569,-1.6917,0.0,-1.7961,-1.8485,-1.9021,-1.9469,-1.9669,-1.9669,-1.9773,-1.9798,-1.9798,-1.9798,-1.9798,-1.9798,-1.9798,-1.9798,-1.9798,-1.9798,-1.9798,-1.9798,-1.9798,-1.9911,-2.0112,-2.049,-2.0314,-2.0116,-2.041,-2.0119,-1.9985,-2.0549,-2.0211,-2.013,0.0,0.0,0.0,0.0,0.0,0.0,0.0,0.0,0.0,0.0,0.0,0.0,0.0,0.0,0.0,0.0,0.0,0.0,0.0,0.0,0.0,-2.2523,-2.3887,-2.5187,-2.6452,0.0,-2.76,-2.76,-2.76,-2.76,-2.76,-2.76,-2.7974,-2.8637,-2.9295,-2.9924,-3.0552,-3.1212,-3.1511,-3.1511,-3.1511,-3.1511,-3.1511,-3.1511,-3.1511,-3.1585,0.0,0.0,0.0,0.0,0.0,-1.0038,-0.9897,-1.132,-1.2634,-1.3301,-1.4071,-1.4697,-1.5039,-1.5205,-1.5273,-1.5167,-1.5254,0.0,0.0,0.0,0.0,-1.4687,-1.46,-1.4238,-1.3525,-1.3209,-1.2566,0.0,0.0,0.0,-0.9583,-0.9112,0.0,0.0,0.0,0.0,-1.401,-1.6278,0.0,-1.7364,-1.7784,-1.8274,-1.8754,-1.8876,-1.8874,-1.8953,-1.9579,-1.9798,-1.9798,-1.9798,-1.9798,-1.9798,-1.9798,-1.9798,-1.9798,-1.9798,-1.9798,-1.9798,-1.9798,-2.0489,-2.0991,-2.0162,-2.0577,-2.0981,-2.0142,-1.9876,-1.9826,-1.9952,-1.9863,-1.9872,-2.0075,0.0,0.0,0.0,0.0,0.0,0.0,0.0,0.0,0.0,0.0,0.0,0.0,0.0,0.0,0.0,0.0,0.0,0.0,0.0,0.0,0.0,-2.3648,0.0,0.0,0.0,-2.76,-2.76,-2.76,-2.76,-2.76,-2.76,-2.7974,-2.8637,-2.9295,-2.9924,-3.0552,-3.1212,-3.1511,-3.1511,-3.1511,-3.1511,-3.1511,-3.1511,-3.1511,-3.1525,0.0,0.0,0.0,0.0,0.0,0.0,0.0,-1.112,0.0,-1.2285,-1.3044,-1.3794,-1.439,-1.4654,-1.4962,-1.5352,-1.541,-1.541,-1.541,-1.541,-1.5322,-1.5117,-1.4902,0.0,-1.418,-1.3535,-1.2891,-1.2269,0.0,-1.0036,-0.9576,-0.9087,-0.9098,-0.9597,0.0,-1.2728,0.0,0.0,0.0,-1.6748,-1.7168,-1.7637,-1.814,-1.814,-1.814,-1.8221,-1.8953,-1.9228,-1.9281,-1.9669,-1.9798,-1.9798,-1.9798,-1.9798,-1.9798,-1.9798,-2.0012,-2.0214,-1.9886,-2.044,-2.0955,-2.0415,-2.0426,-2.0552,-2.0313,-2.0012,-1.9798,-1.9798,-1.9798,-1.9813,-1.9817,-1.9794,0.0,0.0,0.0,0.0,0.0,0.0,0.0,0.0,0.0,0.0,0.0,0.0,0.0,0.0,0.0,0.0,0.0,0.0,0.0,0.0,0.0,0.0,0.0,0.0,0.0,-2.76,-2.76,-2.76,-2.76,-2.76,-2.7779,-2.8113,-2.8786,-2.943,-3.0103,-3.1092,-3.1511,-3.1511,-3.1511,-3.1511,-3.1511,-3.1511,-3.1511,-3.1511,0.0,-0.8697,0.0,0.0,-0.9552,0.0,-1.008,-1.0934,-1.1467,-1.1263,-1.1988,-1.2764,-1.3406,-1.3759,-1.4273,-1.5079,-1.5138,-1.5235,-1.5381,-1.541,-1.541,-1.541,-1.5098,-1.4873,-1.4813,-1.4121,-1.3486,0.0,0.0,0.0,-0.9737,-0.9437,-0.9412,0.0,0.0,0.0,0.0,0.0,-1.5814,-1.6174,-1.657,-1.6988,-1.7357,-1.7357,-1.7357,-1.7468,-1.8194,-1.8474,-1.8593,-1.948,-1.9769,-1.9823,-1.9949,-1.9987,-2.0012,-2.0125,-2.0515,-2.0767,-2.0288,-2.0603,-2.0993,-2.0754,-2.044,-2.0213,-2.0465,-2.0125,-1.9798,-1.9798,-1.9798,-1.9813,-1.9817,-1.9801,0.0,0.0,0.0,0.0,0.0,0.0,0.0,0.0,0.0,0.0,0.0,0.0,0.0,0.0,0.0,0.0,-1.6636,-1.7339,0.0,0.0,0.0,-2.3571,-2.5375,0.0,-2.6941,-2.76,-2.76,-2.76,-2.76,-2.76,-2.76,-2.763,-2.8308,-2.9041,-2.9864,-3.1017,-3.1511,-3.1511,-3.1511,-3.1511,-3.1511,-3.1511,-3.1511,-3.1511,0.0,0.0,0.0,0.0,0.0,0.0,0.0,-1.0461,-1.0944,-1.1634,-1.2434,-1.2959,-1.305,-1.3075,-1.3425,-1.4243,-1.4293,-1.4628,-1.5352,-1.541,-1.541,-1.541,-1.5371,-1.5176,-1.4823,-1.4735,-1.4082,0.0,0.0,-1.1443,-1.0244,-1.0506,-1.1067,0.0,0.0,0.0,0.0,-1.5811,-1.6387,-1.5966,-1.637,-1.6564,-1.6595,-1.6595,-1.6595,-1.6708,-1.744,-1.7715,-1.7893,-1.9175,-1.9709,-1.9899,-2.044,-2.0616,-2.0717,-2.1207,-2.1368,-2.1393,-2.1343,-2.1732,-2.192,-2.0943,-2.1031,-2.1079,-2.0112,-1.9849,-1.9798,-1.9798,-1.9798,-1.9813,-1.9817,-1.9807,-1.9806,0.0,0.0,0.0,0.0,0.0,0.0,0.0,0.0,0.0,0.0,0.0,0.0,0.0,0.0,0.0,-1.6651,-1.7339,-1.8655,-2.0718,0.0,-2.3325,-2.4679,-2.5959,-2.6941,-2.76,-2.76,-2.76,-2.76,-2.76,-2.76,-2.763,-2.8308,-2.9295,-3.0477,-3.1197,-3.1511,-3.1511,-3.1511,-3.1511,-3.1511,-3.1511,-3.1511,-3.1511,0.0,0.0,0.0,0.0,0.0,0.0,0.0,-1.0889,-1.1208,-1.1525,-1.1557,-1.1756,-1.2235,-1.2297,-1.2596,-1.3394,-1.3906,-1.4332,-1.4658,-1.5138,-1.541,-1.541,-1.541,-1.5332,-1.5166,-1.4912,-1.4541,0.0,0.0,-1.2227,-1.1436,-1.1032,0.0,0.0,0.0,-1.3896,-1.3971,-1.5137,-1.5475,-1.5268,-1.5682,-1.5835,-1.5865,-1.6165,-1.6266,-1.6385,-1.7381,-1.7712,-1.7881,-1.8859,-1.9394,-1.9853,-2.0869,-2.1182,-2.1232,-2.1458,-2.1719,-2.1907,-2.1581,-2.1895,-2.2121,-2.1383,-2.1106,-2.0905,-2.0453,-2.0049,-1.9798,-1.9798,-1.9798,-1.9812,-1.9812,-1.9796,-1.9676,0.0,0.0,0.0,0.0,0.0,0.0,0.0,0.0,0.0,0.0,0.0,0.0,0.0,0.0,0.0,0.0,0.0,0.0,-2.0034,0.0,-2.2906,-2.459,-2.554,-2.6527,-2.76,-2.76,-2.76,-2.76,-2.76,-2.76,-2.763,-2.8308,-2.9116,-2.9998,-3.0657,-3.1137,-3.1511,-3.1511,-3.1511,-3.1511,-3.1511,-3.1511,-3.1511,-0.9817,0.0,-0.9986,0.0,-1.0715,-1.0882,-1.1089,-1.1296,-1.1389,-1.1389,-1.1069,-1.1067,-1.1617,-1.1681,-1.1955,-1.2702,-1.338,-1.3829,-1.3961,-1.4856,-1.5382,-1.5382,-1.5516,0.0,-1.5771,-1.5254,-1.4971,-1.4971,-1.3972,0.0,-1.2564,-1.194,0.0,0.0,-1.3656,-1.4228,-1.4523,-1.5117,-1.5361,-1.5381,-1.5684,-1.5771,-1.583,-1.6143,-1.629,-1.6391,-1.7174,-1.7471,-1.7606,-1.8511,-1.903,-1.9547,-2.0917,-2.1521,-2.1757,-2.192,-2.2246,-2.2443,-2.2083,-2.2259,-2.2422,-2.187,-2.1345,-2.0893,-2.0729,-2.0239,-1.9798,-1.9798,-1.9798,-1.9798,-1.9798,-1.9812,-1.9613,-1.9087,0.0,0.0,0.0,0.0,0.0,0.0,0.0,-1.6604,0.0,0.0,0.0,0.0,0.0,0.0,0.0,0.0,0.0,0.0,0.0,0.0,0.0,-2.5084,-2.6113,-2.76,-2.76,-2.76,-2.76,-2.76,-2.76,-2.763,-2.8308,-2.8966,-2.9651,-3.0253,-3.0883,-3.1511,-3.1511,-3.1511,-3.1511,-3.1511,-3.1511,-3.1511,-1.0186,-1.0016,-0.9964,-1.1436,-1.1509,-1.1382,-1.1382,-1.1389,-1.1389,-1.1389,-1.1382,-1.1382,-1.141,-1.141,-1.162,-1.2143,-1.2531,-1.2923,-1.3371,-1.4609,-1.5303,0.0,0.0,-1.629,-1.6677,-1.5859,-1.5371,-1.5371,0.0,0.0,-1.3486,0.0,-1.3701,-1.4124,-1.4981,-1.5391,-1.5449,-1.6307,-1.6677,-1.6677,-1.6687,-1.6687,-1.6687,-1.6687,-1.6697,-1.6697,-1.6697,-1.6697,-1.6914,-1.8174,-1.8627,-1.8892,-2.0502,-2.1587,-2.238,-2.2932,-2.3095,-2.3095,-2.3083,-2.3095,-2.2957,-2.2406,-2.1882,-2.1358,-2.0817,-2.0239,-1.9798,-1.9798,-1.9798,-1.9798,-1.9798,-1.9798,-1.9611,-1.9094,0.0,0.0,0.0,0.0,0.0,0.0,-1.7075,-1.6994,-1.7275,0.0,0.0,0.0,0.0,0.0,0.0,0.0,0.0,-1.9854,-2.0427,0.0,-2.4567,-2.4663,-2.5678,-2.76,-2.76,-2.76,-2.76,-2.76,-2.76,-2.763,-2.8308,-2.8966,-2.9651,-3.0253,-3.0883,-3.1511,-3.1511,-3.1511,-3.1511,-3.1511,-3.1511,-3.1511,-0.8906,-0.9386,-0.9805,-1.0381,-1.1169,-1.173,-1.173,-1.1897,-1.2024,-1.2024,-1.2024,-1.2024,-1.2024,-1.1663,-1.1451,0.0,-1.2311,-1.277,0.0,-1.3827,-1.4345,-1.4345,-1.5108,-1.5619,-1.5748,-1.6093,-1.6287,-1.6287,0.0,0.0,0.0,-1.5107,-1.5351,-1.5498,-1.6055,-1.6287,-1.6297,-1.658,-1.6697,-1.6697,-1.6697,-1.6697,-1.6726,-1.7061,-1.7178,-1.7217,-1.75,-1.7607,-1.766,-1.8045,-1.8606,-1.9176,-1.9684,-2.0859,-2.2165,-2.2895,-2.3108,-2.3108,-2.3108,-2.3108,-2.3058,-2.2895,-2.2431,-2.1907,-2.1383,-2.0489,-1.9798,-1.9798,-1.9798,-1.9798,-1.9798,-1.9798,-1.9497,-1.8605,-1.8309,0.0,0.0,0.0,0.0,0.0,0.0,-1.6653,0.0,-1.5871,0.0,0.0,0.0,0.0,0.0,0.0,0.0,0.0,-2.0576,0.0,-2.3833,-2.477,-2.5789,-2.6852,-2.6852,-2.6852,-2.6878,-2.7382,-2.76,-2.76,-2.7824,-2.8558,-2.9621,-2.9816,-3.0537,-3.1511,-3.1511,-3.1511,-3.1511,-3.1511,-3.1511,-3.1511,-0.8057,-0.8619,-0.9239,-1.011,-1.0917,-1.162,-1.1995,-1.2184,-1.2305,-1.2305,-1.2305,-1.2305,-1.2305,-1.1971,0.0,-1.1603,-1.2179,-1.2506,-1.2392,-1.3305,-1.3813,-1.3813,-1.4589,-1.5246,-1.5794,-1.6053,0.0,-1.6973,-1.6533,-1.6182,-1.5878,-1.6191,-1.6318,-1.6328,-1.6777,-1.6973,-1.695,-1.7116,-1.7184,-1.7184,-1.7184,-1.7184,-1.7213,-1.7519,-1.7617,-1.7656,-1.791,-1.8008,-1.8008,-1.8008,-1.8361,-1.8888,-1.921,-2.0042,-2.1164,-2.231,-2.2854,-2.3108,-2.3108,-2.3108,-2.3108,-2.3108,-2.2694,-2.2121,-2.1383,-2.0666,-2.0062,-1.9849,-1.9798,-1.9798,-1.9798,-1.9798,-1.9447,-1.838,-1.8204,-1.7802,-1.6651,0.0,0.0,0.0,0.0,0.0,0.0,-1.6599,0.0,0.0,0.0,0.0,0.0,0.0,0.0,-1.8938,-2.0443,0.0,-2.3515,-2.4325,-2.5178,-2.6095,-2.6095,-2.6095,-2.6095,-2.6561,-2.6771,-2.6771,-2.6771,-2.7513,-2.8707,-2.8707,-2.9435,-3.0554,-3.0554,-3.0554,-3.0614,-3.0925,-3.1058,-3.1087,-0.7518,-0.7744,-0.8385,0.0,-1.0708,0.0,-1.204,-1.2261,-1.2305,-1.2305,-1.2305,-1.2305,-1.2305,-1.2305,-1.2191,-1.196,0.0,0.0,0.0,-1.297,-1.36,-1.36,-1.4143,-1.505,-1.6375,-1.5679,-1.596,-1.7356,-1.698,-1.6785,-1.6785,-1.6785,-1.6785,-1.6804,-1.7246,-1.7432,-1.7484,-1.7842,-1.8008,-1.8008,-1.8008,-1.8008,-1.8008,-1.8008,-1.8008,-1.8008,-1.8008,-1.8008,-1.8008,-1.8008,-1.8008,-1.8134,-1.8944,-1.9233,-1.9628,-2.1333,-2.2384,-2.3005,-2.2944,-2.3005,-2.3078,-2.3035,-2.2664,-2.2046,-2.1043,-2.0742,-2.0541,-1.9974,-1.9823,-1.9798,-1.9798,-1.9798,-1.9447,-1.838,-1.8204,-1.7802,-1.6651,0.0,0.0,0.0,0.0,0.0,0.0,-1.7807,-1.7696,0.0,0.0,0.0,0.0,0.0,-1.8428,-1.9188,-2.0162,-2.1596,-2.3566,-2.3486,-2.409,-2.5315,-2.537,-2.537,-2.5315,-2.537,-2.5398,-2.5398,-2.5398,-2.6061,-2.7138,-2.7179,-2.7884,-2.8947,-2.8989,-2.9002,-2.9097,-2.9919,-3.0208,-3.0329,0.0,0.0,-0.7931,-0.8423,-0.9771,-1.0901,-1.1124,-1.1805,-1.2305,-1.2305,-1.2305,-1.2305,-1.2305,-1.2305,-1.2271,-1.2204,-1.2265,-1.2271,-1.2204,-1.2478,-1.2629,-1.2629,-1.3454,-1.405,-1.4378,-1.4928,-1.5748,-1.6784,-1.7408,-1.7672,-1.7672,-1.7672,-1.7672,-1.7715,-1.7812,-1.7861,-1.7871,-1.7969,-1.8008,-1.8008,-1.8008,-1.8008,-1.8008,-1.8008,-1.8008,-1.8008,-1.8008,-1.8008,-1.8008,-1.8008,-1.8008,-1.8042,-1.8236,-1.8754,-1.9529,-2.059,-2.1522,-2.2032,-2.1353,-2.2113,-2.2944,-2.2353,-2.2223,-2.2246,-2.1983,-2.1295,-2.0654,-2.0515,-2.0112,-1.9798,-1.9798,-1.9798,-1.9447,-1.838,-1.8204,-1.7802,-1.6651,-1.65,0.0,0.0,-1.7095,-1.7384,-1.7384,-1.7511,-1.747,0.0,0.0,0.0,0.0,-1.8274,-1.9272,-2.036,-2.099,-2.1971,-2.3376,-2.3862,-2.4262,-2.4567,-2.5119,-2.5119,-2.4567,-2.5147,-2.5398,-2.5398,-2.5398,-2.5854,-2.6602,-2.7043,-2.7665,-2.8415,-2.8854,-2.9002,-2.9034,-2.9223,-2.9317,-2.9317,-0.63,-0.6756,-0.7249,-0.7706,-0.8685,-0.9588,-1.004,-1.0975,-1.162,-1.162,-1.1996,-1.2305,-1.2305,-1.2305,-1.2305,-1.2305,-1.2305,-1.2305,-1.2305,-1.2305,-1.2305,-1.2305,-1.2806,-1.3273,-1.3709,-1.4243,-1.4985,-1.5965,-1.6897,-1.7354,-1.7354,-1.7794,-1.8008,-1.8008,-1.8008,-1.8008,-1.8008,-1.8008,-1.8008,-1.8008,-1.8008,-1.8008,-1.8008,-1.8008,-1.8008,-1.8008,-1.8008,-1.8008,-1.8008,-1.8008,-1.8008,-1.8008,-1.8008,-1.8337,-1.8787,-1.9266,-2.0301,-2.1195,-2.0719,-2.1259,-2.1865,-2.1428,-2.1713,-2.2035,-2.1778,-2.1563,-2.1307,-2.0792,-2.044,-2.0138,-1.9849,-1.961,-1.9146,-1.8342,-1.799,-1.7526,-1.6626,-1.65,0.0,-1.6886,-1.7187,-1.7511,-1.7739,-1.799,-1.8028,-1.7777,-1.8216,0.0,-1.8141,-1.9183,-1.9965,-2.0321,-2.1107,-2.1941,-2.2832,-2.3454,-2.3738,-2.3767,-2.4163,-2.4134,-2.3767,-2.4163,-2.4352,-2.4352,-2.4352,-2.4713,-2.5339,-2.5892,-2.6463,-2.7065,-2.7629,-2.7855,-2.7887,-2.8266,-2.8395,-2.846,-0.63,-0.63,-0.6567,-0.7442,-0.7706,-0.8084,-0.896,-0.9927,-1.064,-1.0783,-1.1539,-1.215,-1.2261,-1.2305,-1.2305,-1.2305,-1.2305,-1.2305,-1.2305,-1.2305,-1.2305,-1.2305,-1.2305,-1.2659,-1.3455,-1.3637,-1.4135,-1.4985,-1.593,-1.6393,-1.6428,-1.7182,-1.7647,-1.7794,-1.7794,-1.7872,-1.8018,-1.8076,-1.8105,-1.8115,-1.8174,-1.8203,-1.8203,-1.8203,-1.8203,-1.8203,-1.8203,-1.8203,-1.8203,-1.8203,-1.8203,-1.8193,-1.8125,-1.8105,-1.8086,-1.8027,-1.9044,-2.0204,-2.0204,-2.0301,-2.043,-2.0558,-2.1164,-2.1592,-2.1234,-2.163,-2.1889,-2.1104,-2.0805,-2.0541,-2.0024,-1.9497,-1.892,-1.8304,-1.789,-1.7375,-1.66,0.0,-1.6923,-1.736,-1.7549,-1.7815,-1.8292,-1.8732,-1.8845,-1.848,-1.9208,-1.956,-1.9259,-2.0189,-2.0541,-2.0188,-2.1117,-2.1882,-2.2435,-2.2869,-2.3108,-2.3108,-2.3108,-2.3108,-2.3108,-2.3108,-2.3108,-2.3108,-2.3108,-2.3384,-2.3916,-2.4525,-2.5084,-2.5548,-2.6235,-2.6499,-2.6589,-2.7263,-2.7517,-2.7604,-0.63,-0.63,-0.6338,-0.649,-0.7249,-0.7859,-0.8008,-0.8879,-0.9857,-1.0677,-1.0932,-1.1354,-1.2224,-1.2305,-1.2305,-1.2305,-1.2305,-1.2305,-1.2305,-1.2305,-1.2305,-1.2305,-1.2305,-1.2372,-1.2519,-1.3273,-1.3781,-1.3918,-1.4914,-1.5411,-1.5411,-1.5552,-1.6044,-1.6819,-1.6819,-1.7251,-1.8037,-1.8354,-1.851,-1.8539,-1.8945,-1.9092,-1.9092,-1.9092,-1.9092,-1.9092,-1.9092,-1.9092,-1.9092,-1.9092,-1.9092,-1.9023,-1.8617,-1.851,-1.8432,-1.8115,-1.8202,-1.8395,-1.8395,-1.8944,-1.9694,-2.043,-2.0687,-2.0951,-2.1603,-2.1463,-2.1361,-2.1939,-2.1345,-2.0666,-2.0578,-2.0075,-1.9359,-1.8367,-1.8506,-1.8218,-1.6701,0.0,-1.7802,-1.7448,-1.8204,-1.8782,-1.887,-1.8958,-1.9146,-1.9522,-1.9284,-1.9522,-2.039,-2.0591,-2.1081,-2.1895,-2.2096,-2.2418,-2.297,-2.3058,-2.3108,-2.3108,-2.3108,-2.3108,-2.3108,-2.3108,-2.3108,-2.3108,-2.3108,-2.3158,-2.3321,-2.4362,-2.4838,-2.5046,-2.6097,-2.6499,-2.6521,-2.6658,-2.6679,-2.6714,-0.63,-0.63,-0.63,-0.63,-0.6683,-0.6984,-0.6984,-0.7859,-0.8651,-0.914,-0.9664,-1.0434,-1.157,-1.1702,-1.1993,-1.2734,-1.2792,-1.2792,-1.2792,-1.2485,-1.2371,-1.2569,-1.2583,-1.2619,-1.2786,-1.3071,-1.329,-1.3428,-1.4381,-1.4803,-1.466,-1.5198,-1.566,-1.6055,-1.6055,-1.6723,-1.7837,-1.806,-1.8434,-1.9004,-1.9209,-1.9287,-1.9287,-1.9287,-1.9287,-1.9287,-1.9287,-1.9287,-1.9287,-1.9287,-1.9287,-1.9248,-1.9053,-1.8984,-1.8906,-1.8442,-1.8184,-1.8008,-1.8008,-1.8303,-1.8687,-1.911,-1.9562,-2.0009,-2.0398,-2.0665,-2.0943,-2.1499,-2.1197,-2.0827,-2.0711,-2.0214,-1.9648,-1.9145,-1.877,0.0,0.0,-1.8042,-1.8229,-1.8267,-1.8694,-1.9108,-1.9384,-1.9447,-1.9547,-1.9786,-1.9874,-2.0163,-2.0666,-2.1257,-2.1782,-2.2297,-2.2569,-2.2844,-2.3108,-2.3108,-2.3108,-2.3108,-2.3108,-2.3108,-2.3108,-2.3108,-2.3108,-2.3108,-2.3108,-2.3108,-2.317,-2.401,-2.4556,-2.4863,-2.5686,-2.6223,-2.6499,-2.6499,-2.6499,-2.6499,-0.63,-0.63,-0.63,-0.63,-0.63,-0.63,-0.63,-0.6949,-0.7518,-0.7783,-0.8502,-0.9471,-1.0656,-1.1086,-1.1679,-1.2698,-1.3048,-1.3213,-1.3213,-1.2772,-1.2619,-1.2884,-1.2891,-1.3005,-1.3206,-1.3012,-1.2973,-1.3213,-1.3927,-1.4188,-1.3986,-1.472,-1.5162,-1.5378,-1.5378,-1.6092,-1.7327,-1.7687,-1.8294,-1.9102,-1.9467,-1.958,-1.958,-1.958,-1.958,-1.958,-1.958,-1.958,-1.958,-1.958,-1.958,-1.957,-1.9463,-1.9434,-1.9346,-1.8916,-1.8486,-1.8135,-1.8037,-1.8008,-1.8008,-1.8008,-1.8496,-1.9044,-1.9233,-1.9814,-2.0415,-2.08,-2.0808,-2.0701,-2.0763,-2.0296,-1.9877,-1.981,0.0,0.0,0.0,-1.8657,-1.8694,-1.897,-1.9108,-1.9334,-1.9761,-1.9798,-1.9861,-1.9987,-2.044,-2.0805,-2.1069,-2.1845,-2.2372,-2.2468,-2.2882,-2.3108,-2.3108,-2.3108,-2.3108,-2.3108,-2.3108,-2.3108,-2.3108,-2.3108,-2.3108,-2.3108,-2.3108,-2.3108,-2.3145,-2.3753,-2.4243,-2.4695,-2.5335,-2.5862,-2.6311,-2.6449,-2.6499,-2.6499,-0.63,-0.63,-0.63,-0.63,-0.63,-0.63,-0.63,-0.6377,-0.6756,-0.7668,-0.7961,-0.8501,-0.9531,-1.0716,-1.1507,-1.161,-1.2592,-1.3213,-1.3213,-1.3166,-1.3153,-1.3173,-1.3173,-1.3186,-1.3213,-1.3186,-1.3186,-1.3213,-1.3286,-1.3272,-1.3291,-1.3324,-1.3821,-1.4687,-1.4687,-1.5227,-1.6215,-1.7649,-1.8317,-1.8506,-1.9947,-2.0507,-2.0507,-2.0507,-2.0507,-2.0507,-2.0507,-2.0507,-2.0507,-2.0507,-2.0507,-2.0439,-1.999,-1.9873,-1.9785,-1.9365,-1.8936,-1.8471,-1.8081,-1.8008,-1.8008,-1.8008,-1.8042,-1.8303,-1.911,-1.9332,-1.9617,-2.047,-2.0185,-2.0052,-2.0842,-2.0522,-2.0081,-1.9831,0.0,0.0,-1.848,-1.9083,-1.9522,-1.9058,-1.9447,-1.9761,-1.9798,-1.9798,-2.0024,-2.0591,-2.0666,-2.1131,-2.2133,-2.2272,-2.2518,-2.3032,-2.3083,-2.3108,-2.3108,-2.3108,-2.3108,-2.3108,-2.3108,-2.3108,-2.3108,-2.3108,-2.3108,-2.3108,-2.3108,-2.3108,-2.3145,-2.3753,-2.4017,-2.4167,-2.5197,-2.5624,-2.5724,-2.6298,-2.6499,-2.6499,-0.63,-0.63,-0.63,-0.63,-0.63,-0.63,-0.63,-0.63,-0.6486,-0.6924,-0.7026,-0.758,-0.8855,-0.9445,-1.0086,-1.0852,-1.1962,-1.2634,-1.2634,-1.3322,-1.3674,-1.3447,-1.344,-1.3567,-1.3748,-1.3533,-1.3567,-1.3754,-1.3754,-1.3661,-1.344,-1.344,-1.3635,-1.3983,-1.3983,-1.467,-1.5845,-1.6461,-1.7079,-1.7743,-1.8329,-1.8988,-1.9599,-1.9599,-2.0001,-2.0605,-2.0605,-2.0605,-2.0605,-2.0605,-2.0605,-2.0576,-2.041,-2.0312,-2.0234,-1.9805,-1.9375,-1.8945,-1.8481,-1.8178,-1.8008,-1.8008,-1.8008,-1.8076,-1.8428,-1.8496,-1.8754,-1.9617,-1.9609,-1.9607,-2.0101,-2.0049,-2.0079,-2.0478,0.0,-2.0477,-2.0709,-2.0815,-2.0778,-2.0577,-2.0727,-2.084,-2.084,-2.084,-2.0941,-2.1182,-2.1493,-2.187,-2.2284,-2.2606,-2.2895,-2.3095,-2.3108,-2.3108,-2.3108,-2.3108,-2.3108,-2.3108,-2.3108,-2.3108,-2.3108,-2.3108,-2.3108,-2.3108,-2.3108,-2.3108,-2.312,-2.3346,-2.3847,-2.4556,-2.4958,-2.5536,-2.6197,-2.6411,-2.6499,-2.6499,-0.63,-0.645,-0.6478,-0.633,-0.63,-0.633,-0.6422,-0.6439,-0.6474,-0.6532,-0.6586,-0.7019,-0.8036,-0.8491,-0.9133,-0.9995,-1.1123,-1.1938,-1.2285,-1.3428,-1.3995,-1.3753,-1.374,-1.3881,-1.4082,-1.3888,-1.3881,-1.4088,-1.4088,-1.3981,-1.374,-1.374,-1.374,-1.374,-1.374,-1.4296,-1.522,-1.5579,-1.6108,-1.6846,-1.7172,-1.7787,-1.847,-1.847,-1.9155,-2.0079,-2.0079,-2.0323,-2.0605,-2.0605,-2.0605,-2.0605,-2.0605,-2.0605,-2.0546,-2.0205,-1.9814,-1.9414,-1.9085,-1.8598,-1.8174,-1.8047,-1.8008,-1.8008,-1.8008,-1.8008,-1.8168,-1.8754,-1.8877,-1.904,-1.9499,-1.9603,-1.9843,-2.0507,-2.0273,-2.0329,-2.1131,-2.0911,-2.0681,-2.0681,-2.0681,-2.0795,-2.1063,-2.0852,-2.0868,-2.1309,-2.1462,-2.1714,-2.2164,-2.2522,-2.2823,-2.3078,-2.3108,-2.3108,-2.3108,-2.3108,-2.3108,-2.3108,-2.3108,-2.3108,-2.3108,-2.3108,-2.3108,-2.3108,-2.3108,-2.3108,-2.3108,-2.3108,-2.3559,-2.4299,-2.465,-2.5285,-2.6021,-2.6361,-2.6499,-2.6499,-0.6306,-0.6739,-0.6913,-0.6409,-0.6306,-0.6405,-0.6658,-0.6702,-0.6702,-0.6702,-0.6834,-0.6886,-0.6886,-0.8092,-0.889,-0.889,-0.9923,-1.108,-1.22,-1.3421,-1.4088,-1.4088,-1.4088,-1.4088,-1.4088,-1.4088,-1.4088,-1.4088,-1.4088,-1.4088,-1.4088,-1.4088,-1.4088,-1.4088,-1.4088,-1.4088,-1.4173,-1.5255,-1.5703,-1.5786,-1.6846,-1.7302,-1.7302,-1.7302,-1.798,-1.9006,-1.9006,-1.9678,-2.0605,-2.0605,-2.0605,-2.0605,-2.0605,-2.0605,-2.0605,-2.0605,-2.0254,-1.9922,-1.9912,-1.926,-1.851,-1.8115,-1.8008,-1.8008,-1.8008,-1.8008,-1.8008,-1.8008,-1.8008,-1.8269,-1.9144,-1.9299,-1.937,-1.9658,-1.9705,-1.9507,-1.8999,-1.8892,-1.8892,-1.8892,-1.8892,-1.9249,-2.0122,-1.9426,-1.9482,-2.0883,-2.0251,-2.0429,-2.1822,-2.1877,-2.2261,-2.3078,-2.3078,-2.3078,-2.3078,-2.3108,-2.3108,-2.3108,-2.3108,-2.3108,-2.3108,-2.3108,-2.3108,-2.3108,-2.3108,-2.3108,-2.3108,-2.3108,-2.3108,-2.3221,-2.4349,-2.4788,-2.4926,-2.6084,-2.6499,-2.6499,-0.6668,-0.6879,-0.7041,-0.6909,-0.6878,-0.6861,-0.6765,-0.6755,-0.6771,-0.6854,-0.6859,-0.6923,-0.7021,-0.7376,-0.7621,-0.7621,-0.8711,-0.9879,-1.1037,-1.2206,-1.2851,-1.2851,-1.3646,-1.4088,-1.4088,-1.4088,-1.4088,-1.4088,-1.4088,-1.4088,-1.4088,-1.4088,-1.4088,-1.4088,-1.4088,-1.4088,-1.413,-1.4454,-1.4573,-1.4615,-1.4943,-1.5511,-1.6191,-1.6191,-1.6846,-1.7827,-1.7827,-1.851,-1.9481,-1.9481,-1.9962,-2.0605,-2.0605,-2.0605,-2.0605,-2.0605,-2.0507,-2.0303,-2.0,-1.9727,-1.9355,-1.8598,-1.8223,-1.8008,-1.8008,-1.8008,-1.8008,-1.8008,-1.8008,-1.8076,-1.8327,-1.8395,-1.8613,-1.9306,-1.9404,-1.9587,-2.0039,-2.008,-2.008,-2.008,-2.008,-2.0205,-2.0455,-2.0236,-2.0272,-2.0703,-2.0493,-2.0529,-2.0974,-2.0974,-2.1396,-2.223,-2.2261,-2.2261,-2.2261,-2.2823,-2.3108,-2.3108,-2.3108,-2.3108,-2.3108,-2.3108,-2.3108,-2.3108,-2.3108,-2.3108,-2.3108,-2.3108,-2.3346,-2.3778,-2.4117,-2.4707,-2.541,-2.5737,-2.6147,-2.6499,-0.69,-0.7014,-0.7095,-0.7095,-0.7095,-0.7055,-0.6933,-0.6916,-0.693,-0.6964,-0.6967,-0.7001,-0.7088,-0.7095,-0.7095,-0.7095,-0.8189,-0.9192,-0.9879,-1.0994,-1.1809,-1.2285,-1.2984,-1.3603,-1.4088,-1.4088,-1.4088,-1.4088,-1.4088,-1.4088,-1.4088,-1.4088,-1.4088,-1.4088,-1.4088,-1.4088,-1.4088,-1.4088,-1.4088,-1.4088,-1.4088,-1.4496,-1.5054,-1.5054,-1.5745,-1.6683,-1.6683,-1.7374,-1.831,-1.831,-1.9076,-1.9962,-1.9962,-2.0245,-2.0605,-2.0605,-2.0605,-2.0546,-2.0244,-2.0049,-1.9757,-1.9231,-1.8666,-1.8213,-1.8047,-1.8008,-1.8008,-1.8008,-1.8008,-1.8008,-1.8008,-1.8008,-1.8168,-1.8687,-1.8787,-1.8977,-1.9497,-1.9562,-1.9562,-1.9562,-1.9562,-1.9726,-2.0042,-1.9781,-1.9562,-1.9562,-1.9562,-1.9726,-2.0074,-2.0074,-2.0494,-2.1365,-2.1396,-2.1396,-2.1396,-2.1865,-2.2113,-2.2113,-2.2113,-2.2279,-2.2641,-2.2641,-2.2793,-2.3108,-2.3108,-2.3108,-2.3108,-2.3108,-2.3308,-2.3678,-2.3916,-2.4393,-2.5021,-2.5435,-2.5824,-2.6185,-0.6926,-0.7051,-0.7095,-0.7095,-0.7095,-0.7095,-0.7095,-0.7095,-0.7095,-0.7095,-0.7095,-0.7095,-0.7095,-0.7095,-0.7095,-0.7095,-0.8105,-0.8759,-0.8759,-0.9792,-1.0913,-1.1938,-1.2109,-1.2723,-1.3906,-1.4039,-1.4088,-1.4088,-1.4088,-1.4088,-1.4088,-1.4088,-1.4088,-1.4088,-1.4088,-1.4088,-1.4088,-1.4088,-1.4088,-1.4088,-1.4088,-1.4088,-1.4088,-1.4088,-1.4692,-1.5579,-1.5579,-1.6239,-1.718,-1.7253,-1.7989,-1.8838,-1.8838,-1.9599,-2.044,-2.044,-2.0527,-2.0605,-2.0605,-2.0273,-1.9961,-1.9922,-1.929,-1.8598,-1.813,-1.8037,-1.8008,-1.8008,-1.8008,-1.8008,-1.8008,-1.8008,-1.8008,-1.8008,-1.8008,-1.8008,-1.8008,-1.8008,-1.8008,-1.8008,-1.8008,-1.8303,-1.911,-1.8462,-1.8008,-1.8008,-1.8008,-1.8337,-1.9144,-1.9177,-1.9584,-2.0462,-2.0494,-2.0494,-2.0494,-2.0494,-2.0526,-2.059,-2.059,-2.1005,-2.1784,-2.1784,-2.2187,-2.2884,-2.2884,-2.2884,-2.2884,-2.2944,-2.2975,-2.3067,-2.3684,-2.3954,-2.4117,-2.5096,-2.5485,-2.5598,-0.5753,-0.6473,-0.7095,-0.7095,-0.7095,-0.7095,-0.7095,-0.7095,-0.7095,-0.7095,-0.7095,-0.7095,-0.7095,-0.7095,-0.7095,-0.7095,-0.736,-0.7489,-0.7489,-0.8623,-0.9366,-0.9623,-1.0481,-1.1515,-1.2681,-1.3603,-1.4088,-1.4088,-1.4088,-1.4088,-1.4088,-1.4088,-1.4088,-1.4088,-1.4088,-1.4088,-1.4088,-1.4088,-1.4088,-1.4088,-1.4088,-1.4088,-1.4088,-1.4088,-1.425,-1.4454,-1.4454,-1.5137,-1.6191,-1.7009,-1.7455,-1.7666,-1.7666,-1.843,-1.9362,-1.9362,-1.9923,-2.0605,-2.0605,-2.0537,-2.038,-2.0,-1.9775,-1.9407,-1.8637,-1.8242,-1.8008,-1.8008,-1.8008,-1.8008,-1.8008,-1.8008,-1.8008,-1.8008,-1.8008,-1.8008,-1.8008,-1.8008,-1.8008,-1.8008,-1.8008,-1.8076,-1.8269,-1.811,-1.8008,-1.8008,-1.8008,-1.8076,-1.8269,-1.8269,-1.8687,-1.9562,-1.9584,-1.9584,-1.9584,-1.9584,-1.9911,-2.059,-2.059,-2.0687,-2.0878,-2.0878,-2.0974,-2.1132,-2.1132,-2.1132,-2.1195,-2.1877,-2.2156,-2.2242,-2.299,-2.3572,-2.4029,-2.4255,-2.4619,-2.5059,-0.4419,-0.5489,-0.6296,-0.6296,-0.6738,-0.7095,-0.7095,-0.7095,-0.7095,-0.7095,-0.7095,-0.7095,-0.7095,-0.7095,-0.7095,-0.7095,-0.7095,-0.7095,-0.7095,-0.7709,-0.8277,-0.889,-0.9449,-1.0308,-1.1466,-1.2126,-1.2997,-1.4088,-1.4088,-1.4088,-1.4088,-1.4088,-1.4088,-1.4088,-1.4088,-1.4088,-1.4088,-1.4088,-1.4088,-1.4088,-1.4088,-1.4088,-1.4088,-1.4088,-1.4088,-1.4088,-1.4088,-1.4454,-1.5019,-1.5594,-1.6116,-1.656,-1.656,-1.7293,-1.831,-1.8838,-1.9402,-1.9962,-2.044,-2.0605,-2.0546,-2.0283,-2.0068,-1.9687,-1.8802,-1.8432,-1.8217,-1.8047,-1.8008,-1.8008,-1.8008,-1.8008,-1.8008,-1.8008,-1.8008,-1.8008,-1.8008,-1.8008,-1.8008,-1.8008,-1.8008,-1.8008,-1.8008,-1.8008,-1.8008,-1.8008,-1.8008,-1.8008,-1.8008,-1.8008,-1.8202,-1.8654,-1.8687,-1.8687,-1.8687,-1.8687,-1.8911,-1.9365,-1.9365,-1.9595,-1.9977,-1.9977,-2.0204,-2.059,-2.059,-2.059,-2.0623,-2.1101,-2.127,-2.1333,-2.1741,-2.2094,-2.2412,-2.2663,-2.3365,-2.4267,-0.3081,-0.4285,-0.509,-0.509,-0.6027,-0.6827,-0.6827,-0.6962,-0.7095,-0.7095,-0.7095,-0.7095,-0.7095,-0.7095,-0.7095,-0.7095,-0.7095,-0.7095,-0.7095,-0.7095,-0.7533,-0.854,-0.8584,-0.9148,-1.0265,-1.0313,-1.1348,-1.3519,-1.3695,-1.3779,-1.3779,-1.3997,-1.4088,-1.4088,-1.4088,-1.4088,-1.4088,-1.4088,-1.4088,-1.4088,-1.4088,-1.4088,-1.4088,-1.4088,-1.4088,-1.4088,-1.4088,-1.4088,-1.4088,-1.4088,-1.4692,-1.5421,-1.5421,-1.6157,-1.7212,-1.8149,-1.8709,-1.9195,-2.0079,-2.044,-2.0605,-2.0605,-2.0293,-1.9814,-1.8997,-1.8763,-1.8588,-1.8203,-1.8081,-1.8096,-1.8018,-1.8008,-1.8008,-1.8008,-1.8008,-1.8008,-1.8008,-1.8008,-1.8008,-1.8008,-1.8008,-1.8008,-1.8008,-1.8008,-1.8008,-1.8008,-1.8008,-1.8008,-1.8008,-1.8008,-1.8008,-1.8008,-1.8008,-1.8008,-1.8008,-1.8008,-1.8008,-1.8008,-1.8008,-1.8371,-1.9077,-1.9077,-1.9464,-2.0171,-2.0171,-2.0171,-2.0171,-2.0333,-2.0365,-2.0398,-2.0526,-2.059,-2.0635,-2.1115,-2.2053,-2.3271,-0.2013,-0.3037,-0.3838,-0.3838,-0.4821,-0.5625,-0.5625,-0.647,-0.7095,-0.7095,-0.7095,-0.7095,-0.7095,-0.7095,-0.7095,-0.7095,-0.7095,-0.7095,-0.7095,-0.7095,-0.7183,-0.7316,-0.736,-0.7885,-0.9104,-0.9148,-0.9753,-1.1085,-1.2072,-1.2547,-1.2589,-1.3603,-1.4088,-1.4088,-1.4088,-1.4088,-1.4088,-1.4088,-1.4088,-1.4088,-1.4088,-1.4088,-1.4088,-1.4088,-1.4088,-1.4088,-1.4088,-1.4088,-1.4088,-1.4088,-1.4208,-1.4328,-1.4328,-1.5061,-1.5944,-1.6108,-1.7488,-1.9036,-1.9195,-1.9883,-2.0605,-2.0605,-2.0556,-2.039,-1.9853,-1.9463,-1.9072,-1.8607,-1.852,-1.8403,-1.8076,-1.8008,-1.8008,-1.8008,-1.8008,-1.8008,-1.8008,-1.8008,-1.8008,-1.8008,-1.8008,-1.8008,-1.8008,-1.8008,-1.8008,-1.8008,-1.8008,-1.8008,-1.8008,-1.8008,-1.8008,-1.8008,-1.8008,-1.8008,-1.8008,-1.8008,-1.8008,-1.8008,-1.8008,-1.8076,-1.8178,-1.8178,-1.8236,-1.8337,-1.8337,-1.8337,-1.8395,-1.9177,-1.9464,-1.9562,-2.0301,-2.059,-2.0602,-2.0669,-2.1136,-2.1829,-0.0807,-0.1745,-0.2592,-0.2592,-0.3573,-0.4641,-0.5314,-0.5849,-0.6381,-0.7007,-0.7095,-0.7095,-0.7095,-0.7095,-0.7095,-0.7095,-0.7095,-0.7095,-0.7095,-0.7095,-0.7095,-0.7095,-0.7095,-0.7356,-0.7885,-0.7885,-0.8145,-0.8659,-1.0476,-1.1681,-1.2328,-1.2851,-1.3464,-1.4088,-1.4088,-1.4088,-1.4088,-1.4088,-1.4088,-1.4102,-1.4262,-1.4329,-1.4349,-1.4516,-1.462,-1.4599,-1.4389,-1.4222,-1.4088,-1.4088,-1.4088,-1.4088,-1.4088,-1.4412,-1.4936,-1.5538,-1.6396,-1.7415,-1.8669,-1.9362,-1.9835,-2.044,-2.0605,-2.0556,-2.0322,-2.0137,-1.9852,-1.9141,-1.8773,-1.8549,-1.8354,-1.813,-1.8008,-1.8008,-1.8008,-1.8008,-1.8008,-1.8008,-1.8008,-1.8008,-1.8008,-1.8008,-1.8008,-1.8008,-1.8008,-1.8008,-1.8008,-1.8008,-1.8008,-1.8008,-1.8008,-1.8008,-1.8008,-1.8008,-1.8008,-1.8008,-1.8008,-1.8008,-1.8008,-1.8008,-1.8008,-1.8008,-1.8008,-1.8008,-1.8008,-1.8008,-1.8042,-1.8428,-1.8553,-1.863,-1.9011,-1.9144,-1.9199,-1.9694,-2.0009,-2.0358]}]]